[[{"header":{"parameterUnit":"m.s-1","parameterCategory":1,"la1":30.6,"la2":29.2853,"lo1":-89.7004,"lo2":-87.6739,"dy":0.0162,"dx":0.0183,"nx":112,"ny":82,"refTime":"2024-08-04T06:00:00:Z","depth":0,"parameterNumber":2,"parameterNumberName":"U-component_of_WINDS"},"data":[0.0,0.0,0.0,0.0,0.0,0.0,0.0,0.0,0.0,0.0,0.0,0.0,0.0,0.0,0.0,0.0,0.0,0.0,0.0,0.0,0.0,0.0,0.0,0.0,0.0,0.0,0.0,0.0,0.0,0.0,0.0,0.0,0.0,0.0,0.0,0.0,0.0,0.0,0.0,0.0,0.0,0.0,0.0,0.0,0.0,0.0,0.0,0.0,0.0,0.0,0.0,0.0,0.0,0.0,0.0,0.0,0.0,0.0,0.0,0.0,0.0,0.0,0.0,0.0,0.0,0.0,0.0,0.0,0.0,0.0,0.0,0.0,0.0,0.0,0.0,0.0,0.0,0.0,0.0,0.0,0.0,0.0,0.0,0.0,0.0,0.0,0.0,0.0,0.0,0.0,3.2949,3.5115,3.8193,4.0087,4.0087,4.0087,3.7889,3.278,0.0,0.0,0.0,0.0,0.0,0.0,0.0,0.0,0.0,0.0,0.0,0.0,0.0,0.0,0.0,0.0,0.0,0.0,0.0,0.0,0.0,0.0,0.0,0.0,0.0,0.0,0.0,0.0,0.0,0.0,0.0,0.0,0.0,0.0,0.0,0.0,0.0,0.0,0.0,0.0,0.0,0.0,0.0,0.0,0.0,0.0,0.0,0.0,0.0,0.0,0.0,0.0,0.0,0.0,0.0,0.0,0.0,0.0,0.0,0.0,0.0,0.0,0.0,0.0,0.0,0.0,0.0,0.0,0.0,0.0,0.0,0.0,0.0,0.0,0.0,0.0,0.0,0.0,0.0,0.0,0.0,0.0,0.0,0.0,0.0,0.0,0.0,0.0,0.0,0.0,0.0,0.0,0.0,0.0,0.0,0.0,0.0,0.0,0.0,0.0,0.0,0.0,0.0,0.0,3.3389,3.8667,3.9749,4.0087,4.0087,4.0087,3.8125,3.3525,0.0,0.0,0.0,0.0,0.0,0.0,0.0,0.0,0.0,0.0,0.0,0.0,0.0,0.0,0.0,0.0,0.0,0.0,0.0,0.0,0.0,0.0,0.0,0.0,0.0,0.0,0.0,0.0,0.0,0.0,0.0,0.0,0.0,0.0,0.0,0.0,0.0,0.0,0.0,0.0,0.0,0.0,0.0,0.0,0.0,0.0,0.0,0.0,0.0,0.0,0.0,0.0,0.0,0.0,0.0,0.0,0.0,0.0,0.0,0.0,0.0,0.0,0.0,0.0,0.0,0.0,0.0,0.0,0.0,0.0,0.0,0.0,0.0,0.0,0.0,0.0,0.0,0.0,0.0,0.0,0.0,0.0,0.0,0.0,0.0,0.0,0.0,0.0,0.0,0.0,0.0,0.0,0.0,0.0,0.0,0.0,0.0,0.0,0.0,0.0,0.0,0.0,0.0,3.2374,3.481,3.958,4.0087,4.0087,4.0087,4.0087,3.8159,3.3694,3.2002,0.0,0.0,0.0,0.0,0.0,0.0,0.0,0.0,0.0,0.0,0.0,0.0,0.0,0.0,0.0,0.0,0.0,0.0,0.0,0.0,0.0,0.0,0.0,0.0,0.0,0.0,0.0,0.0,0.0,0.0,0.0,0.0,0.0,0.0,0.0,0.0,0.0,0.0,0.0,0.0,0.0,0.0,0.0,0.0,0.0,0.0,0.0,0.0,0.0,0.0,0.0,0.0,0.0,0.0,0.0,0.0,0.0,0.0,0.0,0.0,0.0,0.0,0.0,0.0,0.0,0.0,0.0,0.0,0.0,0.0,0.0,0.0,0.0,0.0,0.0,0.0,0.0,0.0,0.0,0.0,0.0,0.0,0.0,0.0,0.0,0.0,0.0,0.0,0.0,0.0,0.0,0.0,0.0,0.0,0.0,0.0,0.0,0.0,0.0,0.0,0.0,0.0,3.5148,3.6705,3.9749,4.0087,4.0087,4.0087,3.9445,3.7347,3.3389,3.1258,0.0,0.0,0.0,0.0,0.0,0.0,0.0,0.0,0.0,0.0,0.0,0.0,0.0,0.0,0.0,0.0,0.0,0.0,0.0,0.0,0.0,0.0,0.0,0.0,0.0,0.0,0.0,0.0,0.0,0.0,0.0,0.0,0.0,0.0,0.0,0.0,0.0,0.0,0.0,0.0,0.0,0.0,0.0,0.0,0.0,0.0,0.0,0.0,0.0,0.0,0.0,0.0,0.0,0.0,0.0,0.0,0.0,0.0,0.0,0.0,0.0,0.0,0.0,0.0,0.0,0.0,0.0,0.0,0.0,0.0,0.0,0.0,0.0,0.0,0.0,0.0,0.0,0.0,0.0,0.0,0.0,0.0,0.0,0.0,0.0,0.0,0.0,0.0,0.0,0.0,0.0,0.0,0.0,0.0,0.0,0.0,0.0,0.0,0.0,0.0,0.0,0.0,3.569,3.9039,3.9986,4.0087,4.0087,4.0087,3.7516,3.4912,3.251,2.8991,0.0,0.0,0.0,0.0,0.0,0.0,0.0,0.0,0.0,0.0,0.0,0.0,0.0,0.0,0.0,0.0,0.0,0.0,0.0,0.0,0.0,0.0,0.0,0.0,0.0,0.0,0.0,0.0,0.0,0.0,0.0,0.0,0.0,0.0,0.0,0.0,0.0,0.0,0.0,0.0,0.0,0.0,0.0,0.0,0.0,0.0,0.0,0.0,0.0,0.0,0.0,0.0,0.0,0.0,0.0,0.0,0.0,0.0,0.0,0.0,0.0,0.0,0.0,0.0,0.0,0.0,0.0,0.0,0.0,0.0,0.0,0.0,0.0,0.0,0.0,0.0,0.0,0.0,0.0,0.0,0.0,0.0,0.0,0.0,0.0,0.0,0.0,0.0,0.0,0.0,0.0,0.0,0.0,0.0,0.0,0.0,0.0,0.0,0.0,0.0,0.0,0.0,3.4114,3.6987,0.0,3.9765,4.0087,4.0087,3.8633,3.6163,3.2551,0.0,0.0,0.0,0.0,0.0,0.0,0.0,0.0,0.0,0.0,0.0,0.0,0.0,0.0,0.0,0.0,0.0,0.0,0.0,0.0,0.0,0.0,0.0,0.0,0.0,0.0,0.0,0.0,0.0,0.0,0.0,0.0,0.0,0.0,0.0,0.0,0.0,0.0,0.0,0.0,0.0,0.0,0.0,0.0,0.0,0.0,0.0,0.0,0.0,0.0,0.0,0.0,0.0,0.0,0.0,0.0,0.0,0.0,0.0,0.0,0.0,0.0,0.0,0.0,0.0,0.0,0.0,0.0,0.0,0.0,0.0,0.0,0.0,0.0,0.0,0.0,0.0,0.0,0.0,0.0,0.0,0.0,0.0,0.0,0.0,0.0,0.0,0.0,0.0,0.0,0.0,0.0,0.0,0.0,0.0,0.0,0.0,0.0,0.0,0.0,0.0,0.0,3.0751,3.3697,3.632,0.0,3.9049,3.9401,3.9401,3.7818,3.5338,3.1809,0.0,0.0,0.0,0.0,0.0,0.0,0.0,0.0,0.0,0.0,0.0,0.0,0.0,0.0,0.0,0.0,0.0,0.0,0.0,0.0,0.0,0.0,0.0,0.0,0.0,0.0,0.0,0.0,0.0,0.0,0.0,0.0,0.0,0.0,0.0,0.0,0.0,0.0,0.0,0.0,0.0,0.0,0.0,0.0,0.0,0.0,0.0,0.0,0.0,0.0,0.0,0.0,0.0,0.0,0.0,0.0,0.0,0.0,0.0,0.0,0.0,0.0,0.0,0.0,0.0,0.0,0.0,0.0,0.0,0.0,0.0,0.0,0.0,0.0,0.0,0.0,0.0,0.0,0.0,0.0,0.0,0.0,0.0,0.0,0.0,0.0,0.0,0.0,0.0,0.0,0.0,0.0,0.0,0.0,0.0,0.0,0.0,0.0,0.0,0.0,0.0,0.0,3.1013,3.5013,3.7822,3.7822,3.7822,3.7822,3.7822,3.4431,3.1646,0.0,0.0,0.0,0.0,0.0,0.0,0.0,0.0,0.0,0.0,0.0,0.0,0.0,0.0,0.0,0.0,0.0,0.0,0.0,0.0,0.0,0.0,0.0,0.0,0.0,0.0,0.0,0.0,0.0,0.0,0.0,0.0,0.0,0.0,0.0,0.0,0.0,0.0,0.0,0.0,0.0,0.0,0.0,0.0,0.0,0.0,0.0,0.0,0.0,0.0,0.0,0.0,0.0,0.0,0.0,0.0,0.0,0.0,0.0,0.0,0.0,0.0,0.0,0.0,0.0,0.0,0.0,0.0,0.0,0.0,0.0,0.0,0.0,0.0,0.0,0.0,0.0,0.0,0.0,0.0,0.0,0.0,0.0,0.0,0.0,0.0,0.0,0.0,0.0,0.0,0.0,0.0,0.0,0.0,0.0,0.0,0.0,0.0,0.0,0.0,0.0,0.0,0.0,3.0911,3.4935,3.7496,3.7027,3.7884,3.8307,3.7854,3.5879,3.3365,3.0207,0.0,0.0,0.0,0.0,0.0,0.0,0.0,0.0,0.0,0.0,0.0,0.0,0.0,0.0,0.0,0.0,0.0,0.0,0.0,0.0,0.0,0.0,0.0,0.0,0.0,0.0,0.0,0.0,0.0,0.0,0.0,0.0,0.0,0.0,0.0,0.0,0.0,0.0,0.0,0.0,0.0,0.0,0.0,0.0,0.0,0.0,0.0,0.0,0.0,0.0,0.0,0.0,0.0,0.0,0.0,0.0,0.0,0.0,0.0,0.0,0.0,0.0,0.0,0.0,0.0,0.0,0.0,0.0,0.0,0.0,0.0,0.0,0.0,0.0,0.0,0.0,0.0,0.0,0.0,0.0,0.0,0.0,0.0,0.0,0.0,0.0,0.0,0.0,0.0,0.0,0.0,0.0,0.0,0.0,0.0,0.0,0.0,0.0,0.0,0.0,0.0,0.0,3.1236,3.4806,3.7113,3.696,3.7528,3.7686,3.7342,3.6032,3.3732,3.0307,0.0,0.0,0.0,0.0,0.0,0.0,0.0,0.0,0.0,0.0,0.0,0.0,0.0,0.0,0.0,0.0,0.0,0.0,0.0,0.0,0.0,0.0,0.0,0.0,0.0,0.0,0.0,0.0,0.0,0.0,0.0,0.0,0.0,0.0,0.0,0.0,0.0,0.0,0.0,0.0,0.0,0.0,0.0,0.0,0.0,0.0,0.0,0.0,0.0,0.0,0.0,0.0,0.0,0.0,0.0,0.0,0.0,0.0,0.0,0.0,0.0,0.0,0.0,0.0,0.0,0.0,0.0,0.0,0.0,0.0,0.0,0.0,0.0,0.0,0.0,0.0,0.0,0.0,0.0,0.0,0.0,0.0,0.0,0.0,0.0,0.0,0.0,0.0,0.0,0.0,0.0,0.0,0.0,0.0,0.0,0.0,0.0,0.0,0.0,0.0,0.0,0.0,3.1746,3.4729,3.6776,3.7345,3.6956,3.6626,3.6507,3.531,3.3427,3.054,0.0,0.0,0.0,0.0,0.0,0.0,0.0,0.0,0.0,0.0,0.0,0.0,0.0,0.0,0.0,0.0,0.0,0.0,0.0,0.0,0.0,0.0,0.0,0.0,0.0,0.0,0.0,0.0,0.0,0.0,0.0,0.0,0.0,0.0,0.0,0.0,0.0,0.0,0.0,0.0,0.0,0.0,0.0,0.0,0.0,0.0,0.0,0.0,0.0,0.0,0.0,0.0,0.0,0.0,0.0,0.0,0.0,0.0,0.0,0.0,3.0155,0.0,0.0,0.0,0.0,0.0,0.0,0.0,0.0,0.0,0.0,0.0,0.0,0.0,0.0,0.0,0.0,0.0,0.0,0.0,0.0,0.0,0.0,0.0,0.0,0.0,0.0,0.0,0.0,0.0,0.0,0.0,0.0,0.0,0.0,0.0,0.0,0.0,0.0,0.0,0.0,0.0,3.1905,3.5182,3.7255,3.7404,3.7764,3.7584,3.6567,3.5759,3.4269,3.1885,2.9838,0.0,0.0,0.0,0.0,0.0,0.0,0.0,0.0,0.0,0.0,0.0,0.0,0.0,0.0,0.0,0.0,0.0,0.0,0.0,0.0,0.0,0.0,0.0,0.0,0.0,0.0,0.0,0.0,0.0,0.0,0.0,0.0,0.0,0.0,0.0,0.0,0.0,0.0,0.0,0.0,0.0,0.0,0.0,0.0,0.0,0.0,0.0,0.0,0.0,0.0,0.0,0.0,0.0,0.0,0.0,0.0,0.0,0.0,0.0,0.0,3.2894,0.0,0.0,0.0,0.0,0.0,0.0,0.0,0.0,0.0,0.0,0.0,0.0,0.0,0.0,0.0,0.0,0.0,0.0,0.0,0.0,0.0,0.0,0.0,0.0,0.0,0.0,0.0,0.0,0.0,0.0,0.0,0.0,0.0,0.0,0.0,0.0,0.0,0.0,0.0,0.0,3.2854,3.5661,3.7644,3.8302,3.8392,3.8123,3.7464,3.6537,3.5228,3.3396,3.1647,0.0,0.0,0.0,0.0,0.0,0.0,0.0,0.0,0.0,0.0,0.0,0.0,0.0,0.0,0.0,0.0,0.0,0.0,0.0,0.0,0.0,0.0,0.0,0.0,0.0,0.0,0.0,0.0,0.0,0.0,0.0,0.0,0.0,0.0,0.0,0.0,0.0,0.0,0.0,0.0,0.0,0.0,0.0,0.0,0.0,0.0,0.0,0.0,0.0,0.0,0.0,0.0,0.0,3.7709,3.855,4.0055,3.9697,4.0197,4.1324,3.914,3.8142,3.7953,3.6088,0.0,0.0,0.0,0.0,0.0,0.0,0.0,0.0,0.0,0.0,0.0,0.0,0.0,0.0,0.0,0.0,0.0,0.0,0.0,0.0,0.0,0.0,0.0,0.0,3.6864,3.6765,3.1723,0.0,0.0,0.0,0.0,0.0,0.0,0.0,0.0,0.0,0.0,0.0,3.4057,3.626,3.8063,3.929,3.8901,3.8512,3.8392,3.7434,3.6237,3.4921,3.3455,3.213,0.0,0.0,0.0,0.0,0.0,0.0,0.0,0.0,0.0,0.0,0.0,0.0,0.0,0.0,0.0,0.0,0.0,0.0,0.0,0.0,0.0,0.0,0.0,0.0,0.0,0.0,0.0,0.0,0.0,0.0,0.0,0.0,2.3728,2.5043,0.0,0.0,0.0,0.0,0.0,0.0,0.0,0.0,0.0,0.0,0.0,0.0,0.0,3.5825,3.5976,3.9495,4.0592,3.9253,4.1501,4.2675,4.2895,4.3338,4.4354,4.5514,4.5185,0.0,4.0753,3.9311,0.0,0.0,0.0,0.0,0.0,0.0,0.0,0.0,0.0,0.0,0.0,0.0,0.0,0.0,0.0,0.0,0.0,0.0,0.0,0.0,0.0,0.0,4.094,3.9896,4.0234,4.0499,0.0,3.525,3.139,2.9325,2.8457,0.0,0.0,0.0,0.0,0.0,0.0,0.0,3.5018,3.7083,3.8571,3.9349,3.9349,3.905,3.8452,3.8242,3.7584,3.6297,3.4925,3.4091,3.386,3.1229,0.0,0.0,0.0,0.0,0.0,0.0,0.0,0.0,0.0,0.0,0.0,0.0,0.0,0.0,0.0,0.0,0.0,0.0,0.0,0.0,0.0,0.0,0.0,0.0,0.0,0.0,0.0,0.0,0.0,2.3221,2.6424,2.7023,2.8385,2.8876,0.0,0.0,0.0,0.0,0.0,0.0,0.0,0.0,0.0,3.4576,3.6334,3.7776,3.897,4.093,4.2148,4.2626,4.3101,4.3742,4.4401,4.4729,4.5559,4.681,4.7673,4.7193,4.5624,4.319,4.0985,3.9156,0.0,0.0,0.0,0.0,3.7594,3.7997,3.916,3.9741,3.9578,3.7901,0.0,0.0,0.0,0.0,0.0,0.0,0.0,0.0,0.0,0.0,4.2874,4.2655,4.3084,4.3397,4.2723,3.9963,3.6828,0.0,3.3215,3.2018,2.8816,0.0,0.0,0.0,0.0,3.4023,3.6297,3.7973,3.908,3.9379,3.9409,3.929,3.899,3.8601,3.8153,3.7584,3.6656,3.5949,3.5607,3.3668,3.2048,0.0,0.0,0.0,0.0,0.0,0.0,0.0,0.0,0.0,0.0,0.0,0.0,0.0,0.0,0.0,0.0,0.0,0.0,0.0,0.0,0.0,0.0,0.0,0.0,0.0,0.0,0.0,0.0,2.5301,2.8287,2.8903,3.0881,3.1706,0.0,0.0,0.0,0.0,0.0,0.0,3.4043,3.568,3.6698,3.6896,3.8392,3.9711,4.0911,4.1638,4.2752,4.4135,4.3205,4.3362,4.459,4.4719,4.5693,4.7289,4.8282,4.8953,4.9045,4.6232,4.4093,4.2578,4.1733,4.1026,4.0525,4.1761,4.1936,4.1966,4.386,4.4369,4.3805,4.2408,4.1535,4.074,3.8483,0.0,0.0,0.0,0.0,4.0665,4.207,4.3005,4.3737,4.4411,4.4785,4.4911,4.4241,4.2986,4.1088,0.0,3.7138,3.5836,3.2047,0.0,0.0,0.0,0.0,3.6327,3.7973,3.92,3.9858,3.9679,3.9679,3.9619,3.9439,3.896,3.8571,3.8392,3.7764,3.7135,3.6507,3.537,3.4059,3.254,0.0,0.0,0.0,0.0,0.0,0.0,0.0,0.0,0.0,0.0,0.0,0.0,0.0,0.0,0.0,0.0,0.0,0.0,0.0,0.0,0.0,0.0,0.0,0.0,0.0,0.0,0.0,0.0,0.0,3.0903,3.2358,0.0,0.0,0.0,0.0,3.4481,3.56,3.6676,3.7532,3.8699,3.9421,3.9498,4.1723,4.2391,4.1311,4.2474,4.2608,4.1436,4.1436,4.2051,4.3282,4.3333,4.4702,4.7166,4.7289,4.8068,4.9164,4.7728,4.6685,4.5938,4.4646,4.3745,4.3323,4.3908,4.4512,4.5081,4.5198,4.5607,4.6102,4.6043,4.4732,4.3286,4.3719,4.2179,0.0,0.0,4.2998,4.3373,4.4732,4.4703,4.45,4.5082,4.482,4.424,4.3575,4.3401,4.251,0.0,3.8995,3.8131,3.6646,0.0,3.8003,3.8003,3.8661,3.9439,4.0157,4.0846,4.1055,4.0427,4.0337,4.0098,3.9469,3.9379,3.908,3.8422,3.7764,3.7135,3.6507,3.5818,3.4801,3.3486,3.139,0.0,0.0,0.0,0.0,0.0,0.0,0.0,0.0,0.0,0.0,0.0,0.0,0.0,0.0,0.0,0.0,0.0,0.0,0.0,0.0,0.0,0.0,0.0,0.0,0.0,0.0,0.0,0.0,3.359,3.5267,0.0,3.5762,3.5814,3.6273,3.714,3.7782,3.8486,3.9522,4.0236,4.0638,4.0752,4.1549,4.1954,4.1856,4.2326,4.2528,4.2384,4.2384,4.2604,4.3099,4.3909,4.4836,4.5847,4.7688,4.8789,4.9238,4.9159,4.8805,4.8177,4.7698,4.7372,4.7135,4.6976,4.7036,4.7133,4.6721,4.6721,4.6927,4.6927,4.6456,4.5841,4.5666,4.525,4.4892,4.5196,4.552,4.5841,4.5461,4.5841,4.6105,4.5491,4.5225,4.4995,4.4715,4.3082,4.1458,4.0522,3.9858,3.917,3.8596,3.8514,3.8663,3.9038,3.9978,4.0756,4.0995,4.1594,4.1773,4.1115,4.1025,4.0756,4.0098,3.9679,3.911,3.8422,3.7764,3.7135,3.6507,3.6267,3.5699,3.4801,3.3245,3.112,0.0,0.0,0.0,0.0,0.0,0.0,0.0,0.0,0.0,0.0,0.0,0.0,0.0,0.0,0.0,0.0,0.0,0.0,0.0,0.0,0.0,0.0,0.0,0.0,0.0,0.0,3.3233,3.5365,3.6923,3.7886,3.796,3.7887,3.8316,3.9149,3.955,4.0023,4.0752,4.1304,4.1605,4.1605,4.1806,4.2057,4.2434,4.2434,4.261,4.2986,4.2986,4.2986,4.2986,4.3907,4.4535,4.5155,4.6991,4.8339,4.9231,4.9721,4.9902,4.9883,4.9434,4.9254,4.9224,4.8746,4.8655,4.8531,4.7872,4.7692,4.7575,4.7339,4.7043,4.6545,4.6105,4.6046,4.6046,4.6046,4.6046,4.59,4.5491,4.537,4.5287,4.4899,4.4414,4.4165,4.4132,4.2521,4.0939,4.0473,4.0053,3.9687,3.9587,3.962,3.9882,4.0646,4.1008,4.1418,4.2294,4.2208,4.2011,4.1773,4.1713,4.1354,4.0487,3.9798,3.923,3.8781,3.7704,3.7015,3.6806,3.6387,3.5938,3.5519,3.4173,3.2647,3.0911,0.0,0.0,0.0,0.0,0.0,0.0,0.0,0.0,0.0,0.0,0.0,0.0,0.0,0.0,0.0,0.0,0.0,0.0,0.0,0.0,0.0,0.0,0.0,3.0683,3.3093,3.5161,3.6139,3.7304,3.8256,3.8626,3.9344,3.9973,4.0526,4.1053,4.1379,4.1379,4.1907,4.2208,4.2208,4.2735,4.3037,4.3037,4.3037,4.3037,4.3037,4.3037,4.3037,4.3037,4.3037,4.3764,4.4993,4.4993,4.6632,4.912,4.9219,5.0028,5.1016,4.9823,4.9314,4.9344,4.925,4.9252,4.9044,4.8413,4.817,4.8079,4.7429,4.6399,4.5375,4.5346,4.4502,4.3777,4.4967,4.4472,4.3806,4.4938,4.3436,4.1977,4.3163,4.2506,4.1576,4.1565,4.1591,4.1219,3.9981,3.9767,3.9833,3.9807,4.0788,4.1925,4.3197,4.1868,0.0,4.3908,4.2631,4.1826,4.2306,4.2402,4.1863,4.0576,3.9828,3.9439,3.9379,3.7554,3.6776,3.7375,3.6207,3.5579,3.5579,3.4292,3.3604,3.3544,0.0,0.0,0.0,0.0,0.0,0.0,0.0,0.0,0.0,0.0,0.0,0.0,0.0,0.0,0.0,0.0,0.0,0.0,0.0,0.0,0.0,3.1989,3.4022,3.4173,3.5529,3.7056,3.8561,3.9398,4.0027,4.0461,4.0706,4.1103,4.1656,4.1856,4.2108,4.2509,4.3062,4.3338,4.3338,4.389,4.4166,4.4166,4.4166,4.4166,4.4166,4.4166,4.4166,4.4166,4.4166,4.4396,4.4801,4.5761,4.6727,4.7568,4.9596,4.9852,4.8934,5.0176,5.069,5.0538,4.9004,4.753,4.622,4.6054,4.5995,4.5924,4.5331,4.4918,4.4518,4.4096,4.3813,4.3606,4.3895,4.3739,4.3398,4.2814,4.277,4.2858,4.2235,4.1901,4.1589,4.1597,4.0844,4.0083,3.98,3.9728,3.9876,4.0297,4.033,4.0668,4.1834,4.1605,0.0,4.2209,4.1499,4.131,4.2299,4.2029,4.185,4.1893,4.0786,3.9709,3.8751,3.7315,3.6776,3.7375,3.7075,3.7105,3.7584,3.6776,3.5878,0.0,0.0,0.0,0.0,0.0,0.0,0.0,0.0,0.0,0.0,0.0,0.0,0.0,0.0,0.0,0.0,0.0,0.0,0.0,0.0,0.0,0.0,3.5077,3.7111,3.7563,3.799,3.8693,3.9898,4.0526,4.1078,4.163,4.1681,4.2007,4.2785,4.2836,4.3087,4.3639,4.3966,4.4141,4.4141,4.4468,4.4618,4.4618,4.4618,4.4618,4.4618,4.4618,4.4618,4.4618,4.4618,4.4618,4.4618,4.5488,4.6117,4.6875,4.8489,4.883,0.0,0.0,0.0,0.0,0.0,4.6951,4.5889,4.5674,4.5492,4.5393,4.4826,4.4293,4.3748,4.3251,4.2631,4.2371,4.2605,4.233,4.1822,4.1671,4.1699,4.1775,4.0971,4.0823,4.0773,4.0821,4.0262,3.9697,3.9697,3.9697,0.0,4.013,3.9995,4.0129,4.1301,4.0924,4.0763,4.1764,4.0968,4.0795,4.1928,4.1566,4.148,4.1968,4.0812,0.0,0.0,0.0,3.7883,3.8242,3.8242,0.0,0.0,0.0,0.0,0.0,0.0,0.0,0.0,3.655,3.5718,0.0,0.0,0.0,0.0,0.0,0.0,0.0,0.0,0.0,0.0,0.0,0.0,0.0,0.0,0.0,0.0,3.7638,3.9421,4.045,4.0249,4.0149,4.0651,4.1128,4.1656,4.2183,4.2308,4.276,4.374,4.3865,4.4116,4.4593,0.0,0.0,0.0,0.0,4.4819,4.4819,4.4819,4.4819,4.4819,4.4819,4.4819,4.4819,4.4819,4.4819,4.4819,4.4819,4.5464,4.6638,4.6863,4.7588,4.8786,4.9643,4.8816,4.6998,4.6998,4.6867,4.6496,4.5977,0.0,0.0,4.4941,4.4019,4.2956,4.2423,4.1492,4.0745,4.126,4.0669,4.008,4.1132,4.0567,3.9697,3.9697,3.9697,3.9697,3.9697,3.9697,3.9697,3.9697,3.9697,3.9697,3.9697,3.9697,4.0083,4.1219,4.003,3.9722,4.1951,4.0707,4.0145,4.1305,0.0,0.0,4.1312,4.0367,4.0163,4.1104,4.0189,3.9638,3.9638,3.9934,4.0606,4.1683,4.1773,4.2641,4.4317,4.4466,4.4855,4.5334,4.0408,3.8573,0.0,0.0,0.0,0.0,0.0,0.0,0.0,0.0,0.0,0.0,0.0,0.0,0.0,0.0,0.0,3.7211,3.9019,4.0425,4.1078,4.1455,4.1706,4.1831,4.1932,4.2208,4.276,4.3212,4.3564,4.379,4.4217,4.4518,4.4618,4.507,4.5321,4.5321,4.5748,4.5974,4.5974,4.5974,4.5974,4.5974,0.0,0.0,4.5974,4.5974,4.5974,4.5974,4.5974,4.6094,4.6425,4.7638,4.8039,4.7985,4.8813,4.7889,4.6086,4.6086,4.5145,4.3797,4.3694,4.3636,4.3551,4.2965,4.2569,4.225,4.1645,4.1367,0.0,4.0837,4.0555,4.0275,4.0156,3.9876,3.9697,3.9697,3.9697,3.9697,3.9697,3.9697,3.9697,3.9697,3.9697,3.9697,3.9697,3.9697,3.98,4.0083,3.9802,3.9726,4.021,3.9524,3.9565,4.0658,4.0319,4.036,4.1412,4.0719,4.0198,3.9869,4.057,4.103,4.103,4.3057,4.4018,4.3748,4.4257,4.4466,4.4317,4.5394,4.5992,4.5998,4.3539,4.2711,0.0,0.0,0.0,0.0,0.0,0.0,0.0,0.0,0.0,0.0,0.0,3.2516,3.4726,0.0,3.7764,3.9396,4.0601,4.143,4.1706,4.2208,4.2459,4.2183,4.2409,4.2785,4.3338,4.3639,4.4041,4.4593,4.4895,4.5171,4.5447,4.5748,4.5899,4.5899,4.6175,4.6301,4.6301,4.6301,4.6301,4.6301,4.6301,4.6301,4.6301,4.6301,4.6301,4.6301,4.6301,4.6301,4.6301,4.7087,4.7262,4.7095,4.745,4.6595,4.5304,4.5304,4.4699,4.3765,4.3489,4.3388,4.3288,4.2735,4.2559,4.2459,4.1907,4.1756,4.163,4.1078,4.0927,4.0802,4.0249,4.0099,4.0049,3.9747,3.9697,3.9697,3.9697,3.9697,3.9697,3.9697,3.9697,3.9697,3.9697,3.9697,3.9697,3.9697,3.9697,3.9697,3.9697,3.9446,3.9474,4.013,3.9616,3.9842,4.0938,4.1022,4.0893,4.0501,4.1095,4.1474,4.1474,4.3314,4.4376,4.432,4.5268,4.5531,4.4875,4.5551,4.5492,4.4928,4.4928,4.4928,0.0,0.0,0.0,0.0,0.0,0.0,0.0,0.0,3.1411,3.455,3.5278,3.6132,3.8718,3.927,3.9823,4.1254,4.1856,4.2208,4.2308,4.271,4.2811,4.2359,4.271,4.3187,4.374,4.389,4.4392,4.5422,4.5598,4.5849,4.6276,4.6301,4.6301,4.6301,4.6301,4.6301,4.6301,4.6301,4.6301,4.6301,4.6426,4.6426,4.6326,4.6527,4.6577,4.6476,4.6476,4.6476,4.6451,4.6351,4.6301,4.6301,4.6301,4.5748,4.4945,4.4819,4.4719,4.4568,4.4116,4.389,4.374,4.3288,4.3062,4.2886,4.2459,4.2308,4.2208,4.1656,4.1505,4.1379,4.0827,4.0676,4.0576,4.0124,3.9923,3.9848,3.9848,3.9772,3.9697,3.9697,3.9697,3.9697,3.9697,3.9697,3.9697,3.9697,3.9697,3.9697,3.9697,3.9697,3.9697,3.9697,3.9295,3.9398,4.0343,4.0813,4.1179,4.1179,4.1366,4.1551,4.1551,4.2739,4.3621,4.4162,4.52,4.5551,4.5024,4.5024,4.4591,4.3697,4.5242,4.5681,2.4671,2.6302,2.8069,2.9588,3.0057,3.1788,0.0,0.0,3.6935,3.9295,4.0174,4.0475,4.035,4.0727,4.1279,4.1957,4.2108,4.2333,4.2811,4.2936,4.2961,4.2886,4.2936,4.3187,4.374,4.4242,4.4794,4.5447,4.5949,4.625,4.6301,4.6301,4.6301,4.6301,4.6301,4.6301,4.6301,4.6301,4.6301,4.6326,4.6803,4.6778,4.6351,4.7305,4.7481,4.7054,4.7054,4.7054,4.7004,4.6527,4.6301,4.6301,4.6301,4.6225,4.605,4.5573,4.507,4.4618,4.4543,4.4217,4.379,4.374,4.3388,4.2961,4.2911,4.2886,4.276,4.2208,4.2057,4.1932,4.1404,4.1254,4.1229,4.1178,4.0777,4.0425,4.0425,4.0049,3.9697,3.9697,3.9697,3.9697,3.9697,3.9697,3.9697,3.9697,3.9697,3.9697,3.9697,3.9697,3.9697,3.9697,3.9647,3.9699,3.9802,3.9829,3.988,3.988,4.0937,4.1603,4.1603,4.2808,4.3526,4.3582,4.377,4.3826,4.3693,4.3693,4.3875,4.4208,4.4456,4.4456,2.8254,2.9675,0.0,0.0,3.4176,3.6157,3.8919,3.9095,3.9171,4.1134,4.1713,4.189,4.1932,4.2133,4.2359,0.0,4.2635,4.271,4.2936,4.271,4.2509,4.2509,4.2544,4.3022,4.4166,4.4493,4.4995,4.5899,4.6175,4.6451,4.6778,4.6803,4.6928,4.723,4.723,4.723,4.723,4.723,4.723,4.723,4.7481,4.7456,4.7255,4.7707,4.7782,4.7581,4.7581,4.7405,4.7104,4.6878,4.6602,4.6301,4.6301,4.6301,4.6276,4.605,4.5824,4.5547,4.5246,4.497,4.4719,4.4392,4.3915,4.3463,4.3463,4.3237,4.2936,4.271,4.2635,4.2509,4.1957,4.1806,4.1731,4.1404,4.1178,4.1003,4.1003,4.0802,4.0551,4.0249,4.0174,4.0074,3.9747,3.9697,3.9697,3.9697,3.9697,3.9697,3.9697,3.9697,3.9697,3.9697,3.9697,3.9697,3.9697,3.9697,3.9697,3.9697,4.016,4.0465,4.0465,4.169,4.235,4.235,4.3122,4.3287,4.2861,4.2861,4.2785,4.2579,4.369,4.385,2.9225,0.0,0.0,3.4024,3.6553,3.8841,3.9649,4.0134,4.0796,4.2141,4.2292,4.2292,4.2674,4.2811,4.2785,4.2749,4.3062,4.3162,4.3011,4.2635,4.2384,4.2384,4.2267,4.2746,4.4267,4.4327,4.4895,4.5999,4.6225,4.6552,4.7104,4.728,4.7531,4.7908,4.7908,4.7908,4.7908,4.7908,4.7908,4.7908,4.8083,4.8058,4.7908,4.8083,4.8234,4.836,4.8209,4.7933,4.7581,4.7405,4.7104,4.6728,4.6602,4.6552,4.6527,4.6376,4.6301,4.625,4.5849,4.5623,4.5422,4.4995,4.4493,4.4041,4.4041,4.3639,4.3212,4.3212,4.3087,4.2886,4.2484,4.2384,4.2283,4.1882,4.1681,4.1555,4.1555,4.1455,4.1229,4.0827,4.0752,4.0576,4.0023,3.9923,3.9873,3.9722,3.9697,3.9697,3.9697,3.9697,3.9697,3.9697,3.9697,3.9697,3.9697,3.9697,3.9697,3.9697,3.9697,3.9697,3.9697,4.0541,4.1097,4.1253,4.2225,4.2518,4.2112,4.2112,4.1903,4.158,4.2986,4.3269,0.0,0.0,3.2564,3.3906,3.6208,3.8877,4.1443,4.2062,4.2316,4.2871,4.2544,4.2242,4.2252,4.2163,4.2173,4.2276,4.3062,4.3589,4.3062,4.2961,4.2961,4.2961,4.2494,4.2645,0.0,4.3851,4.4277,4.5422,4.5999,4.6552,4.7104,4.7606,4.7883,4.7908,4.7908,4.7908,4.7908,4.7908,4.7908,4.7908,4.8485,4.846,4.7933,4.8485,4.9038,4.9515,4.8987,4.8736,4.8686,4.8109,4.7883,4.7807,4.7305,4.7104,4.7054,4.6502,4.6301,4.6301,4.6301,4.5924,4.5497,4.5472,4.507,4.4593,4.4593,4.4217,4.379,4.379,4.3388,4.2986,4.2961,4.2961,4.2961,4.2936,4.2509,4.2133,4.2133,4.1706,4.1329,4.1304,4.1304,4.1153,4.0601,4.0501,4.03,3.9772,3.9697,3.9697,3.9697,3.9697,3.9697,3.9697,3.9697,3.9697,3.9697,3.9697,3.9697,3.9697,3.9697,3.9697,3.9697,3.9697,4.0052,4.0475,4.0581,4.0857,4.1304,4.1304,4.158,4.2133,4.2242,4.2544,0.0,0.0,3.2669,3.4053,3.6041,3.7929,3.9272,4.0379,4.1053,4.0867,4.1274,4.1494,4.1185,4.1053,4.1197,4.1489,4.2499,4.3187,4.3011,4.3288,4.3237,4.2544,4.2595,0.0,0.0,0.0,0.0,4.5414,4.5985,4.6636,4.7606,4.8184,4.8661,4.9012,4.9038,4.9038,4.9038,4.9038,4.9038,4.9038,4.9213,4.9213,4.9038,4.9238,4.9414,4.959,4.9389,4.9113,4.8761,4.856,4.8259,4.7883,4.7707,4.7657,4.7581,4.7054,4.6853,4.6803,4.6426,4.6175,4.6024,4.6024,4.5648,4.5196,4.5196,4.4794,4.4267,4.3915,4.3664,4.3438,4.3062,4.2986,4.2986,4.2986,4.2836,4.271,4.271,4.2559,4.2308,4.1957,4.1882,4.1706,4.1153,4.1053,4.1003,4.0802,4.0174,3.9697,3.9697,3.9697,3.9697,3.9697,3.9697,3.9697,3.9697,3.9697,3.9697,3.9697,3.9697,3.9848,4.0224,4.0249,4.0501,4.1053,4.1053,4.1329,4.1882,4.1882,4.2158,4.271,4.271,4.2986,0.0,3.0937,3.2321,3.4289,3.5734,3.7016,3.7947,3.8918,3.9337,3.8653,3.869,3.8621,3.8064,3.8185,3.8742,3.9907,4.1558,4.28,4.3263,4.3778,4.3803,4.3134,4.3398,4.3514,0.0,0.0,0.0,4.5131,4.6061,4.7025,4.7857,4.8636,4.9213,4.959,4.959,4.959,4.959,4.959,4.959,4.959,4.959,4.959,4.959,4.959,4.959,4.959,4.959,4.9389,4.9063,4.9063,4.8837,4.8485,4.8284,4.8209,4.8159,4.7606,4.7405,4.7305,4.6577,4.6301,4.6301,4.6301,4.6075,4.5773,4.5773,4.5372,4.4869,4.4493,4.4242,4.3966,4.3413,4.3263,4.3212,4.3037,4.2986,4.2986,4.2986,4.2986,4.2861,4.2509,4.1966,4.146,4.0917,4.0537,4.0631,4.1222,4.0727,4.0275,4.0275,4.0275,4.0275,4.0275,4.0275,4.0275,4.0275,4.0275,4.0275,4.0275,4.0275,4.045,4.0802,4.0802,4.1078,4.163,4.163,4.1907,4.2459,4.2459,4.2635,4.2986,4.3187,4.3463,2.9628,3.0447,3.1753,3.4452,3.5411,3.6039,3.7612,3.7612,3.7133,3.6226,3.5024,3.3954,3.3458,0.0,3.536,3.7334,4.0193,4.2593,4.3626,4.437,4.4712,0.0,0.0,0.0,0.0,0.0,0.0,4.472,0.0,4.7359,4.7982,4.8987,4.959,4.959,4.959,4.959,4.959,4.959,4.959,4.959,4.959,4.959,4.959,4.959,4.959,4.959,4.959,4.959,4.959,4.959,4.959,4.954,4.9012,4.8812,4.8736,4.8159,4.7958,4.7807,4.6753,4.6376,4.6351,4.6326,4.6301,4.6301,4.6301,4.5949,4.5522,4.5497,4.5095,4.4543,4.3991,4.384,4.3714,4.3075,4.295,4.295,4.2812,4.2787,4.2787,4.2787,4.1558,4.031,3.9836,3.9202,3.9426,4.1081,4.1297,4.1297,4.1354,4.1329,4.1329,4.1329,4.1329,4.1329,4.1329,4.1329,4.1329,4.1329,4.1329,4.1354,4.1379,4.1379,4.163,4.2183,4.2208,4.2459,4.2986,4.3011,4.3011,4.3037,4.3589,4.3865,3.1694,3.2593,3.3437,3.4266,3.3962,3.3653,3.4113,3.4253,3.418,3.3194,3.279,3.2259,3.1082,0.0,0.0,3.6057,3.9907,0.0,4.3726,4.5294,0.0,4.5381,0.0,4.6324,4.6068,4.6439,0.0,0.0,4.6869,4.7529,4.8508,4.9215,4.959,4.959,4.959,4.959,4.959,4.959,4.959,4.959,4.959,4.959,4.959,4.959,4.959,4.959,4.959,4.959,4.959,4.959,4.959,4.959,4.9439,4.9389,4.9314,4.8761,4.856,4.846,4.7732,4.7255,4.6853,4.6451,4.6301,4.6301,4.6301,4.62,4.6024,4.5598,4.5372,4.5146,4.4568,4.4418,4.402,4.2656,4.2372,4.2018,4.0657,4.0117,3.9983,3.9983,3.9304,3.8771,3.8635,3.8521,3.8896,4.0554,4.0781,4.0852,4.1214,4.1329,4.1329,4.1329,4.1329,4.1329,4.1329,4.1329,4.1329,4.1329,4.1329,4.153,4.1932,4.1957,4.2208,4.276,4.276,4.2836,4.2986,4.3388,4.3589,4.3614,4.4166,4.4644,3.3024,3.3753,3.4073,3.4053,3.3414,3.2646,3.2114,3.1797,3.1188,2.9475,2.8908,0.0,2.7129,0.0,0.0,0.0,0.0,0.0,4.2648,4.4451,4.5849,0.0,4.7212,0.0,4.7488,4.766,4.7976,0.0,4.7933,4.8183,4.8838,4.9264,4.959,4.959,4.959,4.959,4.959,4.959,4.959,4.959,4.959,4.959,4.959,4.959,4.959,4.959,0.0,4.959,4.959,4.959,4.959,4.959,4.959,4.959,4.9565,4.9238,4.9138,4.9063,4.8485,4.8109,4.7732,4.6928,4.6502,4.6301,4.6301,4.6301,4.625,4.5924,4.532,4.4571,4.4007,4.324,4.2447,4.1219,4.093,4.0686,3.968,3.9355,3.8842,3.8029,3.7471,3.7122,3.7122,3.7122,3.7723,3.9288,4.0317,4.1009,4.1003,4.1593,4.2057,4.2057,4.2057,4.2057,4.2057,4.2057,4.2057,4.2057,4.2057,4.2208,4.2509,4.2509,4.276,4.3338,4.3338,4.3463,4.3689,4.4016,4.4166,4.4166,4.4744,4.5171,3.4045,3.4299,3.4134,3.416,3.3307,3.2273,3.0979,2.9824,2.8338,2.5972,0.0,2.3814,2.2938,2.6043,2.9011,2.9727,0.0,3.8521,4.0894,4.2565,4.4401,4.6556,4.7832,4.8675,4.8903,4.8953,4.9182,4.9615,4.9361,4.9132,4.8978,4.9411,4.9769,4.9819,4.9819,4.9819,4.9819,4.987,4.9715,4.9769,4.969,4.9665,4.959,4.959,4.959,4.959,4.959,4.959,4.959,4.959,4.959,4.959,4.959,4.959,4.959,4.959,4.959,4.9515,4.9038,4.8837,4.8586,4.7481,4.6803,4.6401,4.6326,4.6301,4.6301,4.6059,4.489,4.3488,4.2791,4.1535,4.0293,3.9597,3.9383,3.9258,3.9132,3.8963,3.8412,3.6604,3.5915,3.5624,3.5624,3.5624,3.6241,3.7824,3.9625,4.0716,4.0504,4.1818,4.2812,4.2986,4.2849,4.2737,4.2986,4.3037,4.3087,4.3087,4.3087,4.3112,4.3187,4.3112,4.3338,4.389,4.3915,4.4141,4.4618,4.4694,4.4744,4.4744,4.5321,4.5598,3.491,3.4853,3.4505,3.4121,3.2875,3.1361,3.014,2.8065,0.0,0.0,0.0,2.2045,2.1191,2.4346,0.0,2.8773,0.0,0.0,0.0,0.0,4.2753,0.0,0.0,0.0,0.0,0.0,0.0,0.0,0.0,5.0689,5.0203,5.0229,5.0484,5.0946,5.0971,5.0971,5.0971,5.1042,5.0811,5.0254,5.0273,5.0042,4.959,4.959,4.959,4.959,4.959,0.0,4.959,4.959,4.959,4.959,4.959,4.959,4.959,4.959,4.959,4.959,4.949,4.9163,4.8586,4.7481,4.7079,4.6903,4.6451,4.6301,4.6059,4.4497,4.3979,4.331,4.1833,4.1302,4.064,3.9151,3.8739,3.8366,3.6951,3.629,3.589,3.5191,3.4902,3.4843,3.4843,3.4843,3.5469,3.7108,3.7655,3.8304,3.9556,4.0903,4.2044,4.2899,4.1785,4.1533,4.2849,4.3388,4.3664,4.3664,4.3664,4.3865,4.4317,4.389,4.3915,4.4468,4.4493,4.4518,4.4618,4.5095,4.5347,4.5347,4.5899,4.6175,3.52,3.5043,3.4622,3.4246,3.2653,3.064,2.8708,0.0,0.0,0.0,0.0,2.1012,2.0352,0.0,0.0,0.0,0.0,0.0,0.0,0.0,0.0,0.0,0.0,0.0,0.0,0.0,0.0,0.0,0.0,5.1235,5.0946,5.0902,5.1064,5.1322,5.1322,5.1322,5.1322,5.1255,5.1205,5.088,5.0845,5.0751,5.0469,5.0469,5.0469,5.0469,5.0469,5.0293,5.0017,5.0017,4.9841,4.959,4.959,4.959,4.959,4.959,4.959,4.959,4.959,4.9414,4.8935,4.7047,4.6983,4.7481,4.723,4.6954,4.6362,4.4659,4.3294,4.1947,4.0278,3.9125,3.8221,3.7441,3.7193,3.7059,3.6152,3.5684,3.5332,3.5098,3.4863,3.4707,3.4707,3.4707,3.4949,3.5711,3.6779,3.7741,3.8226,3.9081,4.0014,4.1094,4.0429,4.0667,4.2384,4.2744,4.3266,4.4102,4.4242,4.4342,4.4618,4.4367,4.4493,4.507,4.507,4.5221,4.5497,4.5773,4.5924,4.5924,4.6175,4.6476,3.4902,3.4844,3.4434,3.3926,3.2246,3.0059,2.748,2.5391,0.0,0.0,2.0352,2.0197,1.9851,0.0,0.0,0.0,0.0,0.0,0.0,0.0,0.0,0.0,0.0,0.0,0.0,0.0,0.0,0.0,0.0,0.0,5.1503,5.1555,5.158,5.158,5.158,5.158,5.158,5.158,5.158,5.1506,5.1489,5.1431,5.1272,5.1272,5.1272,5.1272,5.1272,5.1021,5.0594,5.0594,5.0268,4.9766,4.9766,4.969,4.959,4.9177,4.9023,4.8893,4.8502,4.8371,4.8142,4.6238,4.6415,4.7406,4.6879,4.6434,4.574,4.4044,4.2237,4.0431,3.8632,3.7119,3.6016,3.6016,3.6016,3.6016,3.6016,3.5762,3.5527,3.5527,3.5234,3.498,3.498,3.498,3.498,3.498,3.6426,3.7295,3.6923,3.7192,3.7796,3.8676,3.8941,3.968,4.1415,4.1653,4.2328,4.357,4.4042,4.4234,4.4358,4.4636,4.507,4.5648,4.5673,4.5874,4.6301,4.6301,4.6376,4.6476,4.6476,4.6778,3.4062,3.416,3.3926,3.3125,3.1582,2.959,2.7031,0.0,0.0,2.0352,1.9668,1.9399,1.937,2.0619,0.0,0.0,0.0,0.0,0.0,0.0,0.0,0.0,0.0,0.0,0.0,0.0,0.0,0.0,0.0,0.0,5.1992,5.2566,5.2717,5.2717,5.2717,5.2717,5.2717,5.2717,5.2504,5.2029,5.2067,5.1754,5.1272,5.1272,5.1272,5.1272,5.1272,5.1247,0.0,5.1197,5.087,5.0343,5.0343,5.0042,4.9436,4.7641,4.7088,4.6822,4.5186,4.4664,4.4505,4.4323,4.5198,4.5764,4.3545,4.2835,4.2415,4.0829,3.9833,3.8958,3.7271,3.6446,3.6016,3.6016,3.6016,3.6016,3.6016,3.5996,3.5957,3.5957,3.5937,3.5898,3.5898,3.5898,3.5898,3.5898,3.6073,3.6209,3.6169,3.6189,3.6209,3.6285,3.6958,3.7952,3.9556,4.0208,4.0478,4.0728,4.2239,4.3211,4.3812,4.4787,4.5673,4.6225,4.6225,4.625,4.6301,4.6301,4.6577,4.7054,4.7054,4.733,3.3359,3.3867,3.3867,3.3008,3.1289,2.9141,2.6582,0.0,2.2012,2.0273,1.9785,1.9687,1.9635,2.0523,2.1509,0.0,2.3273,2.4826,0.0,0.0,0.0,0.0,0.0,0.0,0.0,0.0,0.0,0.0,0.0,0.0,4.9067,5.1531,5.2929,5.2929,5.2929,5.2929,5.2929,5.2929,5.2742,5.2529,5.2529,5.2466,5.2277,5.2277,5.2277,5.2277,5.2277,5.2076,0.0,5.0455,4.9679,4.9058,4.7809,4.7068,4.6599,4.5759,4.5438,4.505,4.4368,4.4116,4.3978,4.2709,4.2718,4.3211,4.3442,4.3174,4.2525,4.0933,4.0046,3.9164,3.745,3.6914,3.6719,3.6465,3.6406,3.6348,3.6074,3.6016,3.6016,3.6016,3.6016,3.6016,3.6016,3.6016,3.6016,3.6016,3.6016,3.6016,3.6016,3.6016,3.6016,3.6016,3.6222,3.7156,3.8809,3.911,3.9735,4.0762,4.1524,4.2372,4.3583,4.4157,4.506,4.6301,4.6652,4.6803,4.6803,4.7129,4.738,4.7606,4.7606,4.7908,3.2109,3.2988,3.334,3.2598,3.0801,2.8594,0.0,0.0,2.1875,2.0254,1.9922,1.9922,1.9922,2.0485,2.1191,0.0,2.2462,2.3764,2.6426,0.0,0.0,0.0,0.0,0.0,0.0,0.0,0.0,0.0,0.0,0.0,4.6962,4.9628,5.1099,5.1157,5.1132,5.1132,5.1132,5.1132,5.1132,5.1132,5.1108,5.123,5.1108,5.109,5.1163,5.1163,5.1163,5.0944,0.0,4.9109,4.8216,4.747,4.6201,4.5341,4.4894,4.433,4.385,4.3543,4.2829,4.2646,4.2343,4.0963,4.0514,4.0779,4.2031,4.2214,4.1679,4.0464,3.9713,3.8926,3.7606,3.7305,3.7226,3.6934,3.6855,3.6777,3.6465,3.6387,3.6387,3.6387,3.6387,3.6387,3.6387,3.6387,3.6387,3.6387,3.6387,3.6387,3.6387,3.6289,3.6269,3.6387,3.6172,3.6539,3.7709,3.7822,3.8353,3.9627,4.0148,4.1248,4.3191,4.3718,4.4812,4.6778,4.7154,4.7355,4.7355,4.7732,4.7983,4.8159,4.8159,4.846,3.0117,3.1191,3.209,3.1641,2.9902,2.7851,0.0,2.375,2.1523,2.0195,1.9922,1.9922,1.9922,2.0273,2.0878,2.172,2.2915,2.4702,2.7349,0.0,0.0,0.0,0.0,0.0,0.0,0.0,0.0,0.0,0.0,0.0,4.6932,4.7109,4.7021,4.705,4.7095,4.7095,4.7095,4.7095,4.7095,4.7118,4.7001,4.7096,4.7121,4.7118,4.7029,4.7029,4.7029,4.7029,0.0,4.7029,4.6737,4.6145,4.6145,4.5855,4.5123,4.3273,4.269,4.2335,4.0057,3.9199,3.9121,3.8711,3.8574,3.8574,3.872,3.872,3.872,3.8574,3.8262,3.7812,3.7402,3.7305,3.7305,3.7285,3.7285,3.7285,3.7285,3.7285,3.7285,3.7285,3.7285,3.7285,3.7285,3.7285,3.7285,3.7285,3.7285,3.7285,3.7285,3.6914,3.6816,3.7246,3.6523,3.6016,3.6016,3.6016,3.6016,3.6016,3.7709,3.958,4.1875,4.3601,4.5663,4.7883,4.7908,4.7908,4.7908,4.7908,4.8209,4.8761,4.8761,4.9063,2.7734,2.8555,2.8926,2.8203,2.7266,2.6094,2.4375,2.3105,2.1953,2.0625,2.0352,2.0352,2.0352,2.0469,2.1288,2.3246,2.395,0.0,0.0,0.0,0.0,0.0,0.0,0.0,0.0,0.0,0.0,0.0,0.0,0.0,4.3049,4.3049,4.4265,4.6849,4.6999,4.6999,4.6999,4.6999,4.6999,4.6999,4.6963,4.692,4.7071,4.6921,4.7029,4.7029,4.7029,4.7029,4.6882,4.5574,4.4891,4.4614,4.3304,4.2453,4.2045,4.1314,4.0983,4.0724,3.9857,3.9473,3.918,3.9043,3.8809,3.8574,3.8574,3.8574,3.8574,3.8574,3.8476,3.834,3.8203,3.8164,3.8105,3.7793,3.7734,3.7637,3.7363,3.7305,3.7305,3.7305,3.7305,3.7305,3.7305,3.7305,3.7305,3.7305,3.7305,3.7305,3.7305,3.7187,3.7148,3.7285,3.7051,3.6894,3.6894,3.6621,3.6582,3.6875,3.7431,3.8555,4.0544,4.1082,4.2877,4.5942,4.6432,4.7292,4.851,4.8862,4.9163,4.9339,4.9339,4.9615,0.0,2.6348,2.6816,2.6269,2.5566,2.4687,2.3437,2.2578,2.1758,2.0762,2.0566,2.0566,2.0566,2.0741,2.1386,2.3126,0.0,0.0,0.0,0.0,0.0,0.0,0.0,0.0,0.0,0.0,0.0,0.0,0.0,0.0,4.1172,4.1172,4.2226,4.4764,4.4785,4.4785,4.4785,4.4785,4.4785,4.4785,4.4785,4.4785,4.4764,4.4757,4.4849,4.4849,4.4849,4.4849,0.0,4.3511,4.3075,4.2922,4.1618,4.1016,4.0762,4.0762,4.0605,4.0351,4.0195,3.9941,3.9648,3.9316,3.8926,3.8574,3.8574,3.8574,3.8574,3.8574,3.8574,3.8574,3.8574,3.8574,3.8496,3.8223,3.8164,3.8105,3.7832,3.7773,3.7773,3.7773,3.7773,3.7773,3.7773,3.7773,3.7773,3.7773,3.7773,3.7773,3.7773,3.7637,3.7598,3.7754,3.75,3.7422,3.7754,3.7246,3.7012,3.7285,3.7305,3.8167,4.0097,4.0234,4.1668,4.4665,4.5123,4.6215,4.8115,4.9357,4.9916,4.9916,5.0142,5.0419,0.0,2.4355,2.5332,2.5332,2.4434,2.3457,2.3066,2.209,0.0,2.0664,2.0566,2.0644,2.0761,2.0976,2.1406,2.2154,0.0,0.0,0.0,0.0,0.0,0.0,0.0,0.0,0.0,0.0,0.0,0.0,0.0,0.0,4.1172,4.1172,4.1172,4.1172,4.1172,4.1172,4.1172,4.1172,4.1172,4.1172,4.1172,4.1172,4.1172,4.1172,4.1172,0.0,4.1172,4.1172,4.1172,4.1172,4.1172,4.1172,4.1172,4.1172,4.1172,4.1172,4.1172,4.1113,4.0703,4.0547,4.0371,3.9492,3.8945,3.8613,3.8594,3.8574,3.8574,3.8574,3.8574,3.8574,3.8574,3.8574,3.8574,3.8574,3.8574,3.8574,3.8574,3.8574,3.8574,3.8574,3.8574,3.8574,3.8574,3.8574,3.8574,3.8574,3.8574,3.8574,3.8574,3.8223,3.8125,3.8535,3.7871,3.7715,3.8496,3.7812,3.7363,3.7383,3.7383,3.8387,4.0417,4.0578,4.1604,4.3818,4.4001,4.5119,4.687,4.9092,5.0337,5.0494,5.1021,5.1297,1.9687,0.0,2.1289,2.1289,2.1309,2.1289,0.0,2.117,0.0,0.0,0.0,0.0,0.0,0.0,0.0,0.0,0.0,0.0,0.0,0.0,0.0,0.0,0.0,0.0,0.0,0.0,0.0,0.0,0.0,4.1172,4.1172,4.1172,4.1172,4.1172,4.1172,4.1172,4.1172,4.1172,4.1172,4.1172,4.1172,4.1172,4.1172,4.1172,4.1172,4.1172,4.1172,4.1172,4.1172,4.1172,4.1172,4.1172,4.1172,4.1172,4.1172,4.1172,4.1172,4.1152,4.1055,4.0801,4.0371,3.9492,3.9141,3.9004,3.8672,3.8574,3.8574,3.8574,3.8574,3.8574,3.8574,3.8574,3.8574,3.8574,3.8574,3.8574,3.8574,3.8574,3.8574,3.8574,3.8574,3.8574,3.8574,3.8574,3.8574,3.8574,3.8574,3.8574,3.8574,3.8476,3.8457,3.8555,3.8398,3.8359,3.8555,3.8086,3.791,3.8262,3.8281,3.8609,3.9122,3.9122,3.9983,4.189,4.3639,4.5485,4.744,4.8372,4.9634,5.1071,5.1222,5.1498,1.8359,1.9551,2.082,2.082,2.1133,2.1465,2.1465,0.0,0.0,0.0,0.0,0.0,0.0,0.0,0.0,0.0,0.0,0.0,0.0,0.0,0.0,0.0,0.0,0.0,0.0,0.0,0.0,0.0,0.0,4.1172,4.1172,4.1172,4.1172,4.1172,4.1172,4.1172,4.1172,4.1172,4.1172,4.1172,4.1172,4.1172,4.1172,4.1172,4.1172,4.1172,4.1172,4.1172,4.1172,4.1172,4.1172,4.1172,4.1172,4.1172,4.1172,4.1172,4.1172,4.1172,4.1172,4.0879,4.0449,3.9961,3.9687,3.9473,3.9258,3.918,3.9101,3.8691,3.8574,3.8574,3.8574,3.8574,3.8574,3.8574,3.8574,3.8574,3.8574,3.8574,3.8574,3.8574,3.8574,3.8574,3.8574,3.8574,3.8574,3.8574,3.8574,3.8574,3.8574,3.8574,3.8574,3.8574,3.8574,3.8574,3.8574,3.8359,3.832,3.8555,3.8574,3.8574,3.8574,3.8574,3.907,4.0245,4.2465,4.4101,4.5287,4.6652,4.7913,4.8935,5.0166,5.0872,1.832,2.0254,2.209,2.168,2.2051,2.25,0.0,0.0,0.0,0.0,0.0,0.0,0.0,0.0,0.0,0.0,0.0,0.0,0.0,0.0,0.0,0.0,0.0,0.0,0.0,0.0,0.0,0.0,0.0,4.1172,4.1172,4.1172,4.1172,4.1172,4.1172,4.1172,4.1172,4.1172,4.1172,4.1172,4.1172,4.1172,4.1172,4.1172,4.1172,4.1172,0.0,0.0,4.1172,4.1172,4.1172,4.1172,4.1172,4.1172,4.1172,4.1172,4.1172,4.1172,4.1172,4.0937,4.0605,4.0547,4.0273,3.998,3.9922,3.9902,3.9746,3.8984,3.8769,3.875,3.8613,3.8613,3.8652,3.8594,3.8574,3.8594,3.8652,3.8672,3.8691,3.8769,3.8769,3.8769,3.8769,3.8769,3.8769,3.8769,3.8769,3.8769,3.8769,3.8711,3.8672,3.8672,3.8613,3.8594,3.8672,3.8672,3.8691,3.8769,3.8652,3.8613,3.8672,3.875,3.8945,3.9297,4.0939,4.2147,4.2816,4.4874,4.5967,4.6424,4.8585,4.9534,1.9785,2.1797,2.2969,2.0762,2.1367,2.2422,0.0,0.0,0.0,0.0,0.0,0.0,0.0,0.0,0.0,0.0,0.0,0.0,0.0,0.0,0.0,0.0,0.0,0.0,0.0,0.0,0.0,0.0,0.0,4.1172,4.1172,4.1172,4.1172,4.1172,4.1172,4.1172,4.1172,4.1172,4.1172,4.1172,4.1172,4.1172,4.1172,4.1172,4.1172,4.1172,0.0,4.1172,4.1172,4.1172,4.1172,4.1172,4.1172,4.1172,4.1172,4.1172,4.1172,4.1172,4.1172,4.1133,4.1016,4.0644,4.0469,4.0351,4.0,3.9902,3.9863,3.9726,3.9687,3.9531,3.8769,3.8828,3.9004,3.8652,3.8574,3.8672,3.9023,3.9101,3.9219,3.9609,3.9687,3.9687,3.9687,3.9687,3.9687,3.9687,3.9687,3.9687,3.9687,3.9355,3.9101,3.9101,3.8789,3.8711,3.9082,3.9101,3.9277,3.9668,3.8984,3.873,3.9082,3.9492,3.9726,3.9785,4.044,4.1655,4.332,4.406,4.5317,4.6917,4.7299,4.7467,1.9238,2.1113,2.2578,2.1855,2.3496,0.0,0.0,0.0,0.0,0.0,0.0,0.0,0.0,0.0,0.0,0.0,0.0,0.0,0.0,0.0,0.0,0.0,0.0,0.0,0.0,0.0,0.0,0.0,0.0,0.0,4.1172,4.1172,4.1172,4.1172,4.1172,4.1172,4.1172,4.1172,4.1172,4.1172,4.1172,4.1172,4.1172,4.1172,4.1172,4.1172,0.0,4.1172,4.1172,4.1172,4.1172,4.1172,4.1172,4.1172,4.1172,4.1172,4.1172,4.1172,4.1172,4.1172,4.1133,4.0937,4.0879,4.084,4.0644,4.0586,4.0547,4.0312,4.0078,3.9805,3.9394,3.9434,3.9531,3.9336,3.9297,3.9336,3.9531,3.957,3.9648,3.9863,3.9902,3.9902,3.9902,3.9902,3.9902,3.9902,3.9902,3.9902,3.9902,3.9707,3.957,3.957,3.9414,3.9375,3.9551,3.957,3.9668,3.9883,3.9512,3.9375,3.957,3.9785,4.0,4.0234,4.043,4.1085,4.2201,4.2382,4.2922,4.3815,4.4977,4.5425,1.9023,2.0605,2.2285,0.0,0.0,0.0,0.0,0.0,0.0,0.0,0.0,0.0,0.0,0.0,0.0,0.0,0.0,0.0,0.0,0.0,0.0,0.0,0.0,0.0,0.0,0.0,0.0,0.0,0.0,0.0,4.1172,4.1172,4.1172,4.1172,4.1172,4.1172,4.1172,4.1172,4.1172,4.1172,4.1172,4.1172,4.1172,4.1172,4.1172,4.1172,4.1172,4.1172,4.1172,4.1172,4.1172,4.1172,4.1172,4.1172,4.1172,4.1172,4.1172,4.1172,4.1172,4.1172,4.1172,4.1172,4.1172,4.1172,4.1172,4.1172,4.1113,4.0781,4.0449,4.0156,3.9941,3.9961,4.0019,3.9922,3.9902,3.9922,4.0019,4.0039,4.0078,4.0176,4.0195,4.0195,4.0195,4.0195,4.0195,4.0195,4.0195,4.0195,4.0195,4.0098,4.0039,4.0039,3.9961,3.9941,4.0039,4.0137,4.0195,4.0195,4.0098,4.0039,4.0039,4.0137,4.0351,4.0664,4.0684,4.084,4.1172,4.1172,4.1172,4.1172,4.279,4.3359,2.0488,2.1738,2.2871,0.0,0.0,0.0,0.0,0.0,0.0,0.0,0.0,0.0,0.0,0.0,0.0,0.0,0.0,0.0,0.0,0.0,0.0,0.0,0.0,0.0,0.0,0.0,0.0,0.0,0.0,0.0,4.1172,4.1172,4.1172,4.1172,4.1172,4.1172,4.1172,4.1172,4.1172,4.1172,4.1172,4.1172,4.1172,4.1172,4.1172,4.1172,4.1172,4.1172,4.1172,4.1172,4.1172,4.1172,4.1172,4.1172,4.1172,4.1172,4.1172,4.1172,4.1172,4.1172,4.1172,4.1172,4.1172,4.1172,4.1172,4.1172,4.1172,4.1133,4.1113,4.0898,4.0098,4.0195,4.0371,3.998,3.9902,4.0,4.0391,4.0469,4.0605,4.0996,4.1074,4.1074,4.1074,4.1074,4.1074,4.1074,4.1074,4.1074,4.1074,4.0723,4.0469,4.0469,4.0137,4.0059,4.0449,4.0859,4.1074,4.1074,4.0703,4.0469,4.0469,4.0859,4.1094,4.1133,4.1133,4.1152,4.1172,4.1172,4.1172,4.1172,4.1327,4.1463,1.9648,2.1445,2.3262,0.0,0.0,0.0,0.0,0.0,0.0,0.0,0.0,0.0,0.0,0.0,0.0,0.0,0.0,0.0,0.0,0.0,0.0,0.0,0.0,0.0,0.0,0.0,0.0,0.0,0.0,0.0,4.1172,4.1172,4.1172,4.1172,4.1172,4.1172,4.1172,4.1172,4.1172,4.1172,4.1172,4.1172,4.1172,4.1172,4.1172,4.1172,4.1172,4.1172,4.1172,4.1172,4.1172,4.1172,4.1172,4.1172,4.1172,4.1172,4.1172,4.1172,4.1172,4.1172,4.1172,4.1172,4.1172,4.1172,4.1172,4.1172,4.1172,4.1172,4.1172,4.1094,4.0781,4.0801,4.0879,4.0723,4.0684,4.0723,4.0898,4.0918,4.0976,4.1152,4.1172,4.1172,4.1172,4.1172,4.1172,4.1172,4.1172,4.1172,4.1172,4.1035,4.0918,4.0918,4.0781,4.0762,4.0918,4.1074,4.1172,4.1172,4.1016,4.0918,4.0918,4.1094,4.1172,4.1172,4.1172,4.1172,4.1172,4.1172,4.1172,4.1172,4.1172,4.1172,1.9707,2.1602,2.3711,0.0,0.0,0.0,0.0,0.0,0.0,0.0,0.0,0.0,0.0,0.0,0.0,0.0,0.0,0.0,0.0,0.0,0.0,0.0,0.0,0.0,0.0,0.0,0.0,0.0,0.0,0.0,0.0,4.1172,4.1172,4.1172,4.1172,4.1172,4.1172,4.1172,4.1172,4.1172,4.1172,4.1172,4.1172,4.1172,4.1172,4.1172,4.1172,4.1172,4.1172,4.1172,4.1172,4.1172,4.1172,4.1172,4.1172,4.1172,4.1172,4.1172,4.1172,4.1172,4.1172,4.1172,4.1172,4.1172,4.1172,4.1172,4.1172,4.1172,4.1172,4.1172,4.1172,4.1172,4.1172,4.1172,4.1172,4.1172,4.1172,4.1172,4.1172,4.1172,4.1172,4.1172,4.1172,4.1172,4.1172,4.1172,4.1172,4.1172,4.1172,4.1172,4.1172,4.1172,4.1172,4.1172,4.1172,4.1172,4.1172,4.1172,4.1172,4.1172,4.1172,4.1172,4.1172,4.1172,4.1172,4.1172,4.1172,4.1172,4.1172,4.1172,4.1172,4.1172,2.1113,2.248,0.0,0.0,0.0,0.0,0.0,0.0,0.0,0.0,0.0,0.0,0.0,0.0,0.0,0.0,0.0,0.0,0.0,0.0,0.0,0.0,0.0,0.0,0.0,0.0,0.0,0.0,0.0,0.0,0.0,4.1172,4.1172,4.1172,4.1172,4.1172,4.1172,4.1172,4.1172,4.1172,4.1172,4.1172,4.1172,4.1172,4.1172,4.1172,4.1172,4.1172,4.1172,4.1172,4.1172,4.1172,4.1172,4.1172,4.1172,4.1172,4.1172,4.1172,4.1172,4.1172,4.1172,4.1172,4.1172,4.1172,4.1172,4.1172,4.1172,4.1172,4.1172,4.1172,4.1172,4.1172,4.1172,4.1172,4.1172,4.1172,4.1172,4.1172,4.1172,4.1172,4.1172,4.1172,4.1172,4.1172,4.1172,4.1172,4.1172,4.1172,4.1172,4.1172,4.1172,4.1172,4.1172,4.1172,4.1172,4.1172,4.1172,4.1172,4.1172,4.1172,4.1172,4.1172,4.1172,4.1172,4.1172,4.1172,4.1172,4.1172,4.1172,4.1172,4.1172,4.1172,2.043,0.0,0.0,0.0,0.0,0.0,0.0,0.0,0.0,0.0,0.0,0.0,0.0,0.0,0.0,0.0,0.0,0.0,0.0,0.0,0.0,0.0,0.0,0.0,0.0,0.0,0.0,0.0,0.0,0.0,0.0,4.1172,4.1172,4.1172,4.1172,4.1172,4.1172,4.1172,4.1172,4.1172,4.1172,4.1172,4.1172,4.1172,4.1172,4.1172,4.1172,4.1172,4.1172,4.1172,4.1172,4.1172,4.1172,4.1172,4.1172,4.1172,4.1172,4.1172,4.1172,4.1172,4.1172,4.1172,4.1172,4.1172,4.1172,4.1172,4.1172,4.1172,4.1172,4.1172,4.1172,4.1172,4.1172,4.1172,4.1172,4.1172,4.1172,4.1172,4.1172,4.1172,4.1172,4.1172,4.1172,4.1172,4.1172,4.1172,4.1172,4.1172,4.1172,4.1172,4.1172,4.1172,4.1172,4.1172,4.1172,4.1172,4.1172,4.1172,4.1172,4.1172,4.1172,4.1172,4.1172,4.1172,4.1172,4.1172,4.1172,4.1172,4.1172,4.1172,4.1172,4.1172,0.0,0.0,0.0,0.0,0.0,0.0,0.0,0.0,0.0,0.0,0.0,0.0,0.0,0.0,0.0,0.0,0.0,0.0,0.0,0.0,0.0,0.0,0.0,0.0,0.0,0.0,0.0,0.0,0.0,0.0,0.0,4.1172,4.1172,4.1172,4.1172,4.1172,4.1172,4.1172,4.1172,4.1172,4.1172,4.1172,4.1172,4.1172,4.1172,4.1172,4.1172,4.1172,4.1172,4.1172,4.1172,4.1172,4.1172,4.1172,4.1172,4.1172,4.1172,4.1172,4.1172,4.1172,4.1172,4.1172,4.1172,4.1172,4.1172,4.1172,4.1172,4.1172,4.1172,4.1172,4.1172,4.1172,4.1172,4.1172,4.1172,4.1172,4.1172,4.1172,4.1172,4.1172,4.1172,4.1172,4.1172,4.1172,4.1172,4.1172,4.1172,4.1172,4.1172,4.1172,4.1172,4.1172,4.1172,4.1172,4.1172,4.1172,4.1172,4.1172,4.1172,4.1172,4.1172,4.1172,4.1172,4.1172,4.1172,4.1172,4.1172,4.1172,4.1172,4.1172,4.1172,4.1172,0.0,0.0,0.0,0.0,0.0,0.0,0.0,0.0,0.0,0.0,0.0,0.0,0.0,0.0,0.0,0.0,0.0,0.0,0.0,0.0,0.0,0.0,0.0,0.0,0.0,0.0,0.0,0.0,0.0,0.0,0.0,4.1172,4.1172,4.1172,4.1172,4.1172,4.1172,4.1172,4.1172,4.1172,4.1172,4.1172,4.1172,4.1172,4.1172,4.1172,4.1172,4.1172,4.1172,4.1172,4.1172,4.1172,4.1172,4.1172,4.1172,4.1172,4.1172,4.1172,4.1172,4.1172,4.1172,4.1172,4.1172,4.1172,4.1172,4.1172,4.1172,4.1172,4.1172,4.1172,4.1172,4.1172,4.1172,4.1172,4.1172,4.1172,4.1172,4.1172,4.1172,4.1172,4.1172,4.1172,4.1172,4.1172,4.1172,4.1172,4.1172,4.1172,4.1172,4.1172,4.1172,4.1172,4.1172,4.1172,4.1172,4.1172,4.1172,4.1172,4.1172,4.1172,4.1172,4.1172,4.1172,4.1172,4.1172,4.1172,4.1172,4.1172,4.1172,4.1172,4.1172,4.1172,0.0,0.0,0.0,0.0,0.0,0.0,0.0,0.0,0.0,0.0,0.0,0.0,0.0,0.0,0.0,0.0,0.0,0.0,0.0,0.0,0.0,0.0,0.0,0.0,0.0,0.0,0.0,0.0,0.0,0.0,4.1172,4.1172,4.1172,4.1172,4.1172,4.1172,4.1172,4.1172,4.1172,4.1172,4.1172,4.1172,4.1172,4.1172,4.1172,4.1172,4.1172,4.1172,4.1172,4.1172,4.1172,4.1172,4.1172,4.1172,4.1172,4.1172,4.1172,4.1172,4.1172,4.1172,4.1172,4.1172,4.1172,4.1172,4.1172,4.1172,4.1172,4.1172,4.1172,4.1172,4.1172,4.1172,4.1172,4.1172,4.1172,4.1172,4.1172,4.1172,4.1172,4.1172,4.1172,4.1172,4.1172,4.1172,4.1172,4.1172,4.1172,4.1172,4.1172,4.1172,4.1172,4.1172,4.1172,4.1172,4.1172,4.1172,4.1172,4.1172,4.1172,4.1172,4.1172,4.1172,4.1172,4.1172,4.1172,4.1172,4.1172,4.1172,4.1172,4.1172,4.1172,4.1172,0.0,0.0,0.0,0.0,0.0,0.0,0.0,0.0,0.0,0.0,0.0,0.0,0.0,0.0,0.0,0.0,0.0,0.0,0.0,0.0,0.0,0.0,0.0,0.0,0.0,0.0,0.0,0.0,0.0,4.1172,4.1172,4.1172,4.1172,4.1172,4.1172,4.1172,4.1172,4.1172,4.1172,4.1172,4.1172,4.1172,4.1172,4.1172,4.1172,4.1172,4.1172,4.1172,4.1172,4.1172,4.1172,4.1172,4.1172,4.1172,4.1172,4.1172,4.1172,4.1172,4.1172,4.1172,4.1172,4.1172,4.1172,4.1172,4.1172,4.1172,4.1172,4.1172,4.1172,4.1172,4.1172,4.1172,4.1172,4.1172,4.1172,4.1172,4.1172,4.1172,4.1172,4.1172,4.1172,4.1172,4.1172,4.1172,4.1172,4.1172,4.1172,4.1172,4.1172,4.1172,4.1172,4.1172,4.1172,4.1172,4.1172,4.1172,4.1172,4.1172,4.1172,4.1172,4.1172,4.1172,4.1172,4.1172,4.1172,4.1172,4.1172,4.1172,4.1172,4.1172,4.1172,4.1172,0.0,0.0,0.0,0.0,0.0,0.0,0.0,0.0,0.0,0.0,0.0,0.0,0.0,0.0,0.0,0.0,0.0,0.0,0.0,0.0,0.0,0.0,0.0,0.0,0.0,0.0,0.0,0.0,0.0,4.0586,4.0625,4.0235,4.0315,4.0569,4.0569,4.0763,4.1172,4.1172,4.0977,4.0569,4.0317,4.0123,4.0123,4.053,4.0783,4.1172,4.1172,4.1172,4.1172,4.1172,4.1172,4.1172,4.1172,4.1172,4.1172,4.1172,4.1172,4.1172,4.1172,4.1172,4.1172,4.1172,4.1172,4.1172,4.1172,4.1172,4.1172,4.1172,4.1172,4.1172,4.1172,4.1172,4.1172,4.1172,4.1172,4.1172,4.1172,4.1172,4.1172,4.1172,4.1172,4.1172,4.1172,4.1172,4.1172,4.1172,4.1172,4.1172,4.1172,4.1172,4.1172,4.1172,4.1172,4.1172,4.1172,4.1172,4.1172,4.1172,4.1172,4.1172,4.1172,4.1172,4.1172,4.1172,4.1172,4.1172,4.1172,4.1172,4.1172,4.1172,4.1172,4.1172,0.0,0.0,0.0,0.0,0.0,0.0,0.0,0.0,0.0,0.0,0.0,0.0,0.0,0.0,0.0,0.0,0.0,0.0,0.0,0.0,0.0,0.0,0.0,0.0,0.0,0.0,0.0,0.0,3.8262,3.8344,3.8276,3.6633,3.6445,3.8328,3.8309,3.9311,4.1172,4.1172,4.0317,3.8309,3.651,3.5556,3.5556,3.7504,3.933,4.1172,4.1172,4.1172,4.1172,4.1172,4.1172,4.1172,4.1172,4.1172,4.1172,4.1172,4.1172,4.1172,4.1172,4.1172,4.1172,4.1172,4.1172,4.1172,4.1172,4.1172,4.1172,4.1172,4.1172,4.1172,4.1172,4.1172,4.1172,4.1172,4.1172,4.1172,4.1172,4.1172,4.1172,4.1172,4.1172,4.1172,4.1172,4.1172,4.1172,4.1172,4.1172,4.1172,4.1172,4.1172,4.1172,4.1172,4.1172,4.1172,4.1172,4.1172,4.1172,4.1172,4.1172,4.1172,4.1172,4.1172,4.1172,4.1172,4.1172,4.1172,4.1172,4.1172,4.1172,4.1172,4.1172,4.1172,0.0,0.0,0.0,0.0,0.0,0.0,0.0,0.0,0.0,0.0,0.0,0.0,0.0,0.0,0.0,0.0,0.0,0.0,0.0,0.0,0.0,0.0,0.0,0.0,0.0,0.0,0.0,0.0,3.5639,3.5782,3.5865,3.5048,3.5064,3.6028,3.6086,3.6518,3.7522,3.7522,3.7098,3.6028,3.5209,3.4637,3.48,3.5618,3.7223,3.9349,4.0725,4.1172,4.1172,4.1172,4.1172,4.1172,4.1172,4.1172,4.1172,4.1172,4.1172,4.1172,4.1172,4.1172,4.1172,4.1172,4.1172,4.1172,4.1172,4.1172,4.1172,4.1172,4.1172,4.1172,4.1172,4.1172,4.1172,4.1172,4.1172,4.1172,4.1172,4.1172,4.1172,4.1172,4.1172,4.1172,4.1172,4.1172,4.1172,4.1172,4.1172,4.1172,4.1172,4.1172,4.1172,4.1172,4.1172,4.1172,4.1172,4.1172,4.1172,4.1172,4.1172,4.1172,4.1172,4.1172,4.1172,4.1172,4.1172,4.1172,4.1172,4.1172,4.1172,4.1172,4.1172,4.1172,0.0,0.0,0.0,0.0,0.0,0.0,0.0,0.0,0.0,0.0,0.0,0.0,0.0,0.0,0.0,0.0,0.0,0.0,0.0,0.0,0.0,0.0,0.0,0.0,0.0,0.0,0.0,0.0,3.3175,3.3275,3.3413,3.3162,3.3137,3.3813,3.3778,3.4083,3.4727,3.415,3.3872,3.3813,3.3229,3.3014,3.3014,3.3613,3.4685,3.6306,3.855,3.9523,3.9542,4.0142,4.0336,4.0356,4.0958,4.1172,4.1172,4.1172,4.1172,4.1172,4.1172,4.1172,4.1172,4.1172,4.1172,4.1172,4.1172,4.1172,4.1172,4.1172,4.1172,4.1172,4.1172,4.1172,4.1172,4.1172,4.1172,4.1016,4.0509,4.0353,4.0197,3.9688,3.9531,3.9707,4.0197,4.0353,4.0509,4.1172,4.1172,4.1172,4.1172,4.1172,4.1172,4.1172,4.1172,4.1172,4.1172,4.1172,4.1172,4.1172,4.1172,4.1172,4.1172,4.1172,4.1172,4.1172,4.1172,4.1172,4.1172,4.1172,4.1172,4.1172,4.1172,4.1172,0.0,0.0,0.0,0.0,0.0,0.0,0.0,0.0,0.0,0.0,0.0,0.0,0.0,0.0,0.0,0.0,0.0,0.0,0.0,0.0,0.0,0.0,0.0,0.0,0.0,0.0,0.0,0.0,3.0574,3.0761,3.1091,2.9212,2.9174,3.1425,3.1579,3.254,3.4686,3.2678,3.1549,3.1608,2.9481,2.8514,2.8528,3.0648,3.1593,3.181,3.4024,3.4986,3.5176,3.7294,3.8098,3.8309,4.0356,4.1172,4.1172,4.1172,4.1172,4.1172,4.1172,4.1172,4.1172,4.1172,4.1172,4.1172,4.1172,4.1172,4.1172,4.1172,4.1172,4.1172,4.1172,4.1172,4.1172,4.1172,4.1172,4.0685,3.8548,3.8054,3.7419,3.546,3.4975,3.5621,3.7737,3.8054,3.8724,4.0841,4.1172,4.1172,4.1172,4.1172,4.1172,4.1172,4.1172,4.1172,4.1172,4.1172,4.1172,4.1172,4.1172,4.1172,4.1172,4.1172,4.1172,4.1172,4.1172,4.1172,4.1172,4.1172,4.1172,4.1172,4.1172,4.1172,0.0,0.0,0.0,0.0,0.0,0.0,0.0,0.0,0.0,0.0,0.0,0.0,0.0,0.0,0.0,0.0,0.0,0.0,0.0,0.0,0.0,0.0,0.0,0.0,0.0,0.0,0.0,0.0,0.0,2.8117,2.8228,2.7975,2.8122,2.8994,2.9187,2.9677,3.0465,2.9677,2.9298,2.9298,2.8528,2.8136,2.815,2.9088,2.9298,2.9439,3.0224,3.2094,3.4834,3.5458,3.5892,3.5937,3.6719,3.7906,3.9099,3.9099,3.9949,4.1172,4.1172,4.1172,4.1172,4.1172,4.1172,4.1172,4.1172,4.1172,4.1172,4.1172,4.0178,3.904,3.904,3.8073,3.7099,3.7099,3.7099,3.6442,3.4164,3.5943,3.7259,3.5137,3.4651,3.4975,3.5782,3.5782,3.6121,3.6922,3.7099,3.7099,3.7099,3.7099,3.7099,3.7099,3.7099,3.7099,3.7099,3.7099,3.7099,3.7099,3.7099,3.7099,3.7099,3.7099,3.7737,3.904,3.7737,3.839,4.1172,4.1172,4.1172,4.1172,4.1172,4.1172,0.0,0.0,0.0,0.0,0.0,0.0,0.0,0.0,0.0,0.0,0.0,0.0,0.0,0.0,0.0,0.0,0.0,0.0,0.0,0.0,0.0,0.0,0.0,0.0,0.0,0.0,0.0,0.0,0.0,0.0,2.6814,2.7281,2.7642,2.7843,2.8043,2.8136,2.8136,2.8136,2.8136,2.8136,2.8136,2.8136,2.8136,2.8136,2.8136,2.8136,2.8136,2.986,3.2601,3.3229,3.3533,3.3611,3.4382,3.556,3.6887,3.7584,3.8887,4.0142,4.0958,4.0685,4.0197,4.0997,4.0685,4.0021,4.0021,4.0021,3.9864,3.9216,3.7914,3.6762,3.6762,3.5799,3.4651,3.4651,3.4651,3.4164,3.1887,3.3676,3.5137,3.2858,3.2546,3.271,3.3512,3.3512,3.3839,3.4651,3.4651,3.4651,3.4651,3.4651,3.4651,3.4651,3.4651,3.4651,3.4651,3.4651,3.4651,3.4651,3.4651,3.4651,3.4651,3.4651,3.5298,3.6762,3.546,3.619,3.9086,3.9764,4.0509,4.1172,4.1172,4.1172,0.0,0.0,0.0,0.0,0.0,0.0,0.0,0.0,0.0,0.0,0.0,0.0,0.0,0.0,0.0,0.0,0.0,0.0,0.0,0.0,0.0,0.0,0.0,0.0,0.0,0.0,0.0,0.0,2.6386,2.6507,2.6787,2.7094,2.7535,2.811,2.8136,2.8136,2.8136,2.8136,2.8136,2.8136,2.8136,2.8136,2.8136,2.8136,2.8136,2.8136,2.8136,2.8136,2.8332,3.0451,3.1242,3.144,3.3613,3.4614,3.4822,3.6958,3.7769,3.8117,4.0181,3.9531,3.8213,4.0353,3.9531,3.7896,3.7737,3.7737,3.7419,3.5298,3.4651,3.4651,3.4489,3.4489,3.4489,3.4489,3.4489,3.3839,3.1722,3.1227,3.0744,2.8628,2.8136,2.8796,3.091,3.1227,3.2052,3.4164,3.4489,3.4489,3.4489,3.4489,3.4489,3.4489,3.4489,3.4489,3.4489,3.4489,3.4489,3.4489,3.4489,3.4489,3.4489,3.4489,3.4489,3.4651,3.4489,3.467,3.5015,3.6955,3.8901,4.1036,4.1036,4.1036,1.3448,0.0,0.0,0.0,0.0,0.0,0.0,0.0,0.0,0.0,0.0,0.0,0.0,0.0,0.0,0.0,0.0,0.0,0.0,0.0,0.0,0.0,0.0,0.0,0.0,0.0,0.0,0.0,2.6386,2.6426,2.6507,2.6987,2.7442,2.7816,2.803,2.8136,2.8136,2.8136,2.8136,2.8136,2.8136,2.8136,2.8136,2.8136,2.8136,2.8136,2.8136,2.8136,2.8318,2.8892,2.9088,2.9102,2.9677,3.1029,3.2357,3.3052,3.421,3.5626,3.6289,3.6147,3.5703,3.6372,3.6143,3.5543,3.557,3.5595,3.5388,3.488,3.3512,3.1887,3.0426,2.9941,2.9941,2.9941,2.9941,2.9774,2.9286,2.9132,2.8964,2.8305,2.8136,2.8473,2.8964,2.9132,2.9286,2.9941,2.9941,2.9941,2.9941,2.9941,2.9941,2.9941,2.9941,2.9941,2.9941,2.9941,2.9941,2.9941,2.9941,2.9941,2.9941,2.9941,3.0759,3.2217,3.0759,3.1722,3.5015,3.5589,3.6328,3.7093,3.7093,3.7093,0.0,0.0,0.0,0.0,0.0,0.0,0.0,0.0,0.0,0.0,0.0,0.0,0.0,0.0,0.0,0.0,0.0,0.0,0.0,0.0,0.0,0.0,0.0,0.0,0.0,2.6106,2.6266,2.6373,2.6386,2.644,2.656,2.7109,2.7485,2.7682,2.7989,2.8136,2.8136,2.8136,2.8136,2.8136,2.8136,2.8136,2.8136,2.8136,2.8136,2.8136,2.8136,2.8136,2.8136,2.8136,2.8136,2.8136,2.8136,2.8906,3.024,3.1044,3.2189,3.3436,3.4387,3.416,3.3436,3.4391,3.4018,3.3365,3.3301,3.3381,3.3148,3.2247,3.1076,2.9774,2.8473,2.8136,2.8136,2.8136,2.8136,2.8136,2.8136,2.8136,2.8136,2.8136,2.8136,2.8136,2.8136,2.8136,2.8136,2.8136,2.8136,2.8136,2.8136,2.8136,2.8136,2.8136,2.8136,2.8136,2.8136,2.8136,2.8136,2.8136,2.8136,2.8136,2.8136,2.827,2.9001,3.014,2.9111,2.9999,3.2814,3.3348,3.4366,3.5557,3.5557,3.5557,0.0,1.4945,0.0,0.0,0.0,0.0,1.7315,1.7034,0.0,0.0,0.0,0.0,0.0,0.0,0.0,0.0,0.0,0.0,0.0,0.0,0.0,0.0,0.0,0.0,2.5825,2.5919,2.6066,2.636,2.6386,2.6507,2.676,2.7042,2.7324,2.7629,2.7963,2.8136,2.8136,2.8136,2.8136,2.8136,2.8136,2.8136,2.8136,2.8136,2.8136,2.8136,2.8136,2.8136,2.8136,2.8136,2.8136,2.8136,2.8136,2.8136,2.8501,3.0268,3.1029,3.1322,3.3312,3.2655,3.1299,3.3417,3.2597,3.0956,3.1046,3.1078,3.0612,2.8769,2.8136,2.8136,2.8136,2.8136,2.8136,2.8136,2.8136,2.8136,2.8136,2.8136,2.8136,2.8136,2.8136,2.8136,2.8136,2.8136,2.8136,2.8136,2.8136,2.8136,2.8136,2.8136,2.8136,2.8136,2.8136,2.8136,2.8136,2.8136,2.8136,2.8136,2.8136,2.8136,2.8136,2.8444,2.8604,2.8604,2.8925,2.9219,2.9486,3.0995,3.2692,3.4831,3.4831,3.4831,1.7896,1.759,1.7275,1.654,0.0,0.0,1.6139,1.646,0.0,0.0,0.0,0.0,0.0,0.0,0.0,0.0,0.0,0.0,0.0,0.0,0.0,0.0,0.0,0.0,2.5317,2.5471,2.5803,2.6004,2.6215,2.6413,2.6466,2.6679,2.7121,2.7335,2.7662,2.7941,2.8136,2.8136,2.8136,2.8136,2.8136,2.8136,2.8136,2.8136,2.8136,2.8136,2.8136,2.8136,2.8136,2.8136,2.8136,2.8136,2.8136,2.8136,2.8318,2.871,2.8892,2.8878,2.9314,2.9244,2.8882,2.9258,2.9174,2.8878,2.8796,2.8769,2.8769,2.8305,2.8136,2.8136,2.8136,2.8136,2.8136,2.8136,2.8136,2.8136,2.8136,2.8136,2.8136,2.8136,2.8136,2.8136,2.8136,2.8136,2.8136,2.8136,2.8136,2.8136,2.8136,2.8136,2.8136,2.8136,2.8136,2.8136,2.8136,2.8136,2.8136,2.8136,2.8136,2.8136,2.8136,2.8444,2.8604,2.8604,2.9125,2.9419,2.9486,2.9934,3.0547,3.0942,3.0942,3.0942,1.8986,1.8578,1.8384,1.7929,0.0,0.0,0.0,1.6593,1.67,0.0,0.0,0.0,0.0,0.0,0.0,0.0,0.0,0.0,0.0,0.0,0.0,0.0,0.0,0.0,2.4578,2.494,2.5212,2.578,2.603,2.6201,2.6201,2.6571,2.6878,2.7001,2.749,2.7759,2.7941,2.8136,2.8136,2.8136,2.8136,2.8136,2.8136,2.8136,2.8136,2.8136,2.8136,2.8136,2.8136,2.8136,2.8136,2.8136,2.8136,2.8136,2.8136,2.8136,2.8136,2.8136,2.8136,2.8136,2.8136,2.8136,2.8136,2.8136,2.8136,2.8136,2.8136,2.8136,2.8136,2.8136,2.8136,2.8136,2.8136,2.8136,2.8136,2.8136,2.8136,2.8136,2.8136,2.8136,2.8136,2.8136,2.8136,2.8136,2.8136,2.8136,2.8136,2.8136,2.8136,2.8136,2.8136,2.8136,2.8136,2.8136,2.8136,2.8136,2.8136,2.8136,2.8136,2.8136,2.8136,2.8577,2.8965,2.9259,2.9553,2.97,2.97,2.9847,2.9913,2.9913,2.9913,2.9913,0.0,0.0,0.0,0.0,0.0,1.825,0.0,0.0,0.0,1.7595,0.0,0.0,0.0,0.0,0.0,0.0,0.0,0.0,0.0,0.0,0.0,0.0,0.0,0.0,2.3927,2.414,2.4521,2.527,2.5348,2.5623,2.5846,2.6386,2.6743,2.6756,2.7295,2.7535,2.7746,2.7941,2.8136,2.8136,2.8136,2.8136,2.8136,2.8136,2.8136,2.8136,2.8136,2.8136,2.8136,2.8136,2.8136,2.8136,2.8136,2.8136,2.8136,2.8136,2.8136,2.8136,2.8136,2.8136,2.8136,2.8136,2.8136,2.8136,2.8136,2.8136,2.8136,2.8136,2.8136,2.8136,2.8136,2.8136,2.8136,2.8136,2.8136,2.8136,2.8136,2.8136,2.8136,2.8136,2.8136,2.8136,2.8136,2.8136,2.8136,2.8136,2.8136,2.8136,2.8136,2.8136,2.8136,2.8136,2.8136,2.8136,2.8136,2.8136,2.8136,2.8136,2.8136,2.8177,2.823,2.8804,2.9379,2.99,2.9913,2.9913,2.9913,2.9913,2.9913,2.9913,2.9913,2.9913,0.0,0.0,0.0,0.0,2.004,0.0,0.0,0.0,1.7943,1.7034,0.0,0.0,0.0,0.0,0.0,0.0,0.0,0.0,0.0,0.0,0.0,0.0,0.0,0.0,0.0,2.2818,2.3189,2.4324,2.3838,2.4111,2.5451,2.5859,2.6373,2.6756,2.6878,2.7094,2.7733,2.7746,2.7941,2.8136,2.8136,2.8136,2.8136,2.8136,2.8136,2.8136,2.8136,2.8136,2.8136,2.8136,2.8136,2.8136,2.8136,2.8136,2.8136,2.8136,2.8136,2.8136,2.8136,2.8136,2.8136,2.8136,2.8136,2.8136,2.8136,2.8136,2.8136,2.8136,2.8136,2.8136,2.8136,2.8136,2.8136,2.8136,2.8136,2.8136,2.8136,2.8136,2.8136,2.8136,2.8136,2.8136,2.8136,2.8136,2.8136,2.8136,2.8136,2.8136,2.8136,2.8136,2.8136,2.8136,2.8136,2.8136,2.8136,2.8136,2.8136,2.8136,2.8136,2.827,2.8537,2.9125,2.9593,2.9913,2.9913,2.9913,2.9913,2.9913,2.9913,2.9913,2.9913,2.9913,0.0,0.0,0.0,0.0,0.0,0.0,1.8424,0.0,1.7716,0.0,0.0,0.0,0.0,0.0,0.0,0.0,0.0,0.0,0.0,0.0,0.0,0.0,0.0,0.0,0.0,0.0,0.0,0.0,2.2974,2.3313,2.4631,2.5322,2.5859,2.6386,2.6571,2.6986,2.7486,2.7609,2.7941,2.8136,2.8136,2.8136,2.8136,2.8136,2.8136,2.8136,2.8136,2.8136,2.8136,2.8136,2.8136,2.8136,2.8136,2.8136,2.8136,2.8136,2.8136,2.8136,2.8136,2.8136,2.8136,2.8136,2.8136,2.8136,2.8136,2.8136,2.8136,2.8136,2.8136,2.8136,2.8136,2.8136,2.8136,2.8136,2.8136,2.8136,2.8136,2.8136,2.8136,2.8136,2.8136,2.8136,2.8136,2.8136,2.8136,2.8136,2.8136,2.8136,2.8136,2.8136,2.8136,2.8136,2.8136,2.8136,2.8136,2.8136,2.8217,2.8404,2.8564,2.8791,2.9098,2.9352,2.9619,2.9913,2.9913,2.9913,2.9913,2.9913,2.9913,2.9913,2.9913,2.9913,2.143,0.0,0.0,0.0,0.0,0.0,0.0,0.0,0.0,0.0,0.0,0.0,0.0,0.0,0.0,0.0,0.0,0.0,0.0,0.0,0.0,0.0,0.0,0.0,0.0,0.0,0.0,0.0,0.0,2.2284,2.3931,2.477,2.5518,2.6017,2.64,2.6928,2.7286,2.7549,2.7759,2.8136,2.8136,2.8136,2.8136,2.8136,2.8136,2.8136,2.8136,2.8136,2.8136,2.8136,2.8136,2.8136,2.8136,2.8136,2.8136,2.8136,2.8136,2.8136,2.8136,2.8136,2.8136,2.8136,2.8136,2.8136,2.8136,2.8136,2.8136,2.8136,2.8136,2.8136,2.8136,2.8136,2.8136,2.8136,2.8136,2.8136,2.8136,2.8136,2.8136,2.8136,2.8136,2.8136,2.8136,2.8136,2.8136,2.8136,2.8136,2.8136,2.8136,2.8136,2.8136,2.8136,2.8136,2.8136,2.8136,2.8217,2.8404,2.8711,2.9005,2.9259,2.9472,2.9566,2.97,2.9913,2.9913,2.9913,2.9913,2.9913,2.9913,2.9913,2.9913,2.9913,0.0,0.0,0.0,1.9987,0.0,0.0,0.0,0.0,1.9098,0.0,0.0,0.0,0.0,0.0,0.0,0.0,0.0,0.0,0.0,0.0,0.0,0.0,0.0,0.0,0.0,0.0,0.0,0.0,2.0186,0.0,2.3639,2.4363,2.5046,2.599,2.6215,2.6743,2.7286,2.7357,2.7564,2.8136,2.8136,2.8136,2.8136,2.8136,2.8136,2.8136,2.8136,2.8136,2.8136,2.8136,2.8136,2.8136,2.8136,2.8136,2.8136,2.8136,2.8136,2.8136,2.8136,2.8136,2.8136,2.8136,2.8136,2.8136,2.8136,2.8136,2.8136,2.8136,2.8136,2.8136,2.8136,2.8136,2.8136,2.8136,2.8136,2.8136,2.8136,2.8136,2.8136,2.8136,2.8136,2.8136,2.8136,2.8136,2.8136,2.8136,2.8136,2.8136,2.8136,2.8136,2.8136,2.8136,2.8136,2.8136,2.8136,2.8417,2.8711,2.9005,2.9312,2.9472,2.9486,2.9753,2.99,2.9913,2.9913,2.9913,2.9913,2.9913,2.9913,2.9913,2.9913,2.9913,0.0,0.0,2.2993,2.1015,0.0,0.0,0.0,0.0,0.0,0.0,0.0,0.0,0.0,0.0,0.0,0.0,0.0,0.0,0.0,0.0,0.0,0.0,0.0,0.0,0.0,0.0,0.0,0.0,1.9759,0.0,0.0,2.3581,2.4488,2.5451,2.5859,2.6386,2.6928,2.7178,2.7551,2.7941,2.8123,2.8136,2.8136,2.8136,2.8136,2.8136,2.8136,2.8136,2.8136,2.8136,2.8136,2.8136,2.8136,2.8136,2.8136,2.8136,2.8136,2.8136,2.8136,2.8136,2.8136,2.8136,2.8136,2.8136,2.8136,2.8136,2.8136,2.8136,2.8136,2.8136,2.8136,2.8136,2.8136,2.8136,2.8136,2.8136,2.8136,2.8136,2.8136,2.8136,2.8136,2.8136,2.8136,2.8136,2.8136,2.8136,2.8136,2.8136,2.8136,2.8323,2.8444,2.8444,2.8617,2.8738,2.8738,2.9018,2.9232,2.9325,2.9606,2.9766,2.9766,2.986,2.9913,2.9913,2.9913,2.9913,2.9913,2.9913,2.9913,2.9913,2.9913,2.9913,2.3113,2.3394,0.0,2.1817,2.1416,0.0,1.9332,0.0,1.996,0.0,0.0,0.0,0.0,0.0,0.0,0.0,1.737,0.0,0.0,1.6157,0.0,0.0,0.0,0.0,0.0,0.0,1.7932,1.9331,1.9194,0.0,0.0,0.0,2.4048,2.5035,2.5649,2.6215,2.6756,2.7158,2.7367,2.7746,2.8123,2.8136,2.8136,2.8136,2.8136,2.8136,2.8136,2.8136,2.8136,2.8136,2.8136,2.8136,2.8136,2.8136,2.8136,2.8136,2.8136,2.8136,2.8136,2.8136,2.8136,2.8136,2.8136,2.8136,2.8136,2.8136,2.8136,2.8136,2.8136,2.8136,2.8136,2.8136,2.8136,2.8136,2.8136,2.8136,2.8136,2.8136,2.8136,2.8136,2.8136,2.8136,2.8136,2.823,2.827,2.8163,2.8136,2.8177,2.8297,2.8484,2.8644,2.8751,2.8925,2.9085,2.9192,2.9379,2.9526,2.9633,2.9806,2.9913,2.9913,2.9913,2.9913,2.9913,2.9913,2.9913,2.9913,2.9913,2.9913,2.9913,2.9913,2.9913]},{"header":{"parameterUnit":"m.s-1","parameterCategory":1,"la1":30.6,"la2":29.2853,"lo1":-89.7004,"lo2":-87.6739,"dy":0.0162,"dx":0.0183,"nx":112,"ny":82,"refTime":"2024-08-04T06:00:00:Z","depth":0,"parameterNumber":3,"parameterNumberName":"V-component_of_WINDS"},"data":[0.0,0.0,0.0,0.0,0.0,0.0,0.0,0.0,0.0,0.0,0.0,0.0,0.0,0.0,0.0,0.0,0.0,0.0,0.0,0.0,0.0,0.0,0.0,0.0,0.0,0.0,0.0,0.0,0.0,0.0,0.0,0.0,0.0,0.0,0.0,0.0,0.0,0.0,0.0,0.0,0.0,0.0,0.0,0.0,0.0,0.0,0.0,0.0,0.0,0.0,0.0,0.0,0.0,0.0,0.0,0.0,0.0,0.0,0.0,0.0,0.0,0.0,0.0,0.0,0.0,0.0,0.0,0.0,0.0,0.0,0.0,0.0,0.0,0.0,0.0,0.0,0.0,0.0,0.0,0.0,0.0,0.0,0.0,0.0,0.0,0.0,0.0,0.0,0.0,0.0,-1.9023,-2.0273,-2.2051,-2.3144,-2.3144,-2.3144,-2.1875,-1.8926,0.0,0.0,0.0,0.0,0.0,0.0,0.0,0.0,0.0,0.0,0.0,0.0,0.0,0.0,0.0,0.0,0.0,0.0,0.0,0.0,0.0,0.0,0.0,0.0,0.0,0.0,0.0,0.0,0.0,0.0,0.0,0.0,0.0,0.0,0.0,0.0,0.0,0.0,0.0,0.0,0.0,0.0,0.0,0.0,0.0,0.0,0.0,0.0,0.0,0.0,0.0,0.0,0.0,0.0,0.0,0.0,0.0,0.0,0.0,0.0,0.0,0.0,0.0,0.0,0.0,0.0,0.0,0.0,0.0,0.0,0.0,0.0,0.0,0.0,0.0,0.0,0.0,0.0,0.0,0.0,0.0,0.0,0.0,0.0,0.0,0.0,0.0,0.0,0.0,0.0,0.0,0.0,0.0,0.0,0.0,0.0,0.0,0.0,0.0,0.0,0.0,0.0,0.0,0.0,-1.9277,-2.2324,-2.2949,-2.3144,-2.3144,-2.3144,-2.2012,-1.9355,0.0,0.0,0.0,0.0,0.0,0.0,0.0,0.0,0.0,0.0,0.0,0.0,0.0,0.0,0.0,0.0,0.0,0.0,0.0,0.0,0.0,0.0,0.0,0.0,0.0,0.0,0.0,0.0,0.0,0.0,0.0,0.0,0.0,0.0,0.0,0.0,0.0,0.0,0.0,0.0,0.0,0.0,0.0,0.0,0.0,0.0,0.0,0.0,0.0,0.0,0.0,0.0,0.0,0.0,0.0,0.0,0.0,0.0,0.0,0.0,0.0,0.0,0.0,0.0,0.0,0.0,0.0,0.0,0.0,0.0,0.0,0.0,0.0,0.0,0.0,0.0,0.0,0.0,0.0,0.0,0.0,0.0,0.0,0.0,0.0,0.0,0.0,0.0,0.0,0.0,0.0,0.0,0.0,0.0,0.0,0.0,0.0,0.0,0.0,0.0,0.0,0.0,0.0,-1.8691,-2.0098,-2.2852,-2.3144,-2.3144,-2.3144,-2.3144,-2.2031,-1.9453,-1.8477,0.0,0.0,0.0,0.0,0.0,0.0,0.0,0.0,0.0,0.0,0.0,0.0,0.0,0.0,0.0,0.0,0.0,0.0,0.0,0.0,0.0,0.0,0.0,0.0,0.0,0.0,0.0,0.0,0.0,0.0,0.0,0.0,0.0,0.0,0.0,0.0,0.0,0.0,0.0,0.0,0.0,0.0,0.0,0.0,0.0,0.0,0.0,0.0,0.0,0.0,0.0,0.0,0.0,0.0,0.0,0.0,0.0,0.0,0.0,0.0,0.0,0.0,0.0,0.0,0.0,0.0,0.0,0.0,0.0,0.0,0.0,0.0,0.0,0.0,0.0,0.0,0.0,0.0,0.0,0.0,0.0,0.0,0.0,0.0,0.0,0.0,0.0,0.0,0.0,0.0,0.0,0.0,0.0,0.0,0.0,0.0,0.0,0.0,0.0,0.0,0.0,0.0,-2.0293,-2.1191,-2.2949,-2.3144,-2.3144,-2.3144,-2.2773,-2.1562,-1.9277,-1.8047,0.0,0.0,0.0,0.0,0.0,0.0,0.0,0.0,0.0,0.0,0.0,0.0,0.0,0.0,0.0,0.0,0.0,0.0,0.0,0.0,0.0,0.0,0.0,0.0,0.0,0.0,0.0,0.0,0.0,0.0,0.0,0.0,0.0,0.0,0.0,0.0,0.0,0.0,0.0,0.0,0.0,0.0,0.0,0.0,0.0,0.0,0.0,0.0,0.0,0.0,0.0,0.0,0.0,0.0,0.0,0.0,0.0,0.0,0.0,0.0,0.0,0.0,0.0,0.0,0.0,0.0,0.0,0.0,0.0,0.0,0.0,0.0,0.0,0.0,0.0,0.0,0.0,0.0,0.0,0.0,0.0,0.0,0.0,0.0,0.0,0.0,0.0,0.0,0.0,0.0,0.0,0.0,0.0,0.0,0.0,0.0,0.0,0.0,0.0,0.0,0.0,0.0,-2.0605,-2.2539,-2.3086,-2.3144,-2.3144,-2.3144,-2.166,-2.0156,-1.8769,-1.6738,0.0,0.0,0.0,0.0,0.0,0.0,0.0,0.0,0.0,0.0,0.0,0.0,0.0,0.0,0.0,0.0,0.0,0.0,0.0,0.0,0.0,0.0,0.0,0.0,0.0,0.0,0.0,0.0,0.0,0.0,0.0,0.0,0.0,0.0,0.0,0.0,0.0,0.0,0.0,0.0,0.0,0.0,0.0,0.0,0.0,0.0,0.0,0.0,0.0,0.0,0.0,0.0,0.0,0.0,0.0,0.0,0.0,0.0,0.0,0.0,0.0,0.0,0.0,0.0,0.0,0.0,0.0,0.0,0.0,0.0,0.0,0.0,0.0,0.0,0.0,0.0,0.0,0.0,0.0,0.0,0.0,0.0,0.0,0.0,0.0,0.0,0.0,0.0,0.0,0.0,0.0,0.0,0.0,0.0,0.0,0.0,0.0,0.0,0.0,0.0,0.0,0.0,-2.111,-2.2777,0.0,-2.3541,-2.3144,-2.3144,-2.2305,-2.0879,-1.8699,0.0,0.0,0.0,0.0,0.0,0.0,0.0,0.0,0.0,0.0,0.0,0.0,0.0,0.0,0.0,0.0,0.0,0.0,0.0,0.0,0.0,0.0,0.0,0.0,0.0,0.0,0.0,0.0,0.0,0.0,0.0,0.0,0.0,0.0,0.0,0.0,0.0,0.0,0.0,0.0,0.0,0.0,0.0,0.0,0.0,0.0,0.0,0.0,0.0,0.0,0.0,0.0,0.0,0.0,0.0,0.0,0.0,0.0,0.0,0.0,0.0,0.0,0.0,0.0,0.0,0.0,0.0,0.0,0.0,0.0,0.0,0.0,0.0,0.0,0.0,0.0,0.0,0.0,0.0,0.0,0.0,0.0,0.0,0.0,0.0,0.0,0.0,0.0,0.0,0.0,0.0,0.0,0.0,0.0,0.0,0.0,0.0,0.0,0.0,0.0,0.0,0.0,-2.0066,-2.2198,-2.4039,0.0,-2.4638,-2.4145,-2.4145,-2.3289,-2.1655,-1.9113,0.0,0.0,0.0,0.0,0.0,0.0,0.0,0.0,0.0,0.0,0.0,0.0,0.0,0.0,0.0,0.0,0.0,0.0,0.0,0.0,0.0,0.0,0.0,0.0,0.0,0.0,0.0,0.0,0.0,0.0,0.0,0.0,0.0,0.0,0.0,0.0,0.0,0.0,0.0,0.0,0.0,0.0,0.0,0.0,0.0,0.0,0.0,0.0,0.0,0.0,0.0,0.0,0.0,0.0,0.0,0.0,0.0,0.0,0.0,0.0,0.0,0.0,0.0,0.0,0.0,0.0,0.0,0.0,0.0,0.0,0.0,0.0,0.0,0.0,0.0,0.0,0.0,0.0,0.0,0.0,0.0,0.0,0.0,0.0,0.0,0.0,0.0,0.0,0.0,0.0,0.0,0.0,0.0,0.0,0.0,0.0,0.0,0.0,0.0,0.0,0.0,0.0,-2.0236,-2.3952,-2.6483,-2.6483,-2.6483,-2.6483,-2.6483,-2.4446,-2.2159,0.0,0.0,0.0,0.0,0.0,0.0,0.0,0.0,0.0,0.0,0.0,0.0,0.0,0.0,0.0,0.0,0.0,0.0,0.0,0.0,0.0,0.0,0.0,0.0,0.0,0.0,0.0,0.0,0.0,0.0,0.0,0.0,0.0,0.0,0.0,0.0,0.0,0.0,0.0,0.0,0.0,0.0,0.0,0.0,0.0,0.0,0.0,0.0,0.0,0.0,0.0,0.0,0.0,0.0,0.0,0.0,0.0,0.0,0.0,0.0,0.0,0.0,0.0,0.0,0.0,0.0,0.0,0.0,0.0,0.0,0.0,0.0,0.0,0.0,0.0,0.0,0.0,0.0,0.0,0.0,0.0,0.0,0.0,0.0,0.0,0.0,0.0,0.0,0.0,0.0,0.0,0.0,0.0,0.0,0.0,0.0,0.0,0.0,0.0,0.0,0.0,0.0,0.0,-2.1846,-2.5616,-2.8,-2.7649,-2.7273,-2.6948,-2.6505,-2.5239,-2.3039,-1.9899,0.0,0.0,0.0,0.0,0.0,0.0,0.0,0.0,0.0,0.0,0.0,0.0,0.0,0.0,0.0,0.0,0.0,0.0,0.0,0.0,0.0,0.0,0.0,0.0,0.0,0.0,0.0,0.0,0.0,0.0,0.0,0.0,0.0,0.0,0.0,0.0,0.0,0.0,0.0,0.0,0.0,0.0,0.0,0.0,0.0,0.0,0.0,0.0,0.0,0.0,0.0,0.0,0.0,0.0,0.0,0.0,0.0,0.0,0.0,0.0,0.0,0.0,0.0,0.0,0.0,0.0,0.0,0.0,0.0,0.0,0.0,0.0,0.0,0.0,0.0,0.0,0.0,0.0,0.0,0.0,0.0,0.0,0.0,0.0,0.0,0.0,0.0,0.0,0.0,0.0,0.0,0.0,0.0,0.0,0.0,0.0,0.0,0.0,0.0,0.0,0.0,0.0,-2.2799,-2.6828,-2.9521,-2.9399,-2.8927,-2.8527,-2.8139,-2.7152,-2.5075,-2.1618,0.0,0.0,0.0,0.0,0.0,0.0,0.0,0.0,0.0,0.0,0.0,0.0,0.0,0.0,0.0,0.0,0.0,0.0,0.0,0.0,0.0,0.0,0.0,0.0,0.0,0.0,0.0,0.0,0.0,0.0,0.0,0.0,0.0,0.0,0.0,0.0,0.0,0.0,0.0,0.0,0.0,0.0,0.0,0.0,0.0,0.0,0.0,0.0,0.0,0.0,0.0,0.0,0.0,0.0,0.0,0.0,0.0,0.0,0.0,0.0,0.0,0.0,0.0,0.0,0.0,0.0,0.0,0.0,0.0,0.0,0.0,0.0,0.0,0.0,0.0,0.0,0.0,0.0,0.0,0.0,0.0,0.0,0.0,0.0,0.0,0.0,0.0,0.0,0.0,0.0,0.0,0.0,0.0,0.0,0.0,0.0,0.0,0.0,0.0,0.0,0.0,0.0,-2.3491,-2.7748,-3.0859,-3.1336,-3.1009,-3.0733,-3.0633,-2.9628,-2.7555,-2.4293,0.0,0.0,0.0,0.0,0.0,0.0,0.0,0.0,0.0,0.0,0.0,0.0,0.0,0.0,0.0,0.0,0.0,0.0,0.0,0.0,0.0,0.0,0.0,0.0,0.0,0.0,0.0,0.0,0.0,0.0,0.0,0.0,0.0,0.0,0.0,0.0,0.0,0.0,0.0,0.0,0.0,0.0,0.0,0.0,0.0,0.0,0.0,0.0,0.0,0.0,0.0,0.0,0.0,0.0,0.0,0.0,0.0,0.0,0.0,0.0,-2.3772,0.0,0.0,0.0,0.0,0.0,0.0,0.0,0.0,0.0,0.0,0.0,0.0,0.0,0.0,0.0,0.0,0.0,0.0,0.0,0.0,0.0,0.0,0.0,0.0,0.0,0.0,0.0,0.0,0.0,0.0,0.0,0.0,0.0,0.0,0.0,0.0,0.0,0.0,0.0,0.0,0.0,-2.4704,-2.8617,-3.126,-3.1386,-3.1687,-3.1537,-3.0683,-3.0005,-2.8375,-2.5363,-2.3417,0.0,0.0,0.0,0.0,0.0,0.0,0.0,0.0,0.0,0.0,0.0,0.0,0.0,0.0,0.0,0.0,0.0,0.0,0.0,0.0,0.0,0.0,0.0,0.0,0.0,0.0,0.0,0.0,0.0,0.0,0.0,0.0,0.0,0.0,0.0,0.0,0.0,0.0,0.0,0.0,0.0,0.0,0.0,0.0,0.0,0.0,0.0,0.0,0.0,0.0,0.0,0.0,0.0,0.0,0.0,0.0,0.0,0.0,0.0,0.0,-2.6165,0.0,0.0,0.0,0.0,0.0,0.0,0.0,0.0,0.0,0.0,0.0,0.0,0.0,0.0,0.0,0.0,0.0,0.0,0.0,0.0,0.0,0.0,0.0,0.0,0.0,0.0,0.0,0.0,0.0,0.0,0.0,0.0,0.0,0.0,0.0,0.0,0.0,0.0,0.0,0.0,-2.59,-2.9266,-3.1587,-3.2139,-3.2215,-3.1989,-3.1436,-3.0658,-2.9299,-2.7285,-2.5286,0.0,0.0,0.0,0.0,0.0,0.0,0.0,0.0,0.0,0.0,0.0,0.0,0.0,0.0,0.0,0.0,0.0,0.0,0.0,0.0,0.0,0.0,0.0,0.0,0.0,0.0,0.0,0.0,0.0,0.0,0.0,0.0,0.0,0.0,0.0,0.0,0.0,0.0,0.0,0.0,0.0,0.0,0.0,0.0,0.0,0.0,0.0,0.0,0.0,0.0,0.0,0.0,0.0,-3.6415,-3.9229,-3.9881,-3.7671,-3.6035,-3.4675,-3.2842,-3.2147,-3.2129,-3.0281,0.0,0.0,0.0,0.0,0.0,0.0,0.0,0.0,0.0,0.0,0.0,0.0,0.0,0.0,0.0,0.0,0.0,0.0,0.0,0.0,0.0,0.0,0.0,0.0,-3.4982,-3.3249,-2.7094,0.0,0.0,0.0,0.0,0.0,0.0,0.0,0.0,0.0,0.0,0.0,-2.7212,-2.9891,-3.1938,-3.2968,-3.2641,-3.2315,-3.2215,-3.1411,-3.0407,-2.9302,-2.7212,-2.5557,0.0,0.0,0.0,0.0,0.0,0.0,0.0,0.0,0.0,0.0,0.0,0.0,0.0,0.0,0.0,0.0,0.0,0.0,0.0,0.0,0.0,0.0,0.0,0.0,0.0,0.0,0.0,0.0,0.0,0.0,0.0,0.0,-2.5782,-2.6046,0.0,0.0,0.0,0.0,0.0,0.0,0.0,0.0,0.0,0.0,0.0,0.0,0.0,-3.3407,-3.661,-3.7316,-3.7688,-3.7741,-4.1141,-4.212,-4.0884,-4.0414,-3.9414,-3.8191,-3.7914,0.0,-3.5583,-3.3427,0.0,0.0,0.0,0.0,0.0,0.0,0.0,0.0,0.0,0.0,0.0,0.0,0.0,0.0,0.0,0.0,0.0,0.0,0.0,0.0,0.0,0.0,-3.3301,-3.5609,-3.6227,-3.5517,0.0,-2.9578,-2.6339,-2.4607,-2.3879,0.0,0.0,0.0,0.0,0.0,0.0,0.0,-2.9124,-3.0979,-3.2365,-3.3018,-3.3018,-3.2767,-3.2265,-3.2089,-3.1537,-3.0457,-2.9176,-2.7854,-2.6454,-2.4619,0.0,0.0,0.0,0.0,0.0,0.0,0.0,0.0,0.0,0.0,0.0,0.0,0.0,0.0,0.0,0.0,0.0,0.0,0.0,0.0,0.0,0.0,0.0,0.0,0.0,0.0,0.0,0.0,0.0,-2.5452,-2.7482,-2.7499,-2.8016,-2.7283,0.0,0.0,0.0,0.0,0.0,0.0,0.0,0.0,0.0,-3.7404,-3.7625,-3.8947,-4.1426,-4.22,-4.2703,-4.2999,-4.4828,-4.5296,-4.4595,-4.3764,-4.2671,-4.1414,-4.0537,-3.9775,-3.8967,-3.6402,-3.5315,-3.4795,0.0,0.0,0.0,0.0,-3.225,-3.4971,-3.526,-3.5783,-3.6426,-3.6441,0.0,0.0,0.0,0.0,0.0,0.0,0.0,0.0,0.0,0.0,-3.55,-3.7738,-3.7784,-3.7064,-3.6168,-3.4587,-3.2298,0.0,-2.7871,-2.6866,-2.418,0.0,0.0,0.0,0.0,-2.8549,-3.0457,-3.1863,-3.2792,-3.3043,-3.3068,-3.2968,-3.2717,-3.239,-3.2014,-3.1537,-3.0758,-2.9899,-2.8963,-2.7508,-2.5721,0.0,0.0,0.0,0.0,0.0,0.0,0.0,0.0,0.0,0.0,0.0,0.0,0.0,0.0,0.0,0.0,0.0,0.0,0.0,0.0,0.0,0.0,0.0,0.0,0.0,0.0,0.0,0.0,-2.81,-2.9808,-2.954,-3.0881,-3.0485,0.0,0.0,0.0,0.0,0.0,0.0,-3.6031,-3.7763,-3.9699,-4.1887,-4.3015,-4.4298,-4.5636,-4.6243,-4.6656,-4.6917,-4.7565,-4.7738,-4.7401,-4.6307,-4.4902,-4.3333,-4.2342,-4.1625,-4.1153,-3.8793,-3.7993,-3.8002,-3.5643,-3.5507,-3.6488,-3.4578,-3.5344,-3.7456,-3.9146,-3.8569,-3.7248,-3.7191,-3.8395,-3.9687,-3.9676,0.0,0.0,0.0,0.0,-3.7263,-3.7221,-3.722,-3.7687,-3.9291,-3.9102,-3.8358,-3.812,-3.8366,-3.7322,0.0,-3.2,-3.0879,-2.7736,0.0,0.0,0.0,0.0,-3.0482,-3.1863,-3.2893,-3.3445,-3.3294,-3.3294,-3.3244,-3.3093,-3.2692,-3.2365,-3.2215,-3.1687,-3.116,-3.0633,-2.9679,-2.8201,-2.6233,0.0,0.0,0.0,0.0,0.0,0.0,0.0,0.0,0.0,0.0,0.0,0.0,0.0,0.0,0.0,0.0,0.0,0.0,0.0,0.0,0.0,0.0,0.0,0.0,0.0,0.0,0.0,0.0,0.0,-3.3725,-3.5623,0.0,0.0,0.0,0.0,-3.5395,-3.6704,-3.8649,-4.1319,-4.2792,-4.4557,-4.6864,-4.7786,-4.8551,-4.9015,-4.9512,-4.9449,-4.9164,-4.9164,-4.8588,-4.7441,-4.7289,-4.5888,-4.3409,-4.3333,-4.2527,-4.1254,-4.0049,-3.9347,-3.8718,-3.7462,-3.7197,-3.733,-3.6518,-3.7682,-3.9535,-3.9638,-3.9645,-3.9549,-3.9499,-3.9576,-3.9664,-3.9712,-3.7978,0.0,0.0,-3.9401,-3.957,-3.9576,-3.955,-3.9544,-3.9711,-3.9654,-3.9659,-3.9754,-3.977,-3.9124,0.0,-3.5732,-3.4941,-3.3728,0.0,-3.1888,-3.1888,-3.2441,-3.3093,-3.3696,-3.4274,-3.4449,-3.3922,-3.3847,-3.3646,-3.3119,-3.3043,-3.2792,-3.224,-3.1687,-3.116,-3.0633,-3.0055,-2.9202,-2.7974,-2.6339,0.0,0.0,0.0,0.0,0.0,0.0,0.0,0.0,0.0,0.0,0.0,0.0,0.0,0.0,0.0,0.0,0.0,0.0,0.0,0.0,0.0,0.0,0.0,0.0,0.0,0.0,0.0,0.0,-3.7142,-3.8996,0.0,-3.671,-3.7905,-3.924,-4.0354,-4.2146,-4.4078,-4.5868,-4.6903,-4.7792,-4.8566,-4.8864,-4.934,-4.9883,-4.9998,-5.0236,-5.0511,-5.0511,-5.0326,-4.9799,-4.8981,-4.8081,-4.7063,-4.5254,-4.4123,-4.3562,-4.1986,-4.0953,-4.0425,-4.0023,-3.9926,-3.9903,-3.9243,-3.9293,-3.9725,-3.9728,-3.9728,-3.9726,-3.9726,-3.9677,-3.9674,-3.9697,-3.9162,-3.8681,-3.9462,-3.9745,-3.9674,-3.9693,-3.9674,-3.9726,-3.9719,-4.09,-4.1959,-4.1515,-4.2152,-4.2558,-4.1779,-3.9858,-3.7826,-3.5991,-3.4984,-3.4056,-3.2902,-3.3545,-3.4198,-3.4399,-3.4901,-3.5052,-3.45,-3.4424,-3.4198,-3.3646,-3.3294,-3.2817,-3.224,-3.1687,-3.116,-3.0633,-3.0432,-2.9955,-2.9202,-2.7896,-2.6113,0.0,0.0,0.0,0.0,0.0,0.0,0.0,0.0,0.0,0.0,0.0,0.0,0.0,0.0,0.0,0.0,0.0,0.0,0.0,0.0,0.0,0.0,0.0,0.0,0.0,0.0,-3.8911,-3.9276,-4.1551,-4.2262,-4.0177,-4.1893,-4.35,-4.464,-4.6307,-4.7698,-4.8566,-4.9224,-4.9583,-4.9583,-4.9823,-5.0122,-5.0571,-5.0571,-5.078,-5.1229,-5.1229,-5.1229,-5.1229,-5.0287,-4.9679,-4.9063,-4.7197,-4.5872,-4.4914,-4.3604,-4.262,-4.1856,-4.148,-4.1329,-4.1304,-4.1084,-4.0646,-4.0184,-3.9815,-3.9665,-3.9744,-3.9722,-3.9649,-3.9753,-3.9726,-3.9675,-3.9675,-3.9675,-3.9675,-3.9725,-3.9719,-4.1031,-4.2047,-4.1142,-4.2517,-4.3781,-4.3369,-4.4031,-4.4873,-4.5346,-4.314,-4.074,-3.9243,-3.826,-3.719,-3.5646,-3.6122,-3.6483,-3.5646,-3.6049,-3.604,-3.5052,-3.5002,-3.47,-3.3972,-3.3395,-3.2918,-3.2541,-3.1637,-3.106,-3.0884,-3.0532,-3.0156,-2.9804,-2.8674,-2.7394,-2.5937,0.0,0.0,0.0,0.0,0.0,0.0,0.0,0.0,0.0,0.0,0.0,0.0,0.0,0.0,0.0,0.0,0.0,0.0,0.0,0.0,0.0,0.0,0.0,-3.6567,-3.9439,-4.1169,-4.0313,-4.3294,-4.4793,-4.3277,-4.5661,-4.7638,-4.8297,-4.8925,-4.9314,-4.9314,-4.9942,-5.0301,-5.0301,-5.093,-5.1289,-5.1289,-5.1289,-5.1289,-5.1289,-5.1289,-5.1289,-5.1289,-5.1289,-5.0567,-4.9317,-4.9317,-4.7661,-4.5208,-4.5101,-4.4261,-4.2997,-4.1806,-4.1379,-4.1404,-4.1878,-4.1695,-4.1336,-4.0265,-3.9885,-3.981,-3.9798,-3.9804,-3.9792,-3.9943,-3.9894,-3.9938,-3.9959,-3.9868,-3.979,-3.9933,-4.3626,-4.6621,-4.4115,-4.4208,-4.4977,-4.536,-4.5389,-4.5779,-4.7019,-4.5345,-4.3661,-4.3632,-4.2608,-4.1379,-4.0106,-4.0431,0.0,-3.7667,-3.7883,-3.7495,-3.5814,-3.5579,-3.5127,-3.4048,-3.342,-3.3093,-3.3043,-3.1512,-3.0859,-3.1361,-3.0382,-2.9854,-2.9854,-2.8775,-2.8197,-2.8147,0.0,0.0,0.0,0.0,0.0,0.0,0.0,0.0,0.0,0.0,0.0,0.0,0.0,0.0,0.0,0.0,0.0,0.0,0.0,0.0,0.0,-3.8123,-4.0546,-4.0726,-4.2342,-4.3967,-4.5149,-4.6539,-4.7491,-4.7584,-4.8298,-4.8985,-4.9643,-4.9883,-5.0182,-5.0661,-5.1319,-5.1648,-5.1648,-5.2306,-5.2636,-5.2636,-5.2636,-5.2636,-5.2636,-5.2636,-5.2636,-5.2636,-5.2636,-5.2442,-5.1994,-5.1046,-5.0109,-4.9258,-4.7271,-4.6488,-4.6437,-4.3618,-4.2534,-4.2595,-4.3355,-4.3936,-4.4246,-4.3513,-4.2891,-4.2451,-4.2457,-4.244,-4.2803,-4.4677,-4.5172,-4.5155,-4.5256,-4.3931,-4.2834,-4.4724,-4.6268,-4.6771,-4.4897,-4.5528,-4.6392,-4.5595,-4.6166,-4.6931,-4.7222,-4.6721,-4.5872,-4.4559,-4.3629,-4.2669,-4.1471,-4.1424,0.0,-4.0583,-4.025,-3.9546,-3.8254,-3.7678,-3.6702,-3.5152,-3.4223,-3.3319,-3.2516,-3.1311,-3.0859,-3.1361,-3.111,-3.1135,-3.1537,-3.0859,-3.0105,0.0,0.0,0.0,0.0,0.0,0.0,0.0,0.0,0.0,0.0,0.0,0.0,0.0,0.0,0.0,0.0,0.0,0.0,0.0,0.0,0.0,0.0,-4.1803,-4.4227,-4.4766,-4.5274,-4.6112,-4.7549,-4.8297,-4.8955,-4.9613,-4.9673,-5.0062,-5.099,-5.105,-5.1349,-5.2007,-5.2396,-5.2606,-5.2606,-5.2995,-5.3174,-5.3174,-5.3174,-5.3174,-5.3174,-5.3174,-5.3174,-5.3174,-5.3174,-5.3174,-5.3174,-5.2328,-5.167,-5.0931,-4.9342,-4.8618,0.0,0.0,0.0,0.0,0.0,-4.5738,-4.609,-4.5476,-4.5492,-4.5591,-4.5219,-4.5468,-4.6101,-4.6993,-4.7346,-4.7265,-4.7317,-4.6195,-4.5441,-4.6894,-4.734,-4.7011,-4.6106,-4.6549,-4.7111,-4.6343,-4.6726,-4.7309,-4.7309,-4.7309,0.0,-4.5962,-4.5405,-4.4763,-4.3522,-4.3503,-4.3332,-4.2314,-4.2055,-4.1513,-4.0313,-3.9617,-3.8512,-3.6805,-3.5634,0.0,0.0,0.0,-3.1788,-3.2089,-3.2089,0.0,0.0,0.0,0.0,0.0,0.0,0.0,0.0,-3.4233,-3.51,0.0,0.0,0.0,0.0,0.0,0.0,0.0,0.0,0.0,0.0,0.0,0.0,0.0,0.0,0.0,0.0,-4.4855,-4.698,-4.8207,-4.7967,-4.7848,-4.8446,-4.9015,-4.9643,-5.0272,-5.0421,-5.096,-5.2127,-5.2276,-5.2576,-5.3144,0.0,0.0,0.0,0.0,-5.3414,-5.3414,-5.3414,-5.3414,-5.3414,-5.3414,-5.3414,-5.3414,-5.3414,-5.3414,-5.3414,-5.3414,-5.2763,-5.157,-5.1366,-5.0588,-4.9214,-4.7109,-4.6731,-4.741,-4.741,-4.7485,-4.7521,-4.6991,0.0,0.0,-4.7983,-4.8461,-4.9198,-4.7951,-4.7521,-4.7496,-4.7464,-4.7407,-4.7344,-4.7317,-4.7288,-4.7309,-4.7309,-4.7309,-4.7309,-4.7309,-4.7309,-4.7309,-4.7309,-4.7309,-4.7309,-4.7309,-4.7309,-4.6931,-4.5779,-4.6049,-4.5695,-4.3441,-4.3653,-4.3428,-4.2216,0.0,0.0,-3.8863,-3.7643,-3.6481,-3.5417,-3.4324,-3.3705,-3.3705,-3.3658,-3.4073,-3.4977,-3.5052,-3.578,-3.7186,-3.7312,-3.7638,-3.804,-3.6384,-3.6926,0.0,0.0,0.0,0.0,0.0,0.0,0.0,0.0,0.0,0.0,0.0,0.0,0.0,0.0,0.0,-4.4347,-4.6501,-4.8177,-4.8955,-4.9404,-4.9703,-4.9853,-4.9972,-5.0301,-5.096,-5.1498,-5.1917,-5.2187,-5.2695,-5.3054,-5.3174,-5.3713,-5.4012,-5.4012,-5.4521,-5.479,-5.479,-5.479,-5.479,-5.479,0.0,0.0,-5.479,-5.479,-5.479,-5.479,-5.479,-5.469,-5.4357,-5.314,-5.2196,-5.1233,-4.9241,-4.8945,-4.9638,-4.9638,-4.9919,-5.0383,-5.0265,-5.0419,-5.0544,-4.9863,-4.9842,-4.9908,-4.9193,-4.8865,0.0,-4.8239,-4.8118,-4.7997,-4.7434,-4.7312,-4.7309,-4.7309,-4.7309,-4.7309,-4.7309,-4.7309,-4.7309,-4.7309,-4.7309,-4.7309,-4.7309,-4.7309,-4.7222,-4.6931,-4.7016,-4.6927,-4.6461,-4.6073,-4.5314,-4.4177,-4.3426,-4.2531,-4.1231,-4.0542,-3.9848,-3.918,-3.7998,-3.7269,-3.7269,-3.71,-3.6935,-3.6709,-3.7136,-3.7312,-3.7186,-3.809,-3.8592,-3.8768,-3.886,-3.9482,0.0,0.0,0.0,0.0,0.0,0.0,0.0,0.0,0.0,0.0,0.0,-3.8751,-4.1384,0.0,-4.5005,-4.695,-4.8386,-4.9374,-4.9703,-5.0301,-5.0601,-5.0272,-5.0541,-5.099,-5.1648,-5.2007,-5.2486,-5.3144,-5.3503,-5.3832,-5.4162,-5.4521,-5.47,-5.47,-5.5029,-5.5179,-5.5179,-5.5179,-5.5179,-5.5179,-5.5179,-5.5179,-5.5179,-5.5179,-5.5179,-5.5179,-5.5179,-5.5179,-5.5179,-5.4406,-5.3892,-5.3466,-5.2468,-5.1977,-5.1659,-5.1659,-5.1875,-5.2157,-5.1828,-5.1708,-5.1588,-5.093,-5.072,-5.0601,-4.9942,-4.9763,-4.9613,-4.8955,-4.8775,-4.8626,-4.7967,-4.7788,-4.7728,-4.7369,-4.7309,-4.7309,-4.7309,-4.7309,-4.7309,-4.7309,-4.7309,-4.7309,-4.7309,-4.7309,-4.7309,-4.7309,-4.7309,-4.7309,-4.7309,-4.701,-4.6629,-4.5962,-4.5373,-4.4443,-4.3328,-4.2111,-4.1252,-4.1035,-4.0384,-4.0051,-4.0051,-3.9344,-3.8917,-3.9039,-3.8662,-3.8715,-3.9355,-3.9947,-4.0603,-4.1169,-4.1169,-4.1169,0.0,0.0,0.0,0.0,0.0,0.0,0.0,0.0,-3.7434,-4.1175,-4.2043,-4.306,-4.6142,-4.68,-4.7459,-4.9164,-4.9883,-5.0301,-5.0421,-5.09,-5.102,-5.0481,-5.09,-5.1468,-5.2127,-5.2306,-5.2905,-5.4132,-5.4341,-5.464,-5.5149,-5.5179,-5.5179,-5.5179,-5.5179,-5.5179,-5.5179,-5.5179,-5.5179,-5.5179,-5.5329,-5.5329,-5.5209,-5.5448,-5.5508,-5.5388,-5.5388,-5.5388,-5.5359,-5.5239,-5.5179,-5.5179,-5.5179,-5.4521,-5.3563,-5.3414,-5.3294,-5.3114,-5.2576,-5.2306,-5.2127,-5.1588,-5.1319,-5.1109,-5.0601,-5.0421,-5.0301,-4.9643,-4.9464,-4.9314,-4.8656,-4.8476,-4.8356,-4.7818,-4.7578,-4.7489,-4.7489,-4.7399,-4.7309,-4.7309,-4.7309,-4.7309,-4.7309,-4.7309,-4.7309,-4.7309,-4.7309,-4.7309,-4.7309,-4.7309,-4.7309,-4.7309,-4.683,-4.6129,-4.52,-4.3767,-4.2829,-4.2829,-4.2649,-4.2468,-4.2468,-4.1272,-4.0855,-4.1363,-4.0343,-4.0478,-4.1985,-4.1985,-4.2501,-4.3697,-4.3121,-4.2598,-3.427,-3.8091,-4.1614,-3.9087,-3.7284,-3.7883,0.0,0.0,-4.4018,-4.683,-4.7878,-4.8237,-4.8087,-4.8536,-4.9194,-5.0002,-5.0182,-5.0451,-5.102,-5.1169,-5.1199,-5.1109,-5.1169,-5.1468,-5.2127,-5.2725,-5.3384,-5.4162,-5.476,-5.5119,-5.5179,-5.5179,-5.5179,-5.5179,-5.5179,-5.5179,-5.5179,-5.5179,-5.5179,-5.5209,-5.5777,-5.5748,-5.5239,-5.6376,-5.6585,-5.6077,-5.6077,-5.6077,-5.6017,-5.5448,-5.5179,-5.5179,-5.5179,-5.5089,-5.488,-5.4311,-5.3713,-5.3174,-5.3084,-5.2695,-5.2187,-5.2127,-5.1708,-5.1199,-5.1139,-5.1109,-5.096,-5.0301,-5.0122,-4.9972,-4.9344,-4.9164,-4.9134,-4.9075,-4.8596,-4.8177,-4.8177,-4.7728,-4.7309,-4.7309,-4.7309,-4.7309,-4.7309,-4.7309,-4.7309,-4.7309,-4.7309,-4.7309,-4.7309,-4.7309,-4.7309,-4.7309,-4.7249,-4.7103,-4.7016,-4.684,-4.6694,-4.6694,-4.5665,-4.5006,-4.5006,-4.3752,-4.3148,-4.3203,-4.3013,-4.3067,-4.3313,-4.3313,-4.3684,-4.4401,-4.4263,-4.4263,-4.111,-4.2977,0.0,0.0,-4.2393,-4.309,-4.6381,-4.6181,-4.6066,-4.8805,-4.9492,-4.9702,-4.9972,-5.0212,-5.0481,0.0,-5.081,-5.09,-5.1169,-5.09,-5.0661,-5.0661,-5.0478,-5.1046,-5.2636,-5.3025,-5.3623,-5.47,-5.5029,-5.5359,-5.5748,-5.5777,-5.5927,-5.6286,-5.6286,-5.6286,-5.6286,-5.6286,-5.6286,-5.6286,-5.6585,-5.6555,-5.6316,-5.6855,-5.6944,-5.6705,-5.6705,-5.6496,-5.6137,-5.5867,-5.5538,-5.5179,-5.5179,-5.5179,-5.5149,-5.488,-5.461,-5.4281,-5.3922,-5.3593,-5.3294,-5.2905,-5.2336,-5.1798,-5.1798,-5.1528,-5.1169,-5.09,-5.081,-5.0661,-5.0002,-4.9823,-4.9733,-4.9344,-4.9075,-4.8865,-4.8865,-4.8626,-4.8327,-4.7967,-4.7878,-4.7758,-4.7369,-4.7309,-4.7309,-4.7309,-4.7309,-4.7309,-4.7309,-4.7309,-4.7309,-4.7309,-4.7309,-4.7309,-4.7309,-4.7309,-4.7309,-4.7309,-4.6814,-4.655,-4.655,-4.5298,-4.4627,-4.4627,-4.3882,-4.4049,-4.5166,-4.5166,-4.5881,-4.7288,-4.6852,-4.7024,-4.4364,0.0,0.0,-4.4744,-4.5544,-4.6701,-4.7043,-4.6991,-4.7555,-5.0,-5.0179,-5.0179,-5.1083,-5.102,-5.099,-5.1173,-5.1319,-5.1439,-5.1259,-5.081,-5.0511,-5.0511,-5.015,-5.0717,-5.2755,-5.3061,-5.3503,-5.482,-5.5089,-5.5478,-5.6137,-5.6346,-5.6645,-5.7094,-5.7094,-5.7094,-5.7094,-5.7094,-5.7094,-5.7094,-5.7304,-5.7274,-5.7094,-5.7304,-5.7483,-5.7633,-5.7453,-5.7124,-5.6705,-5.6496,-5.6137,-5.5688,-5.5538,-5.5478,-5.5448,-5.5269,-5.5179,-5.5119,-5.464,-5.4371,-5.4132,-5.3623,-5.3025,-5.2486,-5.2486,-5.2007,-5.1498,-5.1498,-5.1349,-5.1109,-5.0631,-5.0511,-5.0391,-4.9912,-4.9673,-4.9523,-4.9523,-4.9404,-4.9134,-4.8656,-4.8566,-4.8356,-4.7698,-4.7578,-4.7519,-4.7339,-4.7309,-4.7309,-4.7309,-4.7309,-4.7309,-4.7309,-4.7309,-4.7309,-4.7309,-4.7309,-4.7309,-4.7309,-4.7309,-4.7309,-4.7309,-4.6432,-4.6046,-4.622,-4.5281,-4.5595,-4.7182,-4.7182,-4.7992,-4.9553,-4.9016,-4.9339,0.0,0.0,-4.8052,-4.4588,-4.552,-4.7583,-4.8954,-4.9248,-4.9545,-5.0866,-5.0478,-5.012,-5.1028,-5.0695,-5.0483,-5.1058,-5.1777,-5.1947,-5.1319,-5.1199,-5.1199,-5.1199,-5.0418,-5.0598,0.0,-5.2492,-5.3002,-5.4132,-5.482,-5.5478,-5.6137,-5.6735,-5.7064,-5.7094,-5.7094,-5.7094,-5.7094,-5.7094,-5.7094,-5.7094,-5.7782,-5.7752,-5.7124,-5.7782,-5.8441,-5.9009,-5.8381,-5.8082,-5.8022,-5.7334,-5.7064,-5.6974,-5.6376,-5.6137,-5.6077,-5.5418,-5.5179,-5.5179,-5.5179,-5.473,-5.4221,-5.4192,-5.3713,-5.3144,-5.3144,-5.2695,-5.2187,-5.2187,-5.1708,-5.1229,-5.1199,-5.1199,-5.1199,-5.1169,-5.0661,-5.0212,-5.0212,-4.9703,-4.9254,-4.9224,-4.9224,-4.9045,-4.8386,-4.8267,-4.8027,-4.7399,-4.7309,-4.7309,-4.7309,-4.7309,-4.7309,-4.7309,-4.7309,-4.7309,-4.7309,-4.7309,-4.7309,-4.7309,-4.7309,-4.7309,-4.7309,-4.7309,-4.7521,-4.8237,-4.8148,-4.8477,-4.9224,-4.9224,-4.9553,-5.0212,-5.012,-5.0478,0.0,0.0,-4.7981,-4.9779,-4.9379,-4.8986,-5.0266,-5.0537,-5.0697,-5.1147,-5.097,-5.0336,-4.8865,-4.8925,-4.9314,-4.9885,-5.0873,-5.1468,-5.1259,-5.1588,-5.1528,-5.0478,-4.9872,0.0,0.0,0.0,0.0,-5.3883,-5.529,-5.6323,-5.6735,-5.7423,-5.7992,-5.8411,-5.8441,-5.8441,-5.8441,-5.8441,-5.8441,-5.8441,-5.865,-5.865,-5.8441,-5.868,-5.889,-5.9099,-5.886,-5.853,-5.8112,-5.7872,-5.7513,-5.7064,-5.6855,-5.6795,-5.6705,-5.6077,-5.5837,-5.5777,-5.5329,-5.5029,-5.485,-5.485,-5.4401,-5.3862,-5.3862,-5.3384,-5.2755,-5.2336,-5.2037,-5.1768,-5.1319,-5.1229,-5.1229,-5.1229,-5.105,-5.09,-5.09,-5.072,-5.0421,-5.0002,-4.9912,-4.9703,-4.9045,-4.8925,-4.8865,-4.8626,-4.7878,-4.7309,-4.7309,-4.7309,-4.7309,-4.7309,-4.7309,-4.7309,-4.7309,-4.7309,-4.7309,-4.7309,-4.7309,-4.7489,-4.7938,-4.7967,-4.8267,-4.8925,-4.8925,-4.9254,-4.9912,-4.9912,-5.0242,-5.09,-5.09,-5.1229,0.0,-4.8561,-5.1475,-5.4344,-5.3734,-5.262,-5.3446,-5.3566,-5.3161,-5.1528,-5.0421,-4.899,-4.6381,-4.6736,-4.7843,-4.9061,-5.0638,-5.169,-5.1558,-5.1942,-5.1972,-5.0952,-4.9486,-4.8968,0.0,0.0,0.0,-5.2842,-5.441,-5.5795,-5.7034,-5.7962,-5.865,-5.9099,-5.9099,-5.9099,-5.9099,-5.9099,-5.9099,-5.9099,-5.9099,-5.9099,-5.9099,-5.9099,-5.9099,-5.9099,-5.9099,-5.886,-5.8471,-5.8471,-5.8201,-5.7782,-5.7543,-5.7453,-5.7393,-5.6735,-5.6496,-5.6376,-5.5508,-5.5179,-5.5179,-5.5179,-5.491,-5.4551,-5.4551,-5.4072,-5.3473,-5.3025,-5.2725,-5.2396,-5.1738,-5.1558,-5.1498,-5.1289,-5.1229,-5.1229,-5.1229,-5.1229,-5.1079,-5.0661,-5.0909,-5.097,-5.0304,-5.0059,-4.973,-4.9344,-4.8536,-4.7997,-4.7997,-4.7997,-4.7997,-4.7997,-4.7997,-4.7997,-4.7997,-4.7997,-4.7997,-4.7997,-4.7997,-4.8207,-4.8626,-4.8626,-4.8955,-4.9613,-4.9613,-4.9942,-5.0601,-5.0601,-5.081,-5.1229,-5.1468,-5.1798,-5.6314,-5.787,-5.7878,-5.7909,-5.7786,-5.7674,-5.7642,-5.7642,-5.6368,-5.2219,-4.9101,-4.6307,-4.3603,0.0,-4.6083,-4.8655,-5.0984,-5.2364,-5.2222,-5.2412,-5.2583,0.0,0.0,0.0,0.0,0.0,0.0,-5.1444,0.0,-5.448,-5.693,-5.8381,-5.9099,-5.9099,-5.9099,-5.9099,-5.9099,-5.9099,-5.9099,-5.9099,-5.9099,-5.9099,-5.9099,-5.9099,-5.9099,-5.9099,-5.9099,-5.9099,-5.9099,-5.9099,-5.9099,-5.9039,-5.8411,-5.8171,-5.8082,-5.7393,-5.7154,-5.6974,-5.5718,-5.5269,-5.5239,-5.5209,-5.5179,-5.5179,-5.5179,-5.476,-5.4251,-5.4221,-5.3743,-5.3084,-5.2426,-5.2247,-5.2097,-5.1563,-5.1413,-5.1413,-5.1476,-5.1446,-5.1446,-5.1446,-5.2245,-5.2772,-5.2151,-5.1553,-5.0691,-4.9614,-4.9434,-4.9434,-4.9284,-4.9254,-4.9254,-4.9254,-4.9254,-4.9254,-4.9254,-4.9254,-4.9254,-4.9254,-4.9254,-4.9284,-4.9314,-4.9314,-4.9613,-5.0272,-5.0301,-5.0601,-5.1229,-5.1259,-5.1259,-5.1289,-5.1947,-5.2276,-5.6884,-5.7902,-5.7915,-5.7883,-5.6244,-5.4649,-5.4593,-5.3766,-5.2885,-5.2864,-4.8842,-4.4401,-4.1435,0.0,0.0,-4.5738,-4.9061,0.0,-5.1423,-5.3268,0.0,-5.1748,0.0,-5.4238,-5.6889,-5.7092,0.0,0.0,-5.5364,-5.6392,-5.7047,-5.8393,-5.9099,-5.9099,-5.9099,-5.9099,-5.9099,-5.9099,-5.9099,-5.9099,-5.9099,-5.9099,-5.9099,-5.9099,-5.9099,-5.9099,-5.9099,-5.9099,-5.9099,-5.9099,-5.9099,-5.9099,-5.8919,-5.886,-5.877,-5.8112,-5.7872,-5.7752,-5.6885,-5.6316,-5.5837,-5.5359,-5.5179,-5.5179,-5.5179,-5.5059,-5.485,-5.4341,-5.4072,-5.3803,-5.3114,-5.2935,-5.3164,-5.3867,-5.3991,-5.4267,-5.5197,-5.4964,-5.4529,-5.4529,-5.4347,-5.4105,-5.3914,-5.3756,-5.3291,-5.214,-5.1963,-5.1359,-4.9554,-4.9254,-4.9254,-4.9254,-4.9254,-4.9254,-4.9254,-4.9254,-4.9254,-4.9254,-4.9254,-4.9494,-4.9972,-5.0002,-5.0301,-5.096,-5.096,-5.105,-5.1229,-5.1708,-5.1947,-5.1977,-5.2636,-5.3204,-5.9272,-5.9355,-5.8721,-5.81,-5.6163,-5.3799,-5.1144,-4.9912,-4.8956,-4.7863,-4.4943,0.0,-4.041,0.0,0.0,0.0,0.0,0.0,-5.1967,-5.3923,-5.464,0.0,-5.5278,0.0,-5.8906,-5.9119,-5.8459,0.0,-5.7633,-5.7933,-5.7945,-5.871,-5.9099,-5.9099,-5.9099,-5.9099,-5.9099,-5.9099,-5.9099,-5.9099,-5.9099,-5.9099,-5.9099,-5.9099,-5.9099,-5.9099,0.0,-5.9099,-5.9099,-5.9099,-5.9099,-5.9099,-5.9099,-5.9099,-5.9069,-5.868,-5.856,-5.8471,-5.7782,-5.7334,-5.6885,-5.5927,-5.5418,-5.5179,-5.5179,-5.5179,-5.5119,-5.473,-5.4978,-5.5287,-5.4587,-5.4849,-5.5318,-5.5705,-5.5821,-5.5999,-5.6669,-5.6467,-5.6252,-5.6381,-5.5815,-5.5296,-5.5296,-5.5296,-5.4888,-5.3828,-5.3502,-5.2726,-5.1088,-5.0457,-5.0122,-5.0122,-5.0122,-5.0122,-5.0122,-5.0122,-5.0122,-5.0122,-5.0122,-5.0301,-5.0661,-5.0661,-5.096,-5.1648,-5.1648,-5.1798,-5.2067,-5.2456,-5.2636,-5.2636,-5.3324,-5.3832,-6.2056,-6.1245,-5.9722,-5.7992,-5.6544,-5.3978,-4.8394,-4.6815,-4.5351,-4.1163,0.0,-3.983,-3.953,-3.7367,-3.8152,-4.5995,0.0,-5.1821,-5.2815,-5.4237,-5.5323,-5.573,-5.7767,-5.9047,-5.9061,-5.9121,-5.9135,-5.9129,-5.9087,-5.9075,-5.9152,-5.9147,-5.905,-5.911,-5.911,-5.911,-5.911,-5.917,-5.9249,-5.905,-5.9219,-5.9189,-5.9099,-5.9099,-5.9099,-5.9099,-5.9099,-5.9099,-5.9099,-5.9099,-5.9099,-5.9099,-5.9099,-5.9099,-5.9099,-5.9099,-5.9099,-5.9009,-5.8441,-5.8201,-5.7902,-5.6585,-5.5777,-5.5299,-5.5209,-5.5179,-5.5179,-5.5381,-5.6183,-5.6931,-5.6529,-5.7168,-5.7813,-5.7345,-5.7302,-5.7388,-5.7474,-5.7494,-5.7488,-5.7734,-5.7198,-5.6735,-5.6735,-5.6735,-5.6343,-5.5293,-5.479,-5.4278,-5.3508,-5.2337,-5.1476,-5.1229,-5.1293,-5.1386,-5.1229,-5.1289,-5.1349,-5.1349,-5.1349,-5.1379,-5.1468,-5.1379,-5.1648,-5.2306,-5.2336,-5.2606,-5.3174,-5.3264,-5.3324,-5.3324,-5.4012,-5.4341,-6.2336,-6.1291,-5.9464,-5.6787,-5.4984,-5.2976,-4.9426,-4.6709,0.0,0.0,0.0,-3.8376,-3.6705,-3.5926,0.0,-4.6046,0.0,0.0,0.0,0.0,-5.5969,0.0,0.0,0.0,0.0,0.0,0.0,0.0,0.0,-5.9088,-5.9041,-5.9071,-5.911,-5.9125,-5.9155,-5.9155,-5.9155,-5.9763,-5.9755,-5.9101,-5.9648,-5.9638,-5.9099,-5.9099,-5.9099,-5.9099,-5.9099,0.0,-5.9099,-5.9099,-5.9099,-5.9099,-5.9099,-5.9099,-5.9099,-5.9099,-5.9099,-5.9099,-5.8979,-5.859,-5.7902,-5.6585,-5.6107,-5.5897,-5.5359,-5.5179,-5.5381,-5.6445,-5.68,-5.7214,-5.811,-5.8441,-5.8856,-5.9716,-5.9938,-6.0223,-6.1193,-6.0998,-6.0326,-5.9742,-5.9549,-5.9448,-5.9448,-5.9448,-5.9031,-5.7968,-5.7707,-5.7326,-5.623,-5.4527,-5.2857,-5.1353,-5.2063,-5.2215,-5.1293,-5.1708,-5.2037,-5.2037,-5.2037,-5.2276,-5.2815,-5.2306,-5.2336,-5.2995,-5.3025,-5.3054,-5.3174,-5.3743,-5.4042,-5.4042,-5.47,-5.5029,-6.1588,-6.1003,-5.9667,-5.785,-5.5434,-5.2539,-4.8736,0.0,0.0,0.0,0.0,-3.6763,-3.579,0.0,0.0,0.0,0.0,0.0,0.0,0.0,0.0,0.0,0.0,0.0,0.0,0.0,0.0,0.0,0.0,-6.0522,-5.9125,-6.0394,-6.1126,-6.1164,-6.1164,-6.1164,-6.1164,-6.1627,-6.1567,-6.1177,-6.0595,-6.0215,-6.0146,-6.0146,-6.0146,-6.0146,-6.0146,-5.9937,-5.9608,-5.9608,-5.9398,-5.9099,-5.9099,-5.9099,-5.9099,-5.9099,-5.9099,-5.9099,-5.9099,-5.889,-5.8578,-5.8358,-5.7505,-5.6585,-5.6286,-5.5957,-5.5992,-5.7161,-5.7715,-5.8268,-5.9434,-6.0247,-6.087,-6.1399,-6.1595,-6.1676,-6.2302,-6.1806,-6.1197,-6.0791,-6.0385,-6.0114,-6.0114,-6.0114,-5.9928,-5.9432,-5.9145,-5.8675,-5.7753,-5.713,-5.6098,-5.4286,-5.4637,-5.446,-5.3284,-5.3497,-5.3429,-5.2792,-5.2725,-5.2845,-5.3174,-5.2875,-5.3025,-5.3713,-5.3713,-5.3892,-5.4221,-5.4551,-5.473,-5.473,-5.5029,-5.5388,-6.0452,-6.0351,-5.9641,-5.8761,-5.5852,-5.2063,-4.7597,-4.3978,0.0,0.0,-3.525,-3.5159,-3.5266,0.0,0.0,0.0,0.0,0.0,0.0,0.0,0.0,0.0,0.0,0.0,0.0,0.0,0.0,0.0,0.0,0.0,-6.0037,-6.1988,-6.3131,-6.3131,-6.3131,-6.3131,-6.3131,-6.3131,-6.3131,-6.304,-6.1635,-6.1022,-6.1104,-6.1104,-6.1104,-6.1104,-6.1104,-6.0805,-6.0296,-6.0296,-5.9907,-5.9308,-5.9308,-5.9219,-5.9099,-5.9392,-5.9469,-5.9576,-5.9895,-6.0,-5.9984,-6.0532,-5.9408,-5.7764,-5.7891,-5.7598,-5.7503,-5.8715,-5.9214,-5.9661,-6.0934,-6.1776,-6.2381,-6.2381,-6.2381,-6.2381,-6.2381,-6.1941,-6.1535,-6.1535,-6.1028,-6.0588,-6.0588,-6.0588,-6.0588,-6.0588,-6.0324,-5.9975,-5.9378,-5.9809,-5.9614,-5.8157,-5.7462,-5.6669,-5.5462,-5.5527,-5.5163,-5.4287,-5.3905,-5.3899,-5.405,-5.3669,-5.3713,-5.4401,-5.4431,-5.467,-5.5179,-5.5179,-5.5269,-5.5388,-5.5388,-5.5748,-5.8998,-5.9167,-5.8761,-5.7374,-5.4702,-5.1251,-4.6819,0.0,0.0,-3.525,-3.4066,-3.377,-3.4236,-3.5004,0.0,0.0,0.0,0.0,0.0,0.0,0.0,0.0,0.0,0.0,0.0,0.0,0.0,0.0,0.0,0.0,-6.2792,-6.2924,-6.3104,-6.3104,-6.3104,-6.3104,-6.3104,-6.3104,-6.3129,-6.3116,-6.2882,-6.2228,-6.1104,-6.1104,-6.1104,-6.1104,-6.1104,-6.1074,0.0,-6.1014,-6.0625,-5.9997,-5.9997,-5.9638,-5.9177,-6.0432,-6.0815,-6.102,-6.2193,-6.2617,-6.2682,-6.2715,-6.1361,-5.9911,-6.0487,-6.061,-6.0857,-6.1979,-6.1928,-6.1745,-6.2959,-6.2809,-6.2381,-6.2381,-6.2381,-6.2381,-6.2381,-6.2347,-6.2279,-6.2279,-6.2245,-6.2178,-6.2178,-6.2178,-6.2178,-6.2178,-6.2167,-6.2088,-6.2021,-6.2054,-6.2088,-6.1908,-5.9724,-5.7887,-5.6755,-5.7157,-5.754,-5.7363,-5.6309,-5.606,-5.6584,-5.5061,-5.4431,-5.5089,-5.5089,-5.5119,-5.5179,-5.5179,-5.5508,-5.6077,-5.6077,-5.6406,-5.778,-5.866,-5.866,-5.7171,-5.4194,-5.0473,-4.6041,0.0,-3.8125,-3.5115,-3.4269,-3.41,-3.4355,-3.5015,-3.5974,0.0,-3.8925,-4.1318,0.0,0.0,0.0,0.0,0.0,0.0,0.0,0.0,0.0,0.0,0.0,0.0,-6.3086,-6.3071,-6.3079,-6.3079,-6.3079,-6.3079,-6.3079,-6.3079,-6.3134,-6.3159,-6.3159,-6.2804,-6.2301,-6.2301,-6.2301,-6.2301,-6.2301,-6.2061,0.0,-6.2585,-6.2456,-6.1951,-6.2872,-6.2746,-6.2121,-6.2694,-6.2541,-6.2291,-6.2779,-6.3004,-6.31,-6.3919,-6.3631,-6.2872,-6.2331,-6.1947,-6.1874,-6.3031,-6.2859,-6.2676,-6.3896,-6.3937,-6.3599,-6.3159,-6.3057,-6.2956,-6.2482,-6.2381,-6.2381,-6.2381,-6.2381,-6.2381,-6.2381,-6.2381,-6.2381,-6.2381,-6.2381,-6.2381,-6.2381,-6.2381,-6.2381,-6.2381,-6.1492,-6.0336,-5.9193,-5.9369,-5.9188,-5.8486,-5.7947,-5.7524,-5.7055,-5.6265,-5.5645,-5.5179,-5.5598,-5.5777,-5.5777,-5.6166,-5.6466,-5.6735,-5.6735,-5.7094,-5.5615,-5.7137,-5.7746,-5.6461,-5.3348,-4.9526,0.0,0.0,-3.7889,-3.5081,-3.4506,-3.4506,-3.4506,-3.5127,-3.5618,0.0,-3.8134,-4.1578,-4.5771,0.0,0.0,0.0,0.0,0.0,0.0,0.0,0.0,0.0,0.0,0.0,-6.5536,-6.5561,-6.4819,-6.3173,-6.3143,-6.3143,-6.3143,-6.3143,-6.3143,-6.3143,-6.3965,-6.4117,-6.3965,-6.4229,-6.432,-6.432,-6.432,-6.4045,0.0,-6.4582,-6.457,-6.4151,-6.5071,-6.5055,-6.4414,-6.4804,-6.4705,-6.4253,-6.4402,-6.4431,-6.4583,-6.5237,-6.547,-6.526,-6.4414,-6.3779,-6.3571,-6.4443,-6.4175,-6.3833,-6.4484,-6.4613,-6.4478,-6.3971,-6.3835,-6.37,-6.3159,-6.3024,-6.3024,-6.3024,-6.3024,-6.3024,-6.3024,-6.3024,-6.3024,-6.3024,-6.3024,-6.3024,-6.3024,-6.2854,-6.2821,-6.3024,-6.2651,-6.203,-6.1235,-6.1119,-6.0787,-5.987,-5.9522,-5.8908,-5.784,-5.7492,-5.6843,-5.5748,-5.6196,-5.6436,-5.6436,-5.6885,-5.7184,-5.7393,-5.7393,-5.7752,-5.2164,-5.4025,-5.5581,-5.4803,-5.1792,-4.824,0.0,-4.1136,-3.728,-3.4979,-3.4506,-3.4506,-3.4506,-3.5115,-3.5621,-3.5618,-3.8137,-4.0113,-4.0167,0.0,0.0,0.0,0.0,0.0,0.0,0.0,0.0,0.0,0.0,0.0,-7.1243,-7.1173,-6.8737,-6.3295,-6.3067,-6.3067,-6.3067,-6.3067,-6.3067,-6.3099,-6.5892,-6.6639,-6.5758,-6.6671,-6.7164,-6.7164,-6.7164,-6.7164,0.0,-6.7164,-6.6748,-6.6209,-6.6209,-6.5792,-6.5349,-6.6635,-6.701,-6.7096,-6.7665,-6.7895,-6.776,-6.7049,-6.6812,-6.6812,-6.6728,-6.6728,-6.6728,-6.6812,-6.6271,-6.5493,-6.4783,-6.4613,-6.4613,-6.458,-6.458,-6.458,-6.458,-6.458,-6.458,-6.458,-6.458,-6.458,-6.458,-6.458,-6.458,-6.458,-6.458,-6.458,-6.458,-6.3937,-6.3768,-6.4512,-6.326,-6.2381,-6.2381,-6.2381,-6.2381,-6.2381,-6.1235,-6.0369,-5.9804,-5.8656,-5.7664,-5.7064,-5.7094,-5.7094,-5.7094,-5.7094,-5.7453,-5.8112,-5.8112,-5.8471,-4.8037,-4.9458,-5.0101,-4.8849,-4.7225,-4.5196,-4.2219,-4.002,-3.8024,-3.5723,-3.525,-3.525,-3.525,-3.5453,-3.5605,-3.5626,-3.8143,0.0,0.0,0.0,0.0,0.0,0.0,0.0,0.0,0.0,0.0,0.0,0.0,0.0,-7.1292,-7.1292,-7.0497,-6.8807,-6.8705,-6.8705,-6.8705,-6.8705,-6.8705,-6.8705,-6.9626,-6.989,-6.9459,-6.7952,-6.7164,-6.7164,-6.7164,-6.7164,-6.7266,-6.8206,-6.8471,-6.8372,-6.9301,-6.9277,-6.8611,-6.9099,-6.8887,-6.845,-6.8688,-6.8368,-6.7861,-6.7624,-6.7218,-6.6812,-6.6812,-6.6812,-6.6812,-6.6812,-6.6643,-6.6406,-6.617,-6.6102,-6.6,-6.5459,-6.5358,-6.5189,-6.4715,-6.4613,-6.4613,-6.4613,-6.4613,-6.4613,-6.4613,-6.4613,-6.4613,-6.4613,-6.4613,-6.4613,-6.4613,-6.441,-6.4343,-6.458,-6.4174,-6.3903,-6.3903,-6.3429,-6.3362,-6.3869,-6.3545,-6.2915,-6.1839,-6.1483,-6.0389,-5.8539,-5.8899,-5.8662,-5.7812,-5.8231,-5.859,-5.88,-5.88,-5.9129,0.0,-4.5635,-4.6447,-4.55,-4.4282,-4.276,-4.0595,-3.9106,-3.7686,-3.596,-3.5622,-3.5622,-3.5622,-3.5566,-3.5592,-3.5611,0.0,0.0,0.0,0.0,0.0,0.0,0.0,0.0,0.0,0.0,0.0,0.0,0.0,0.0,-7.1312,-7.1312,-7.1329,-7.1291,-7.1324,-7.1324,-7.1324,-7.1324,-7.1324,-7.1324,-7.1324,-7.1324,-7.1291,-6.9583,-6.8732,-6.8732,-6.8732,-6.8732,0.0,-6.9633,-6.9949,-7.0043,-7.1007,-7.1041,-7.0601,-7.0601,-7.0331,-6.9891,-6.962,-6.918,-6.8673,-6.8098,-6.7421,-6.6812,-6.6812,-6.6812,-6.6812,-6.6812,-6.6812,-6.6812,-6.6812,-6.6812,-6.6677,-6.6203,-6.6102,-6.6,-6.5527,-6.5425,-6.5425,-6.5425,-6.5425,-6.5425,-6.5425,-6.5425,-6.5425,-6.5425,-6.5425,-6.5425,-6.5425,-6.5189,-6.5121,-6.5392,-6.4952,-6.4816,-6.5392,-6.4512,-6.4106,-6.458,-6.4613,-6.4153,-6.3243,-6.3155,-6.236,-6.0638,-6.098,-6.0501,-5.9152,-5.9345,-5.9488,-5.9488,-5.9757,-6.0086,0.0,-4.2185,-4.3876,-4.3876,-4.232,-4.0629,-3.9952,-3.8261,0.0,-3.5791,-3.5622,-3.5577,-3.5599,-3.5609,-3.5626,-3.5627,0.0,0.0,0.0,0.0,0.0,0.0,0.0,0.0,0.0,0.0,0.0,0.0,0.0,0.0,-7.1312,-7.1312,-7.1312,-7.1312,-7.1312,-7.1312,-7.1312,-7.1312,-7.1312,-7.1312,-7.1312,-7.1312,-7.1312,-7.1312,-7.1312,0.0,-7.1312,-7.1312,-7.1312,-7.1312,-7.1312,-7.1312,-7.1312,-7.1312,-7.1312,-7.1312,-7.1312,-7.121,-7.05,-7.0229,-6.9925,-6.8402,-6.7455,-6.688,-6.6846,-6.6812,-6.6812,-6.6812,-6.6812,-6.6812,-6.6812,-6.6812,-6.6812,-6.6812,-6.6812,-6.6812,-6.6812,-6.6812,-6.6812,-6.6812,-6.6812,-6.6812,-6.6812,-6.6812,-6.6812,-6.6812,-6.6812,-6.6812,-6.6812,-6.6203,-6.6034,-6.6745,-6.5595,-6.5324,-6.6677,-6.5493,-6.4715,-6.4749,-6.4749,-6.4522,-6.4057,-6.4002,-6.376,-6.3164,-6.3132,-6.2386,-6.1082,-6.0623,-6.0256,-6.0176,-6.0805,-6.1134,-3.41,0.0,-3.6874,-3.6874,-3.6907,-3.6874,0.0,-3.6852,0.0,0.0,0.0,0.0,0.0,0.0,0.0,0.0,0.0,0.0,0.0,0.0,0.0,0.0,0.0,0.0,0.0,0.0,0.0,0.0,0.0,-7.1312,-7.1312,-7.1312,-7.1312,-7.1312,-7.1312,-7.1312,-7.1312,-7.1312,-7.1312,-7.1312,-7.1312,-7.1312,-7.1312,-7.1312,-7.1312,-7.1312,-7.1312,-7.1312,-7.1312,-7.1312,-7.1312,-7.1312,-7.1312,-7.1312,-7.1312,-7.1312,-7.1312,-7.1278,-7.1109,-7.0669,-6.9925,-6.8402,-6.7793,-6.7557,-6.6981,-6.6812,-6.6812,-6.6812,-6.6812,-6.6812,-6.6812,-6.6812,-6.6812,-6.6812,-6.6812,-6.6812,-6.6812,-6.6812,-6.6812,-6.6812,-6.6812,-6.6812,-6.6812,-6.6812,-6.6812,-6.6812,-6.6812,-6.6812,-6.6812,-6.6643,-6.6609,-6.6779,-6.6508,-6.644,-6.6779,-6.5967,-6.5662,-6.6271,-6.6305,-6.6205,-6.6085,-6.6085,-6.5567,-6.4505,-6.4093,-6.3182,-6.1826,-6.2192,-6.1842,-6.0864,-6.1044,-6.1373,-3.1799,-3.3863,-3.6062,-3.6062,-3.6603,-3.7178,-3.7178,0.0,0.0,0.0,0.0,0.0,0.0,0.0,0.0,0.0,0.0,0.0,0.0,0.0,0.0,0.0,0.0,0.0,0.0,0.0,0.0,0.0,0.0,-7.1312,-7.1312,-7.1312,-7.1312,-7.1312,-7.1312,-7.1312,-7.1312,-7.1312,-7.1312,-7.1312,-7.1312,-7.1312,-7.1312,-7.1312,-7.1312,-7.1312,-7.1312,-7.1312,-7.1312,-7.1312,-7.1312,-7.1312,-7.1312,-7.1312,-7.1312,-7.1312,-7.1312,-7.1312,-7.1312,-7.0804,-7.006,-6.9214,-6.8741,-6.8368,-6.7996,-6.7861,-6.7726,-6.7015,-6.6812,-6.6812,-6.6812,-6.6812,-6.6812,-6.6812,-6.6812,-6.6812,-6.6812,-6.6812,-6.6812,-6.6812,-6.6812,-6.6812,-6.6812,-6.6812,-6.6812,-6.6812,-6.6812,-6.6812,-6.6812,-6.6812,-6.6812,-6.6812,-6.6812,-6.6812,-6.6812,-6.644,-6.6373,-6.6779,-6.6812,-6.6812,-6.6812,-6.6812,-6.666,-6.6322,-6.539,-6.4771,-6.4377,-6.4507,-6.4163,-6.3485,-6.3067,-6.3102,-3.1732,-3.5081,-3.8261,-3.755,-3.8193,-3.8971,0.0,0.0,0.0,0.0,0.0,0.0,0.0,0.0,0.0,0.0,0.0,0.0,0.0,0.0,0.0,0.0,0.0,0.0,0.0,0.0,0.0,0.0,0.0,-7.1312,-7.1312,-7.1312,-7.1312,-7.1312,-7.1312,-7.1312,-7.1312,-7.1312,-7.1312,-7.1312,-7.1312,-7.1312,-7.1312,-7.1312,-7.1312,-7.1312,0.0,0.0,-7.1312,-7.1312,-7.1312,-7.1312,-7.1312,-7.1312,-7.1312,-7.1312,-7.1312,-7.1312,-7.1312,-7.0906,-7.0331,-7.0229,-6.9755,-6.9248,-6.9147,-6.9113,-6.8842,-6.7523,-6.7151,-6.7117,-6.688,-6.688,-6.6948,-6.6846,-6.6812,-6.6846,-6.6948,-6.6981,-6.7015,-6.7151,-6.7151,-6.7151,-6.7151,-6.7151,-6.7151,-6.7151,-6.7151,-6.7151,-6.7151,-6.7049,-6.6981,-6.6981,-6.688,-6.6846,-6.6981,-6.6981,-6.7015,-6.7151,-6.6948,-6.688,-6.6981,-6.7117,-6.7455,-6.8064,-6.7135,-6.6799,-6.7208,-6.6842,-6.657,-6.63,-6.5659,-6.5436,-3.4269,-3.7753,-3.9783,-3.596,-3.7009,-3.8836,0.0,0.0,0.0,0.0,0.0,0.0,0.0,0.0,0.0,0.0,0.0,0.0,0.0,0.0,0.0,0.0,0.0,0.0,0.0,0.0,0.0,0.0,0.0,-7.1312,-7.1312,-7.1312,-7.1312,-7.1312,-7.1312,-7.1312,-7.1312,-7.1312,-7.1312,-7.1312,-7.1312,-7.1312,-7.1312,-7.1312,-7.1312,-7.1312,0.0,-7.1312,-7.1312,-7.1312,-7.1312,-7.1312,-7.1312,-7.1312,-7.1312,-7.1312,-7.1312,-7.1312,-7.1312,-7.1244,-7.1041,-7.0398,-7.0094,-6.9891,-6.9282,-6.9113,-6.9045,-6.8808,-6.8741,-6.847,-6.7151,-6.7252,-6.7557,-6.6948,-6.6812,-6.6981,-6.759,-6.7726,-6.7929,-6.8605,-6.8741,-6.8741,-6.8741,-6.8741,-6.8741,-6.8741,-6.8741,-6.8741,-6.8741,-6.8166,-6.7726,-6.7726,-6.7184,-6.7049,-6.7692,-6.7726,-6.803,-6.8707,-6.7523,-6.7083,-6.7692,-6.8402,-6.8808,-6.891,-6.9343,-6.8985,-6.7998,-6.8499,-6.8143,-6.7004,-6.6926,-6.6855,-3.3322,-3.6569,-3.9106,-3.7855,-4.0696,0.0,0.0,0.0,0.0,0.0,0.0,0.0,0.0,0.0,0.0,0.0,0.0,0.0,0.0,0.0,0.0,0.0,0.0,0.0,0.0,0.0,0.0,0.0,0.0,0.0,-7.1312,-7.1312,-7.1312,-7.1312,-7.1312,-7.1312,-7.1312,-7.1312,-7.1312,-7.1312,-7.1312,-7.1312,-7.1312,-7.1312,-7.1312,-7.1312,0.0,-7.1312,-7.1312,-7.1312,-7.1312,-7.1312,-7.1312,-7.1312,-7.1312,-7.1312,-7.1312,-7.1312,-7.1312,-7.1312,-7.1244,-7.0906,-7.0804,-7.0737,-7.0398,-7.0297,-7.0229,-6.9823,-6.9417,-6.8944,-6.8233,-6.8301,-6.847,-6.8132,-6.8064,-6.8132,-6.847,-6.8538,-6.8673,-6.9045,-6.9113,-6.9113,-6.9113,-6.9113,-6.9113,-6.9113,-6.9113,-6.9113,-6.9113,-6.8774,-6.8538,-6.8538,-6.8267,-6.8199,-6.8504,-6.8538,-6.8707,-6.9079,-6.8436,-6.8199,-6.8538,-6.891,-6.9282,-6.9688,-7.0026,-7.0097,-6.9888,-7.0189,-7.0043,-6.9442,-6.8601,-6.8306,-3.2949,-3.569,-3.8599,0.0,0.0,0.0,0.0,0.0,0.0,0.0,0.0,0.0,0.0,0.0,0.0,0.0,0.0,0.0,0.0,0.0,0.0,0.0,0.0,0.0,0.0,0.0,0.0,0.0,0.0,0.0,-7.1312,-7.1312,-7.1312,-7.1312,-7.1312,-7.1312,-7.1312,-7.1312,-7.1312,-7.1312,-7.1312,-7.1312,-7.1312,-7.1312,-7.1312,-7.1312,-7.1312,-7.1312,-7.1312,-7.1312,-7.1312,-7.1312,-7.1312,-7.1312,-7.1312,-7.1312,-7.1312,-7.1312,-7.1312,-7.1312,-7.1312,-7.1312,-7.1312,-7.1312,-7.1312,-7.1312,-7.121,-7.0635,-7.006,-6.9553,-6.918,-6.9214,-6.9316,-6.9147,-6.9113,-6.9147,-6.9316,-6.935,-6.9417,-6.9586,-6.962,-6.962,-6.962,-6.962,-6.962,-6.962,-6.962,-6.962,-6.962,-6.9451,-6.935,-6.935,-6.9214,-6.918,-6.935,-6.9519,-6.962,-6.962,-6.9451,-6.935,-6.935,-6.9519,-6.9891,-7.0432,-7.0466,-7.0737,-7.1312,-7.1312,-7.1312,-7.1312,-7.017,-6.9727,-3.5487,-3.7652,-3.9614,0.0,0.0,0.0,0.0,0.0,0.0,0.0,0.0,0.0,0.0,0.0,0.0,0.0,0.0,0.0,0.0,0.0,0.0,0.0,0.0,0.0,0.0,0.0,0.0,0.0,0.0,0.0,-7.1312,-7.1312,-7.1312,-7.1312,-7.1312,-7.1312,-7.1312,-7.1312,-7.1312,-7.1312,-7.1312,-7.1312,-7.1312,-7.1312,-7.1312,-7.1312,-7.1312,-7.1312,-7.1312,-7.1312,-7.1312,-7.1312,-7.1312,-7.1312,-7.1312,-7.1312,-7.1312,-7.1312,-7.1312,-7.1312,-7.1312,-7.1312,-7.1312,-7.1312,-7.1312,-7.1312,-7.1312,-7.1244,-7.121,-7.0838,-6.9451,-6.962,-6.9925,-6.9248,-6.9113,-6.9282,-6.9958,-7.0094,-7.0331,-7.1007,-7.1142,-7.1142,-7.1142,-7.1142,-7.1142,-7.1142,-7.1142,-7.1142,-7.1142,-7.0534,-7.0094,-7.0094,-6.9519,-6.9383,-7.006,-7.077,-7.1142,-7.1142,-7.05,-7.0094,-7.0094,-7.077,-7.1176,-7.1244,-7.1244,-7.1278,-7.1312,-7.1312,-7.1312,-7.1312,-7.1222,-7.1098,-3.4032,-3.7144,-4.029,0.0,0.0,0.0,0.0,0.0,0.0,0.0,0.0,0.0,0.0,0.0,0.0,0.0,0.0,0.0,0.0,0.0,0.0,0.0,0.0,0.0,0.0,0.0,0.0,0.0,0.0,0.0,-7.1312,-7.1312,-7.1312,-7.1312,-7.1312,-7.1312,-7.1312,-7.1312,-7.1312,-7.1312,-7.1312,-7.1312,-7.1312,-7.1312,-7.1312,-7.1312,-7.1312,-7.1312,-7.1312,-7.1312,-7.1312,-7.1312,-7.1312,-7.1312,-7.1312,-7.1312,-7.1312,-7.1312,-7.1312,-7.1312,-7.1312,-7.1312,-7.1312,-7.1312,-7.1312,-7.1312,-7.1312,-7.1312,-7.1312,-7.1176,-7.0635,-7.0669,-7.0804,-7.0534,-7.0466,-7.0534,-7.0838,-7.0872,-7.0973,-7.1278,-7.1312,-7.1312,-7.1312,-7.1312,-7.1312,-7.1312,-7.1312,-7.1312,-7.1312,-7.1075,-7.0872,-7.0872,-7.0635,-7.0601,-7.0872,-7.1142,-7.1312,-7.1312,-7.1041,-7.0872,-7.0872,-7.1176,-7.1312,-7.1312,-7.1312,-7.1312,-7.1312,-7.1312,-7.1312,-7.1312,-7.1312,-7.1312,-3.4134,-3.7415,-4.1068,0.0,0.0,0.0,0.0,0.0,0.0,0.0,0.0,0.0,0.0,0.0,0.0,0.0,0.0,0.0,0.0,0.0,0.0,0.0,0.0,0.0,0.0,0.0,0.0,0.0,0.0,0.0,0.0,-7.1312,-7.1312,-7.1312,-7.1312,-7.1312,-7.1312,-7.1312,-7.1312,-7.1312,-7.1312,-7.1312,-7.1312,-7.1312,-7.1312,-7.1312,-7.1312,-7.1312,-7.1312,-7.1312,-7.1312,-7.1312,-7.1312,-7.1312,-7.1312,-7.1312,-7.1312,-7.1312,-7.1312,-7.1312,-7.1312,-7.1312,-7.1312,-7.1312,-7.1312,-7.1312,-7.1312,-7.1312,-7.1312,-7.1312,-7.1312,-7.1312,-7.1312,-7.1312,-7.1312,-7.1312,-7.1312,-7.1312,-7.1312,-7.1312,-7.1312,-7.1312,-7.1312,-7.1312,-7.1312,-7.1312,-7.1312,-7.1312,-7.1312,-7.1312,-7.1312,-7.1312,-7.1312,-7.1312,-7.1312,-7.1312,-7.1312,-7.1312,-7.1312,-7.1312,-7.1312,-7.1312,-7.1312,-7.1312,-7.1312,-7.1312,-7.1312,-7.1312,-7.1312,-7.1312,-7.1312,-7.1312,-3.6569,-3.8937,0.0,0.0,0.0,0.0,0.0,0.0,0.0,0.0,0.0,0.0,0.0,0.0,0.0,0.0,0.0,0.0,0.0,0.0,0.0,0.0,0.0,0.0,0.0,0.0,0.0,0.0,0.0,0.0,0.0,-7.1312,-7.1312,-7.1312,-7.1312,-7.1312,-7.1312,-7.1312,-7.1312,-7.1312,-7.1312,-7.1312,-7.1312,-7.1312,-7.1312,-7.1312,-7.1312,-7.1312,-7.1312,-7.1312,-7.1312,-7.1312,-7.1312,-7.1312,-7.1312,-7.1312,-7.1312,-7.1312,-7.1312,-7.1312,-7.1312,-7.1312,-7.1312,-7.1312,-7.1312,-7.1312,-7.1312,-7.1312,-7.1312,-7.1312,-7.1312,-7.1312,-7.1312,-7.1312,-7.1312,-7.1312,-7.1312,-7.1312,-7.1312,-7.1312,-7.1312,-7.1312,-7.1312,-7.1312,-7.1312,-7.1312,-7.1312,-7.1312,-7.1312,-7.1312,-7.1312,-7.1312,-7.1312,-7.1312,-7.1312,-7.1312,-7.1312,-7.1312,-7.1312,-7.1312,-7.1312,-7.1312,-7.1312,-7.1312,-7.1312,-7.1312,-7.1312,-7.1312,-7.1312,-7.1312,-7.1312,-7.1312,-3.5385,0.0,0.0,0.0,0.0,0.0,0.0,0.0,0.0,0.0,0.0,0.0,0.0,0.0,0.0,0.0,0.0,0.0,0.0,0.0,0.0,0.0,0.0,0.0,0.0,0.0,0.0,0.0,0.0,0.0,0.0,-7.1312,-7.1312,-7.1312,-7.1312,-7.1312,-7.1312,-7.1312,-7.1312,-7.1312,-7.1312,-7.1312,-7.1312,-7.1312,-7.1312,-7.1312,-7.1312,-7.1312,-7.1312,-7.1312,-7.1312,-7.1312,-7.1312,-7.1312,-7.1312,-7.1312,-7.1312,-7.1312,-7.1312,-7.1312,-7.1312,-7.1312,-7.1312,-7.1312,-7.1312,-7.1312,-7.1312,-7.1312,-7.1312,-7.1312,-7.1312,-7.1312,-7.1312,-7.1312,-7.1312,-7.1312,-7.1312,-7.1312,-7.1312,-7.1312,-7.1312,-7.1312,-7.1312,-7.1312,-7.1312,-7.1312,-7.1312,-7.1312,-7.1312,-7.1312,-7.1312,-7.1312,-7.1312,-7.1312,-7.1312,-7.1312,-7.1312,-7.1312,-7.1312,-7.1312,-7.1312,-7.1312,-7.1312,-7.1312,-7.1312,-7.1312,-7.1312,-7.1312,-7.1312,-7.1312,-7.1312,-7.1312,0.0,0.0,0.0,0.0,0.0,0.0,0.0,0.0,0.0,0.0,0.0,0.0,0.0,0.0,0.0,0.0,0.0,0.0,0.0,0.0,0.0,0.0,0.0,0.0,0.0,0.0,0.0,0.0,0.0,0.0,0.0,-7.1312,-7.1312,-7.1312,-7.1312,-7.1312,-7.1312,-7.1312,-7.1312,-7.1312,-7.1312,-7.1312,-7.1312,-7.1312,-7.1312,-7.1312,-7.1312,-7.1312,-7.1312,-7.1312,-7.1312,-7.1312,-7.1312,-7.1312,-7.1312,-7.1312,-7.1312,-7.1312,-7.1312,-7.1312,-7.1312,-7.1312,-7.1312,-7.1312,-7.1312,-7.1312,-7.1312,-7.1312,-7.1312,-7.1312,-7.1312,-7.1312,-7.1312,-7.1312,-7.1312,-7.1312,-7.1312,-7.1312,-7.1312,-7.1312,-7.1312,-7.1312,-7.1312,-7.1312,-7.1312,-7.1312,-7.1312,-7.1312,-7.1312,-7.1312,-7.1312,-7.1312,-7.1312,-7.1312,-7.1312,-7.1312,-7.1312,-7.1312,-7.1312,-7.1312,-7.1312,-7.1312,-7.1312,-7.1312,-7.1312,-7.1312,-7.1312,-7.1312,-7.1312,-7.1312,-7.1312,-7.1312,0.0,0.0,0.0,0.0,0.0,0.0,0.0,0.0,0.0,0.0,0.0,0.0,0.0,0.0,0.0,0.0,0.0,0.0,0.0,0.0,0.0,0.0,0.0,0.0,0.0,0.0,0.0,0.0,0.0,0.0,0.0,-7.1312,-7.1312,-7.1312,-7.1312,-7.1312,-7.1312,-7.1312,-7.1312,-7.1312,-7.1312,-7.1312,-7.1312,-7.1312,-7.1312,-7.1312,-7.1312,-7.1312,-7.1312,-7.1312,-7.1312,-7.1312,-7.1312,-7.1312,-7.1312,-7.1312,-7.1312,-7.1312,-7.1312,-7.1312,-7.1312,-7.1312,-7.1312,-7.1312,-7.1312,-7.1312,-7.1312,-7.1312,-7.1312,-7.1312,-7.1312,-7.1312,-7.1312,-7.1312,-7.1312,-7.1312,-7.1312,-7.1312,-7.1312,-7.1312,-7.1312,-7.1312,-7.1312,-7.1312,-7.1312,-7.1312,-7.1312,-7.1312,-7.1312,-7.1312,-7.1312,-7.1312,-7.1312,-7.1312,-7.1312,-7.1312,-7.1312,-7.1312,-7.1312,-7.1312,-7.1312,-7.1312,-7.1312,-7.1312,-7.1312,-7.1312,-7.1312,-7.1312,-7.1312,-7.1312,-7.1312,-7.1312,0.0,0.0,0.0,0.0,0.0,0.0,0.0,0.0,0.0,0.0,0.0,0.0,0.0,0.0,0.0,0.0,0.0,0.0,0.0,0.0,0.0,0.0,0.0,0.0,0.0,0.0,0.0,0.0,0.0,0.0,-7.1312,-7.1312,-7.1312,-7.1312,-7.1312,-7.1312,-7.1312,-7.1312,-7.1312,-7.1312,-7.1312,-7.1312,-7.1312,-7.1312,-7.1312,-7.1312,-7.1312,-7.1312,-7.1312,-7.1312,-7.1312,-7.1312,-7.1312,-7.1312,-7.1312,-7.1312,-7.1312,-7.1312,-7.1312,-7.1312,-7.1312,-7.1312,-7.1312,-7.1312,-7.1312,-7.1312,-7.1312,-7.1312,-7.1312,-7.1312,-7.1312,-7.1312,-7.1312,-7.1312,-7.1312,-7.1312,-7.1312,-7.1312,-7.1312,-7.1312,-7.1312,-7.1312,-7.1312,-7.1312,-7.1312,-7.1312,-7.1312,-7.1312,-7.1312,-7.1312,-7.1312,-7.1312,-7.1312,-7.1312,-7.1312,-7.1312,-7.1312,-7.1312,-7.1312,-7.1312,-7.1312,-7.1312,-7.1312,-7.1312,-7.1312,-7.1312,-7.1312,-7.1312,-7.1312,-7.1312,-7.1312,-7.1312,0.0,0.0,0.0,0.0,0.0,0.0,0.0,0.0,0.0,0.0,0.0,0.0,0.0,0.0,0.0,0.0,0.0,0.0,0.0,0.0,0.0,0.0,0.0,0.0,0.0,0.0,0.0,0.0,0.0,-7.1312,-7.1312,-7.1312,-7.1312,-7.1312,-7.1312,-7.1312,-7.1312,-7.1312,-7.1312,-7.1312,-7.1312,-7.1312,-7.1312,-7.1312,-7.1312,-7.1312,-7.1312,-7.1312,-7.1312,-7.1312,-7.1312,-7.1312,-7.1312,-7.1312,-7.1312,-7.1312,-7.1312,-7.1312,-7.1312,-7.1312,-7.1312,-7.1312,-7.1312,-7.1312,-7.1312,-7.1312,-7.1312,-7.1312,-7.1312,-7.1312,-7.1312,-7.1312,-7.1312,-7.1312,-7.1312,-7.1312,-7.1312,-7.1312,-7.1312,-7.1312,-7.1312,-7.1312,-7.1312,-7.1312,-7.1312,-7.1312,-7.1312,-7.1312,-7.1312,-7.1312,-7.1312,-7.1312,-7.1312,-7.1312,-7.1312,-7.1312,-7.1312,-7.1312,-7.1312,-7.1312,-7.1312,-7.1312,-7.1312,-7.1312,-7.1312,-7.1312,-7.1312,-7.1312,-7.1312,-7.1312,-7.1312,-7.1312,0.0,0.0,0.0,0.0,0.0,0.0,0.0,0.0,0.0,0.0,0.0,0.0,0.0,0.0,0.0,0.0,0.0,0.0,0.0,0.0,0.0,0.0,0.0,0.0,0.0,0.0,0.0,0.0,0.0,-7.1736,-7.1804,-7.1844,-7.162,-7.1342,-7.1342,-7.1321,-7.1312,-7.1312,-7.1334,-7.1342,-7.126,-7.128,-7.128,-7.1274,-7.1355,-7.1312,-7.1312,-7.1312,-7.1312,-7.1312,-7.1312,-7.1312,-7.1312,-7.1312,-7.1312,-7.1312,-7.1312,-7.1312,-7.1312,-7.1312,-7.1312,-7.1312,-7.1312,-7.1312,-7.1312,-7.1312,-7.1312,-7.1312,-7.1312,-7.1312,-7.1312,-7.1312,-7.1312,-7.1312,-7.1312,-7.1312,-7.1312,-7.1312,-7.1312,-7.1312,-7.1312,-7.1312,-7.1312,-7.1312,-7.1312,-7.1312,-7.1312,-7.1312,-7.1312,-7.1312,-7.1312,-7.1312,-7.1312,-7.1312,-7.1312,-7.1312,-7.1312,-7.1312,-7.1312,-7.1312,-7.1312,-7.1312,-7.1312,-7.1312,-7.1312,-7.1312,-7.1312,-7.1312,-7.1312,-7.1312,-7.1312,-7.1312,0.0,0.0,0.0,0.0,0.0,0.0,0.0,0.0,0.0,0.0,0.0,0.0,0.0,0.0,0.0,0.0,0.0,0.0,0.0,0.0,0.0,0.0,0.0,0.0,0.0,0.0,0.0,0.0,-7.234,-7.3268,-7.392,-7.3877,-7.3098,-7.1331,-7.1297,-7.1285,-7.1312,-7.1312,-7.126,-7.1297,-7.127,-7.1315,-7.1315,-7.1283,-7.1319,-7.1312,-7.1312,-7.1312,-7.1312,-7.1312,-7.1312,-7.1312,-7.1312,-7.1312,-7.1312,-7.1312,-7.1312,-7.1312,-7.1312,-7.1312,-7.1312,-7.1312,-7.1312,-7.1312,-7.1312,-7.1312,-7.1312,-7.1312,-7.1312,-7.1312,-7.1312,-7.1312,-7.1312,-7.1312,-7.1312,-7.1312,-7.1312,-7.1312,-7.1312,-7.1312,-7.1312,-7.1312,-7.1312,-7.1312,-7.1312,-7.1312,-7.1312,-7.1312,-7.1312,-7.1312,-7.1312,-7.1312,-7.1312,-7.1312,-7.1312,-7.1312,-7.1312,-7.1312,-7.1312,-7.1312,-7.1312,-7.1312,-7.1312,-7.1312,-7.1312,-7.1312,-7.1312,-7.1312,-7.1312,-7.1312,-7.1312,-7.1312,0.0,0.0,0.0,0.0,0.0,0.0,0.0,0.0,0.0,0.0,0.0,0.0,0.0,0.0,0.0,0.0,0.0,0.0,0.0,0.0,0.0,0.0,0.0,0.0,0.0,0.0,0.0,0.0,-7.2668,-7.3772,-7.4773,-7.559,-7.5626,-7.4694,-7.358,-7.245,-7.1317,-7.1317,-7.2418,-7.4694,-7.4653,-7.4704,-7.4629,-7.4675,-7.345,-7.1354,-7.1253,-7.1312,-7.1312,-7.1312,-7.1312,-7.1312,-7.1312,-7.1312,-7.1312,-7.1312,-7.1312,-7.1312,-7.1312,-7.1312,-7.1312,-7.1312,-7.1312,-7.1312,-7.1312,-7.1312,-7.1312,-7.1312,-7.1312,-7.1312,-7.1312,-7.1312,-7.1312,-7.1312,-7.1312,-7.1312,-7.1312,-7.1312,-7.1312,-7.1312,-7.1312,-7.1312,-7.1312,-7.1312,-7.1312,-7.1312,-7.1312,-7.1312,-7.1312,-7.1312,-7.1312,-7.1312,-7.1312,-7.1312,-7.1312,-7.1312,-7.1312,-7.1312,-7.1312,-7.1312,-7.1312,-7.1312,-7.1312,-7.1312,-7.1312,-7.1312,-7.1312,-7.1312,-7.1312,-7.1312,-7.1312,-7.1312,0.0,0.0,0.0,0.0,0.0,0.0,0.0,0.0,0.0,0.0,0.0,0.0,0.0,0.0,0.0,0.0,0.0,0.0,0.0,0.0,0.0,0.0,0.0,0.0,0.0,0.0,0.0,0.0,-7.2797,-7.3867,-7.5046,-7.6266,-7.7128,-7.7303,-7.5867,-7.4358,-7.2806,-7.282,-7.4325,-7.7303,-7.7343,-7.7308,-7.7308,-7.7305,-7.5672,-7.2818,-7.1744,-7.1302,-7.1336,-7.1314,-7.1294,-7.1328,-7.13,-7.1312,-7.1312,-7.1312,-7.1312,-7.1312,-7.1312,-7.1312,-7.1312,-7.1312,-7.1312,-7.1312,-7.1312,-7.1312,-7.1312,-7.1312,-7.1312,-7.1312,-7.1312,-7.1312,-7.1312,-7.1312,-7.1312,-7.1401,-7.16,-7.1688,-7.1776,-7.1969,-7.2056,-7.2004,-7.1776,-7.1688,-7.16,-7.1312,-7.1312,-7.1312,-7.1312,-7.1312,-7.1312,-7.1312,-7.1312,-7.1312,-7.1312,-7.1312,-7.1312,-7.1312,-7.1312,-7.1312,-7.1312,-7.1312,-7.1312,-7.1312,-7.1312,-7.1312,-7.1312,-7.1312,-7.1312,-7.1312,-7.1312,-7.1312,0.0,0.0,0.0,0.0,0.0,0.0,0.0,0.0,0.0,0.0,0.0,0.0,0.0,0.0,0.0,0.0,0.0,0.0,0.0,0.0,0.0,0.0,0.0,0.0,0.0,0.0,0.0,0.0,-7.2911,-7.3807,-7.46,-7.5607,-7.6501,-7.7293,-7.7188,-7.7127,-7.7001,-7.6984,-7.7116,-7.7261,-7.7304,-7.7291,-7.7327,-7.731,-7.7225,-7.6797,-7.2965,-7.1336,-7.1329,-7.1261,-7.1277,-7.1297,-7.1328,-7.1312,-7.1312,-7.1312,-7.1312,-7.1312,-7.1312,-7.1312,-7.1312,-7.1312,-7.1312,-7.1312,-7.1312,-7.1312,-7.1312,-7.1312,-7.1312,-7.1312,-7.1312,-7.1312,-7.1312,-7.1312,-7.1312,-7.1546,-7.2498,-7.2714,-7.3044,-7.3928,-7.4158,-7.385,-7.288,-7.2714,-7.2448,-7.1457,-7.1312,-7.1312,-7.1312,-7.1312,-7.1312,-7.1312,-7.1312,-7.1312,-7.1312,-7.1312,-7.1312,-7.1312,-7.1312,-7.1312,-7.1312,-7.1312,-7.1312,-7.1312,-7.1312,-7.1312,-7.1312,-7.1312,-7.1312,-7.1312,-7.1312,-7.1312,0.0,0.0,0.0,0.0,0.0,0.0,0.0,0.0,0.0,0.0,0.0,0.0,0.0,0.0,0.0,0.0,0.0,0.0,0.0,0.0,0.0,0.0,0.0,0.0,0.0,0.0,0.0,0.0,0.0,-7.3727,-7.4019,-7.5324,-7.6228,-7.6527,-7.7039,-7.7312,-7.7341,-7.7312,-7.7331,-7.7331,-7.7327,-7.7304,-7.7341,-7.7285,-7.7331,-7.7194,-7.5756,-7.5152,-7.513,-7.5183,-7.3589,-7.1299,-7.1295,-7.1291,-7.1268,-7.1268,-7.1333,-7.1312,-7.1312,-7.1312,-7.1312,-7.1312,-7.1312,-7.1312,-7.1312,-7.1312,-7.1312,-7.1312,-7.1742,-7.2279,-7.2279,-7.2749,-7.3206,-7.3206,-7.3206,-7.3492,-7.4535,-7.3694,-7.3125,-7.4082,-7.431,-7.4158,-7.3772,-7.3772,-7.365,-7.3252,-7.3206,-7.3206,-7.3206,-7.3206,-7.3206,-7.3206,-7.3206,-7.3206,-7.3206,-7.3206,-7.3206,-7.3206,-7.3206,-7.3206,-7.3206,-7.3206,-7.288,-7.2279,-7.288,-7.2582,-7.1312,-7.1312,-7.1312,-7.1312,-7.1312,-7.1312,0.0,0.0,0.0,0.0,0.0,0.0,0.0,0.0,0.0,0.0,0.0,0.0,0.0,0.0,0.0,0.0,0.0,0.0,0.0,0.0,0.0,0.0,0.0,0.0,0.0,0.0,0.0,0.0,0.0,0.0,-7.367,-7.4955,-7.5946,-7.6497,-7.7047,-7.7304,-7.7304,-7.7304,-7.7304,-7.7304,-7.7304,-7.7304,-7.7304,-7.7304,-7.7304,-7.7304,-7.7304,-7.7283,-7.7271,-7.7343,-7.5762,-7.3328,-7.3315,-7.3315,-7.3182,-7.1814,-7.125,-7.1314,-7.13,-7.1546,-7.1776,-7.1367,-7.1546,-7.183,-7.183,-7.183,-7.1917,-7.2228,-7.2832,-7.3332,-7.3332,-7.3807,-7.431,-7.431,-7.431,-7.4535,-7.558,-7.4757,-7.4082,-7.512,-7.5299,-7.5227,-7.483,-7.483,-7.4684,-7.431,-7.431,-7.431,-7.431,-7.431,-7.431,-7.431,-7.431,-7.431,-7.431,-7.431,-7.431,-7.431,-7.431,-7.431,-7.431,-7.431,-7.4005,-7.3332,-7.3928,-7.3791,-7.2742,-7.2106,-7.16,-7.1312,-7.1312,-7.1312,0.0,0.0,0.0,0.0,0.0,0.0,0.0,0.0,0.0,0.0,0.0,0.0,0.0,0.0,0.0,0.0,0.0,0.0,0.0,0.0,0.0,0.0,0.0,0.0,0.0,0.0,0.0,0.0,-7.2496,-7.2826,-7.3597,-7.4441,-7.5652,-7.7231,-7.7304,-7.7304,-7.7304,-7.7304,-7.7304,-7.7304,-7.7304,-7.7304,-7.7304,-7.7304,-7.7304,-7.7304,-7.7304,-7.7304,-7.7316,-7.7304,-7.7326,-7.733,-7.7305,-7.729,-7.6854,-7.2927,-7.1408,-7.1311,-7.1382,-7.2056,-7.2631,-7.1688,-7.2056,-7.2797,-7.288,-7.288,-7.3044,-7.4005,-7.431,-7.431,-7.4385,-7.4385,-7.4385,-7.4385,-7.4385,-7.4684,-7.5649,-7.5855,-7.6094,-7.7082,-7.7304,-7.7019,-7.6027,-7.5855,-7.551,-7.4535,-7.4385,-7.4385,-7.4385,-7.4385,-7.4385,-7.4385,-7.4385,-7.4385,-7.4385,-7.4385,-7.4385,-7.4385,-7.4385,-7.4385,-7.4385,-7.4385,-7.4385,-7.431,-7.4385,-7.4775,-7.5519,-7.3717,-7.2398,-7.1435,-7.1435,-7.1435,-3.3495,0.0,0.0,0.0,0.0,0.0,0.0,0.0,0.0,0.0,0.0,0.0,0.0,0.0,0.0,0.0,0.0,0.0,0.0,0.0,0.0,0.0,0.0,0.0,0.0,0.0,0.0,0.0,-7.2496,-7.2606,-7.2826,-7.4147,-7.5395,-7.6423,-7.7011,-7.7304,-7.7304,-7.7304,-7.7304,-7.7304,-7.7304,-7.7304,-7.7304,-7.7304,-7.7304,-7.7304,-7.7304,-7.7304,-7.7279,-7.7275,-7.7285,-7.7322,-7.7312,-7.7285,-7.7162,-7.6016,-7.3783,-7.1455,-7.239,-7.2897,-7.3202,-7.3352,-7.3291,-7.328,-7.3744,-7.4209,-7.4611,-7.4376,-7.483,-7.558,-7.6264,-7.6498,-7.6498,-7.6498,-7.6498,-7.6563,-7.6793,-7.6893,-7.6956,-7.7243,-7.7304,-7.7181,-7.6956,-7.6893,-7.6793,-7.6498,-7.6498,-7.6498,-7.6498,-7.6498,-7.6498,-7.6498,-7.6498,-7.6498,-7.6498,-7.6498,-7.6498,-7.6498,-7.6498,-7.6498,-7.6498,-7.6498,-7.613,-7.544,-7.613,-7.6115,-7.5519,-7.5035,-7.4897,-7.5218,-7.5218,-7.5218,0.0,0.0,0.0,0.0,0.0,0.0,0.0,0.0,0.0,0.0,0.0,0.0,0.0,0.0,0.0,0.0,0.0,0.0,0.0,0.0,0.0,0.0,0.0,0.0,0.0,-7.1725,-7.2165,-7.2459,-7.2496,-7.2642,-7.2973,-7.3978,-7.5005,-7.6056,-7.69,-7.7304,-7.7304,-7.7304,-7.7304,-7.7304,-7.7304,-7.7304,-7.7304,-7.7304,-7.7304,-7.7304,-7.7304,-7.7304,-7.7304,-7.7304,-7.7304,-7.7304,-7.7304,-7.7312,-7.7262,-7.7321,-7.5834,-7.3794,-7.3744,-7.3677,-7.3794,-7.4173,-7.4645,-7.4939,-7.4796,-7.4975,-7.5334,-7.5512,-7.5959,-7.6563,-7.7181,-7.7304,-7.7304,-7.7304,-7.7304,-7.7304,-7.7304,-7.7304,-7.7304,-7.7304,-7.7304,-7.7304,-7.7304,-7.7304,-7.7304,-7.7304,-7.7304,-7.7304,-7.7304,-7.7304,-7.7304,-7.7304,-7.7304,-7.7304,-7.7304,-7.7304,-7.7304,-7.7304,-7.7304,-7.7304,-7.7304,-7.7671,-7.7568,-7.7007,-7.7861,-7.8151,-7.7775,-7.6696,-7.6289,-7.6689,-7.6689,-7.6689,0.0,-4.0785,0.0,0.0,0.0,0.0,-4.7572,-4.6801,0.0,0.0,0.0,0.0,0.0,0.0,0.0,0.0,0.0,0.0,0.0,0.0,0.0,0.0,0.0,0.0,-7.0954,-7.1211,-7.1615,-7.2422,-7.2496,-7.2826,-7.3523,-7.3795,-7.4565,-7.5909,-7.6827,-7.7304,-7.7304,-7.7304,-7.7304,-7.7304,-7.7304,-7.7304,-7.7304,-7.7304,-7.7304,-7.7304,-7.7304,-7.7304,-7.7304,-7.7304,-7.7304,-7.7304,-7.7304,-7.7304,-7.7254,-7.7334,-7.7285,-7.704,-7.5262,-7.4655,-7.464,-7.4617,-7.5872,-7.7103,-7.5887,-7.5494,-7.5768,-7.6946,-7.7304,-7.7304,-7.7304,-7.7304,-7.7304,-7.7304,-7.7304,-7.7304,-7.7304,-7.7304,-7.7304,-7.7304,-7.7304,-7.7304,-7.7304,-7.7304,-7.7304,-7.7304,-7.7304,-7.7304,-7.7304,-7.7304,-7.7304,-7.7304,-7.7304,-7.7304,-7.7304,-7.7304,-7.7304,-7.7304,-7.7304,-7.7304,-7.7304,-7.8148,-7.8589,-7.8589,-7.947,-8.0277,-8.1012,-7.8686,-7.7487,-7.7322,-7.7322,-7.7322,-4.543,-4.6428,-4.7462,-4.5443,0.0,0.0,-4.4342,-4.5223,0.0,0.0,0.0,0.0,0.0,0.0,0.0,0.0,0.0,0.0,0.0,0.0,0.0,0.0,0.0,0.0,-6.9559,-7.0459,-7.1377,-7.2426,-7.2516,-7.2569,-7.2716,-7.2805,-7.3516,-7.5102,-7.652,-7.7292,-7.7304,-7.7304,-7.7304,-7.7304,-7.7304,-7.7304,-7.7304,-7.7304,-7.7304,-7.7304,-7.7304,-7.7304,-7.7304,-7.7304,-7.7304,-7.7304,-7.7304,-7.7304,-7.7279,-7.7302,-7.7275,-7.7239,-7.6866,-7.6683,-7.6737,-7.672,-7.7002,-7.7239,-7.7019,-7.6946,-7.6946,-7.7243,-7.7304,-7.7304,-7.7304,-7.7304,-7.7304,-7.7304,-7.7304,-7.7304,-7.7304,-7.7304,-7.7304,-7.7304,-7.7304,-7.7304,-7.7304,-7.7304,-7.7304,-7.7304,-7.7304,-7.7304,-7.7304,-7.7304,-7.7304,-7.7304,-7.7304,-7.7304,-7.7304,-7.7304,-7.7304,-7.7304,-7.7304,-7.7304,-7.7304,-7.8148,-7.8589,-7.8589,-8.0021,-8.0828,-8.1012,-8.1139,-8.116,-8.1136,-8.1136,-8.1136,-4.9784,-5.0021,-5.0508,-4.926,0.0,0.0,0.0,-4.559,-4.5883,0.0,0.0,0.0,0.0,0.0,0.0,0.0,0.0,0.0,0.0,0.0,0.0,0.0,0.0,0.0,-6.8456,-6.899,-7.022,-7.2299,-7.25,-7.248,-7.248,-7.2511,-7.2856,-7.3685,-7.6043,-7.7316,-7.7292,-7.7304,-7.7304,-7.7304,-7.7304,-7.7304,-7.7304,-7.7304,-7.7304,-7.7304,-7.7304,-7.7304,-7.7304,-7.7304,-7.7304,-7.7304,-7.7304,-7.7304,-7.7304,-7.7304,-7.7304,-7.7304,-7.7304,-7.7304,-7.7304,-7.7304,-7.7304,-7.7304,-7.7304,-7.7304,-7.7304,-7.7304,-7.7304,-7.7304,-7.7304,-7.7304,-7.7304,-7.7304,-7.7304,-7.7304,-7.7304,-7.7304,-7.7304,-7.7304,-7.7304,-7.7304,-7.7304,-7.7304,-7.7304,-7.7304,-7.7304,-7.7304,-7.7304,-7.7304,-7.7304,-7.7304,-7.7304,-7.7304,-7.7304,-7.7304,-7.7304,-7.7304,-7.7304,-7.7304,-7.7304,-7.8516,-7.958,-8.0388,-8.1195,-8.1599,-8.1599,-8.2003,-8.2186,-8.2186,-8.2186,-8.2186,0.0,0.0,0.0,0.0,0.0,-5.0141,0.0,0.0,0.0,-4.8343,0.0,0.0,0.0,0.0,0.0,0.0,0.0,0.0,0.0,0.0,0.0,0.0,0.0,0.0,-6.7568,-6.77,-6.8767,-7.1361,-7.1582,-7.1857,-7.2483,-7.2496,-7.249,-7.2526,-7.4992,-7.6691,-7.7279,-7.7292,-7.7304,-7.7304,-7.7304,-7.7304,-7.7304,-7.7304,-7.7304,-7.7304,-7.7304,-7.7304,-7.7304,-7.7304,-7.7304,-7.7304,-7.7304,-7.7304,-7.7304,-7.7304,-7.7304,-7.7304,-7.7304,-7.7304,-7.7304,-7.7304,-7.7304,-7.7304,-7.7304,-7.7304,-7.7304,-7.7304,-7.7304,-7.7304,-7.7304,-7.7304,-7.7304,-7.7304,-7.7304,-7.7304,-7.7304,-7.7304,-7.7304,-7.7304,-7.7304,-7.7304,-7.7304,-7.7304,-7.7304,-7.7304,-7.7304,-7.7304,-7.7304,-7.7304,-7.7304,-7.7304,-7.7304,-7.7304,-7.7304,-7.7304,-7.7304,-7.7304,-7.7304,-7.7414,-7.7561,-7.914,-8.0718,-8.215,-8.2186,-8.2186,-8.2186,-8.2186,-8.2186,-8.2186,-8.2186,-8.2186,0.0,0.0,0.0,0.0,-5.506,0.0,0.0,0.0,-4.9297,-4.6801,0.0,0.0,0.0,0.0,0.0,0.0,0.0,0.0,0.0,0.0,0.0,0.0,0.0,0.0,0.0,-6.7704,-6.7825,-6.8215,-6.8262,-6.9532,-7.2374,-7.252,-7.2459,-7.2526,-7.2856,-7.4441,-7.7242,-7.7279,-7.7292,-7.7304,-7.7304,-7.7304,-7.7304,-7.7304,-7.7304,-7.7304,-7.7304,-7.7304,-7.7304,-7.7304,-7.7304,-7.7304,-7.7304,-7.7304,-7.7304,-7.7304,-7.7304,-7.7304,-7.7304,-7.7304,-7.7304,-7.7304,-7.7304,-7.7304,-7.7304,-7.7304,-7.7304,-7.7304,-7.7304,-7.7304,-7.7304,-7.7304,-7.7304,-7.7304,-7.7304,-7.7304,-7.7304,-7.7304,-7.7304,-7.7304,-7.7304,-7.7304,-7.7304,-7.7304,-7.7304,-7.7304,-7.7304,-7.7304,-7.7304,-7.7304,-7.7304,-7.7304,-7.7304,-7.7304,-7.7304,-7.7304,-7.7304,-7.7304,-7.7304,-7.7671,-7.8405,-8.0021,-8.1305,-8.2186,-8.2186,-8.2186,-8.2186,-8.2186,-8.2186,-8.2186,-8.2186,-8.2186,0.0,0.0,0.0,0.0,0.0,0.0,-5.0618,0.0,-4.8673,0.0,0.0,0.0,0.0,0.0,0.0,0.0,0.0,0.0,0.0,0.0,0.0,0.0,0.0,0.0,0.0,0.0,0.0,0.0,-6.0638,-6.6294,-6.9556,-7.1508,-7.252,-7.2496,-7.2511,-7.3149,-7.4505,-7.6374,-7.7292,-7.7304,-7.7304,-7.7304,-7.7304,-7.7304,-7.7304,-7.7304,-7.7304,-7.7304,-7.7304,-7.7304,-7.7304,-7.7304,-7.7304,-7.7304,-7.7304,-7.7304,-7.7304,-7.7304,-7.7304,-7.7304,-7.7304,-7.7304,-7.7304,-7.7304,-7.7304,-7.7304,-7.7304,-7.7304,-7.7304,-7.7304,-7.7304,-7.7304,-7.7304,-7.7304,-7.7304,-7.7304,-7.7304,-7.7304,-7.7304,-7.7304,-7.7304,-7.7304,-7.7304,-7.7304,-7.7304,-7.7304,-7.7304,-7.7304,-7.7304,-7.7304,-7.7304,-7.7304,-7.7304,-7.7304,-7.7304,-7.7304,-7.7524,-7.8038,-7.8479,-7.9103,-7.9947,-8.0645,-8.1379,-8.2186,-8.2186,-8.2186,-8.2186,-8.2186,-8.2186,-8.2186,-8.2186,-8.2186,-5.8877,0.0,0.0,0.0,0.0,0.0,0.0,0.0,0.0,0.0,0.0,0.0,0.0,0.0,0.0,0.0,0.0,0.0,0.0,0.0,0.0,0.0,0.0,0.0,0.0,0.0,0.0,0.0,0.0,-6.2929,-6.6198,-6.9466,-7.1563,-7.2463,-7.2532,-7.2504,-7.2496,-7.5689,-7.7316,-7.7304,-7.7304,-7.7304,-7.7304,-7.7304,-7.7304,-7.7304,-7.7304,-7.7304,-7.7304,-7.7304,-7.7304,-7.7304,-7.7304,-7.7304,-7.7304,-7.7304,-7.7304,-7.7304,-7.7304,-7.7304,-7.7304,-7.7304,-7.7304,-7.7304,-7.7304,-7.7304,-7.7304,-7.7304,-7.7304,-7.7304,-7.7304,-7.7304,-7.7304,-7.7304,-7.7304,-7.7304,-7.7304,-7.7304,-7.7304,-7.7304,-7.7304,-7.7304,-7.7304,-7.7304,-7.7304,-7.7304,-7.7304,-7.7304,-7.7304,-7.7304,-7.7304,-7.7304,-7.7304,-7.7304,-7.7304,-7.7524,-7.8038,-7.8883,-7.969,-8.0388,-8.0975,-8.1232,-8.1599,-8.2186,-8.2186,-8.2186,-8.2186,-8.2186,-8.2186,-8.2186,-8.2186,-8.2186,0.0,0.0,0.0,-5.4913,0.0,0.0,0.0,0.0,-5.2119,0.0,0.0,0.0,0.0,0.0,0.0,0.0,0.0,0.0,0.0,0.0,0.0,0.0,0.0,0.0,0.0,0.0,0.0,0.0,-5.2587,0.0,-6.2808,-6.604,-6.9284,-7.2389,-7.2516,-7.249,-7.2496,-7.5676,-7.7303,-7.7304,-7.7304,-7.7304,-7.7304,-7.7304,-7.7304,-7.7304,-7.7304,-7.7304,-7.7304,-7.7304,-7.7304,-7.7304,-7.7304,-7.7304,-7.7304,-7.7304,-7.7304,-7.7304,-7.7304,-7.7304,-7.7304,-7.7304,-7.7304,-7.7304,-7.7304,-7.7304,-7.7304,-7.7304,-7.7304,-7.7304,-7.7304,-7.7304,-7.7304,-7.7304,-7.7304,-7.7304,-7.7304,-7.7304,-7.7304,-7.7304,-7.7304,-7.7304,-7.7304,-7.7304,-7.7304,-7.7304,-7.7304,-7.7304,-7.7304,-7.7304,-7.7304,-7.7304,-7.7304,-7.7304,-7.7304,-7.8075,-7.8883,-7.969,-8.0534,-8.0975,-8.1012,-8.1746,-8.215,-8.2186,-8.2186,-8.2186,-8.2186,-8.2186,-8.2186,-8.2186,-8.2186,-8.2186,0.0,0.0,-6.3172,-5.774,0.0,0.0,0.0,0.0,0.0,0.0,0.0,0.0,0.0,0.0,0.0,0.0,0.0,0.0,0.0,0.0,0.0,0.0,0.0,0.0,0.0,0.0,0.0,0.0,-5.2498,0.0,0.0,-6.4787,-6.9151,-7.2374,-7.252,-7.2496,-7.2504,-7.5698,-7.7266,-7.7292,-7.7268,-7.7304,-7.7304,-7.7304,-7.7304,-7.7304,-7.7304,-7.7304,-7.7304,-7.7304,-7.7304,-7.7304,-7.7304,-7.7304,-7.7304,-7.7304,-7.7304,-7.7304,-7.7304,-7.7304,-7.7304,-7.7304,-7.7304,-7.7304,-7.7304,-7.7304,-7.7304,-7.7304,-7.7304,-7.7304,-7.7304,-7.7304,-7.7304,-7.7304,-7.7304,-7.7304,-7.7304,-7.7304,-7.7304,-7.7304,-7.7304,-7.7304,-7.7304,-7.7304,-7.7304,-7.7304,-7.7304,-7.7304,-7.7304,-7.7818,-7.8148,-7.8148,-7.8626,-7.8956,-7.8956,-7.9727,-8.0314,-8.0571,-8.1342,-8.1782,-8.1782,-8.2039,-8.2186,-8.2186,-8.2186,-8.2186,-8.2186,-8.2186,-8.2186,-8.2186,-8.2186,-8.2186,-6.3503,-6.4273,0.0,-5.9942,-5.8841,0.0,-5.3115,0.0,-5.5214,0.0,0.0,0.0,0.0,0.0,0.0,0.0,-4.8714,0.0,0.0,-4.3503,0.0,0.0,0.0,0.0,0.0,0.0,-4.6715,-4.6958,-5.3829,0.0,0.0,0.0,-6.7442,-7.0698,-7.1931,-7.2516,-7.2526,-7.5125,-7.6751,-7.7279,-7.7268,-7.7304,-7.7304,-7.7304,-7.7304,-7.7304,-7.7304,-7.7304,-7.7304,-7.7304,-7.7304,-7.7304,-7.7304,-7.7304,-7.7304,-7.7304,-7.7304,-7.7304,-7.7304,-7.7304,-7.7304,-7.7304,-7.7304,-7.7304,-7.7304,-7.7304,-7.7304,-7.7304,-7.7304,-7.7304,-7.7304,-7.7304,-7.7304,-7.7304,-7.7304,-7.7304,-7.7304,-7.7304,-7.7304,-7.7304,-7.7304,-7.7304,-7.7304,-7.7561,-7.7671,-7.7378,-7.7304,-7.7414,-7.7745,-7.8259,-7.8699,-7.8993,-7.947,-7.991,-8.0204,-8.0718,-8.1122,-8.1415,-8.1893,-8.2186,-8.2186,-8.2186,-8.2186,-8.2186,-8.2186,-8.2186,-8.2186,-8.2186,-8.2186,-8.2186,-8.2186,-8.2186]}]]